[[{"header":{"parameterUnit":"m.s-1","parameterCategory":1,"la1":30.6,"la2":28.766,"lo1":-90.7593,"lo2":-88.6598,"dy":0.0162,"dx":0.0183,"nx":116,"ny":114,"refTime":"2023-09-27T00:00:00:Z","depth":0,"parameterNumber":2,"parameterNumberName":"U-component_of_WINDS"},"data":[0.0,0.0,0.0,0.0,0.0,0.0,0.0,0.0,0.0,0.0,0.0,0.0,0.0,0.0,0.0,0.0,0.0,0.0,0.0,0.0,0.0,0.0,0.0,0.0,0.0,0.0,0.0,0.0,0.0,0.0,0.0,0.0,0.0,0.0,0.0,0.0,0.0,0.0,0.0,0.0,0.0,0.0,0.0,0.0,0.0,0.0,0.0,0.0,0.0,0.0,0.0,0.0,0.0,0.0,0.0,0.0,0.0,0.0,0.0,0.0,0.0,0.0,0.0,0.0,0.0,0.0,0.0,0.0,0.0,0.0,0.0,0.0,0.0,0.0,0.0,0.0,0.0,0.0,0.0,0.0,0.0,0.0,0.0,0.0,0.0,0.0,0.0,0.0,0.0,0.0,0.0,0.0,0.0,0.0,0.0,0.0,0.0,0.0,0.0,0.0,0.0,0.0,0.0,0.0,0.0,0.0,0.0,0.0,0.0,0.0,0.0,0.0,0.0,0.0,0.0,0.0,0.0,0.0,0.0,0.0,0.0,0.0,0.0,0.0,0.0,0.0,0.0,0.0,0.0,0.0,0.0,0.0,0.0,0.0,0.0,0.0,0.0,0.0,0.0,0.0,0.0,0.0,0.0,0.0,0.0,0.0,0.0,0.0,0.0,0.0,0.0,0.0,0.0,0.0,0.0,0.0,0.0,0.0,0.0,0.0,0.0,0.0,0.0,0.0,0.0,0.0,0.0,0.0,0.0,0.0,0.0,0.0,0.0,0.0,0.0,0.0,0.0,0.0,0.0,0.0,0.0,0.0,0.0,0.0,0.0,0.0,0.0,0.0,0.0,0.0,0.0,0.0,0.0,0.0,0.0,0.0,0.0,0.0,0.0,0.0,0.0,0.0,0.0,0.0,0.0,0.0,0.0,0.0,0.0,0.0,0.0,0.0,0.0,0.0,0.0,0.0,0.0,0.0,0.0,0.0,0.0,0.0,0.0,0.0,0.0,0.0,0.0,0.0,0.0,0.0,0.0,0.0,0.0,0.0,0.0,0.0,0.0,0.0,0.0,0.0,0.0,0.0,0.0,0.0,0.0,0.0,0.0,0.0,0.0,0.0,0.0,0.0,0.0,0.0,0.0,0.0,0.0,0.0,0.0,0.0,0.0,0.0,0.0,0.0,0.0,0.0,0.0,0.0,0.0,0.0,0.0,0.0,0.0,0.0,0.0,0.0,0.0,0.0,0.0,0.0,0.0,0.0,0.0,0.0,0.0,0.0,0.0,0.0,0.0,0.0,0.0,0.0,0.0,0.0,0.0,0.0,0.0,0.0,0.0,0.0,0.0,0.0,0.0,0.0,0.0,0.0,0.0,0.0,0.0,0.0,0.0,0.0,0.0,0.0,0.0,0.0,0.0,0.0,0.0,0.0,0.0,0.0,0.0,0.0,0.0,0.0,0.0,0.0,0.0,0.0,0.0,0.0,0.0,0.0,0.0,0.0,0.0,0.0,0.0,0.0,0.0,0.0,0.0,0.0,0.0,0.0,0.0,0.0,0.0,0.0,0.0,0.0,0.0,0.0,0.0,0.0,0.0,0.0,0.0,0.0,0.0,0.0,0.0,0.0,0.0,0.0,0.0,0.0,0.0,0.0,0.0,0.0,0.0,0.0,0.0,0.0,0.0,0.0,0.0,0.0,0.0,0.0,0.0,0.0,0.0,0.0,0.0,0.0,0.0,0.0,0.0,0.0,0.0,0.0,0.0,0.0,0.0,0.0,0.0,0.0,0.0,0.0,0.0,0.0,0.0,0.0,0.0,0.0,0.0,0.0,0.0,0.0,0.0,0.0,0.0,0.0,0.0,0.0,0.0,0.0,0.0,0.0,0.0,0.0,0.0,0.0,0.0,0.0,0.0,0.0,0.0,0.0,0.0,0.0,0.0,0.0,0.0,0.0,0.0,0.0,0.0,0.0,0.0,0.0,0.0,0.0,0.0,0.0,0.0,0.0,0.0,0.0,0.0,0.0,0.0,0.0,0.0,0.0,0.0,0.0,0.0,0.0,0.0,0.0,0.0,0.0,0.0,0.0,0.0,0.0,0.0,0.0,0.0,0.0,0.0,0.0,0.0,0.0,0.0,0.0,0.0,0.0,0.0,0.0,0.0,0.0,0.0,0.0,0.0,0.0,0.0,0.0,0.0,0.0,0.0,0.0,0.0,0.0,0.0,0.0,0.0,0.0,0.0,0.0,0.0,0.0,0.0,0.0,0.0,0.0,0.0,0.0,0.0,0.0,0.0,0.0,0.0,0.0,0.0,0.0,0.0,0.0,0.0,0.0,0.0,0.0,0.0,0.0,0.0,0.0,0.0,0.0,0.0,0.0,0.0,0.0,0.0,0.0,0.0,0.0,0.0,0.0,0.0,0.0,0.0,0.0,0.0,0.0,0.0,0.0,0.0,0.0,0.0,0.0,0.0,0.0,0.0,0.0,0.0,0.0,0.0,0.0,0.0,0.0,0.0,0.0,0.0,0.0,0.0,0.0,0.0,0.0,0.0,0.0,0.0,0.0,0.0,0.0,0.0,0.0,0.0,0.0,0.0,0.0,0.0,0.0,0.0,0.0,0.0,0.0,0.0,0.0,0.0,0.0,0.0,0.0,0.0,0.0,0.0,0.0,0.0,0.0,0.0,0.0,0.0,0.0,0.0,0.0,0.0,0.0,0.0,0.0,0.0,0.0,0.0,0.0,0.0,0.0,0.0,0.0,0.0,0.0,0.0,0.0,0.0,0.0,0.0,0.0,0.0,0.0,0.0,0.0,0.0,0.0,0.0,0.0,0.0,0.0,0.0,0.0,0.0,0.0,0.0,0.0,0.0,0.0,0.0,0.0,0.0,0.0,0.0,0.0,0.0,0.0,0.0,0.0,0.0,0.0,0.0,0.0,0.0,0.0,0.0,0.0,0.0,0.0,0.0,0.0,0.0,0.0,0.0,0.0,0.0,0.0,0.0,0.0,0.0,0.0,0.0,0.0,0.0,0.0,0.0,0.0,0.0,0.0,0.0,0.0,0.0,0.0,0.0,0.0,0.0,0.0,0.0,0.0,0.0,0.0,0.0,0.0,0.0,0.0,0.0,0.0,0.0,0.0,0.0,0.0,0.0,0.0,0.0,0.0,0.0,0.0,0.0,0.0,0.0,0.0,0.0,0.0,0.0,0.0,0.0,0.0,0.0,0.0,0.0,0.0,0.0,0.0,0.0,0.0,0.0,0.0,0.0,0.0,0.0,0.0,0.0,0.0,0.0,0.0,0.0,0.0,0.0,0.0,0.0,0.0,0.0,0.0,0.0,0.0,0.0,0.0,0.0,0.0,0.0,0.0,0.0,0.0,0.0,0.0,0.0,0.0,0.0,0.0,0.0,0.0,0.0,0.0,0.0,0.0,0.0,0.0,0.0,0.0,0.0,0.0,0.0,0.0,0.0,0.0,0.0,0.0,0.0,0.0,0.0,0.0,0.0,0.0,0.0,0.0,0.0,0.0,0.0,0.0,0.0,0.0,0.0,0.0,0.0,0.0,0.0,0.0,0.0,0.0,0.0,0.0,0.0,0.0,0.0,0.0,0.0,0.0,0.0,0.0,0.0,0.0,0.0,0.0,0.0,0.0,0.0,0.0,0.0,0.0,0.0,0.0,0.0,0.0,0.0,0.0,0.0,0.0,0.0,0.0,0.0,0.0,0.0,0.0,0.0,0.0,0.0,0.0,0.0,0.0,0.0,0.0,0.0,0.0,0.0,0.0,0.0,0.0,0.0,0.0,0.0,0.0,0.0,0.0,0.0,0.0,0.0,0.0,0.0,0.0,0.0,0.0,0.0,0.0,0.0,0.0,0.0,0.0,0.0,0.0,0.0,0.0,0.0,0.0,0.0,0.0,0.0,0.0,0.0,0.0,0.0,0.0,0.0,0.0,0.0,0.0,0.0,0.0,0.0,0.0,0.0,0.0,0.0,0.0,0.0,0.0,0.0,0.0,0.0,0.0,0.0,0.0,0.0,0.0,0.0,0.0,0.0,0.0,0.0,0.0,0.0,0.0,0.0,0.0,0.0,0.0,0.0,0.0,0.0,0.0,0.0,0.0,0.0,0.0,0.0,0.0,0.0,0.0,0.0,0.0,0.0,0.0,0.0,0.0,0.0,0.0,0.0,0.0,0.0,0.0,0.0,0.0,0.0,0.0,0.0,0.0,0.0,0.0,0.0,0.0,0.0,0.0,0.0,0.0,0.0,0.0,0.0,0.0,0.0,0.0,0.0,0.0,0.0,0.0,0.0,0.0,0.0,0.0,0.0,0.0,0.0,0.0,0.0,0.0,0.0,0.0,0.0,0.0,0.0,0.0,0.0,0.0,0.0,0.0,0.0,0.0,0.0,0.0,0.0,0.0,0.0,0.0,0.0,0.0,0.0,0.0,0.0,0.0,0.0,0.0,0.0,0.0,0.0,0.0,0.0,0.0,0.0,0.0,0.0,0.0,0.0,0.0,0.0,0.0,0.0,0.0,0.0,0.0,0.0,0.0,0.0,0.0,0.0,0.0,0.0,0.0,0.0,0.0,0.0,0.0,0.0,0.0,0.0,0.0,0.0,0.0,0.0,0.0,0.0,0.0,0.0,0.0,0.0,0.0,0.0,0.0,0.0,0.0,0.0,0.0,0.0,0.0,0.0,0.0,0.0,0.0,0.0,0.0,0.0,0.0,0.0,0.0,0.0,0.0,0.0,0.0,0.0,0.0,0.0,0.0,0.0,0.0,0.0,0.0,0.0,0.0,0.0,0.0,0.0,0.0,0.0,0.0,0.0,0.0,0.0,0.0,0.0,0.0,0.0,0.0,0.0,0.0,0.0,0.0,0.0,0.0,0.0,0.0,0.0,0.0,0.0,0.0,0.0,0.0,0.0,0.0,0.0,0.0,0.0,0.0,0.0,0.0,0.0,0.0,0.0,0.0,0.0,0.0,0.0,0.0,0.0,0.0,0.0,0.0,0.0,0.0,0.0,0.0,0.0,0.0,0.0,0.0,0.0,0.0,0.0,0.0,0.0,0.0,0.0,0.0,0.0,0.0,0.0,0.0,0.0,0.0,0.0,0.0,0.0,0.0,0.0,0.0,0.0,0.0,0.0,0.0,0.0,0.0,0.0,0.0,0.0,0.0,0.0,0.0,0.0,0.0,0.0,0.0,0.0,0.0,0.0,0.0,0.0,0.0,0.0,0.0,0.0,0.0,0.0,0.0,0.0,0.0,0.0,0.0,0.0,0.0,0.0,0.0,0.0,0.0,0.0,0.0,0.0,0.0,0.0,0.0,0.0,0.0,0.0,0.0,0.0,0.0,0.0,0.0,0.0,0.0,0.0,0.0,0.0,0.0,0.0,0.0,0.0,0.0,0.0,0.0,0.0,0.0,0.0,0.0,0.0,0.0,0.0,0.0,0.0,0.0,0.0,0.0,0.0,0.0,0.0,0.0,0.0,0.0,0.0,0.0,0.0,0.0,0.0,0.0,0.0,0.0,0.0,0.0,0.0,0.0,0.0,0.0,0.0,0.0,0.0,0.0,0.0,0.0,0.0,0.0,0.0,0.0,0.0,0.0,0.0,0.0,0.0,0.0,0.0,0.0,0.0,0.0,0.0,0.0,0.0,0.0,0.0,0.0,0.0,0.0,0.0,0.0,0.0,0.0,0.0,0.0,0.0,0.0,0.0,0.0,0.0,0.0,0.0,0.0,0.0,0.0,0.0,0.0,0.0,0.0,0.0,0.0,0.0,0.0,0.0,0.0,0.0,0.0,0.0,0.0,0.0,0.0,0.0,0.0,0.0,0.0,0.0,0.0,0.0,0.0,0.0,0.0,0.0,0.0,0.0,0.0,0.0,0.0,0.0,0.0,0.0,0.0,0.0,0.0,0.0,0.0,0.0,0.0,0.0,0.0,0.0,0.0,0.0,0.0,0.0,0.0,0.0,0.0,0.0,0.0,0.0,0.0,0.0,0.0,0.0,0.0,0.0,0.0,0.0,0.0,0.0,0.0,0.0,0.0,0.0,0.0,0.0,0.0,0.0,0.0,0.0,0.0,0.0,0.0,0.0,0.0,0.0,0.0,1.533,1.5354,0.0,0.0,0.0,0.0,0.0,0.0,0.0,0.0,0.0,0.0,0.0,0.0,0.0,0.0,0.0,0.0,0.0,0.0,0.0,0.0,0.0,0.0,0.0,0.0,0.0,0.0,0.0,0.0,0.0,0.0,0.0,0.0,0.0,0.0,0.0,0.0,0.0,0.6665,0.645,0.6491,0.6754,0.7098,0.7443,0.7757,0.0,0.0,0.0,0.0,0.0,0.0,0.0,0.0,0.0,0.0,0.0,0.0,0.0,0.0,0.0,0.0,0.0,0.0,0.0,0.0,0.0,0.0,0.0,0.0,0.0,0.0,0.0,0.0,0.0,0.0,0.0,0.0,0.0,0.0,0.0,0.0,0.0,0.0,0.0,0.0,0.0,0.0,0.0,0.0,0.0,0.0,0.0,0.0,0.0,0.0,0.0,0.0,0.0,0.0,0.0,0.0,0.0,0.0,0.0,0.0,0.0,0.0,0.0,0.0,0.0,0.0,0.0,0.0,0.0,0.0,1.5379,1.5323,0.0,0.0,0.0,0.0,0.0,0.0,0.0,0.0,0.0,0.0,0.0,0.0,0.0,0.0,0.0,0.0,0.0,0.0,0.0,0.0,0.0,0.0,0.0,0.6788,0.6707,0.6707,0.6926,0.7155,0.0,0.0,0.0,0.0,0.0,0.0,0.6997,0.6535,0.6231,0.6093,0.6154,0.6339,0.6651,0.68,0.7128,0.7612,0.7843,0.0,0.0,0.0,0.0,0.0,0.0,0.0,0.0,0.0,0.0,0.0,0.0,0.0,0.0,0.0,0.0,0.0,0.0,0.0,0.0,0.0,0.0,0.0,0.0,0.0,0.0,0.0,0.0,0.0,0.0,0.0,0.0,0.0,0.0,0.0,0.0,0.0,0.0,0.0,0.0,0.0,0.0,0.0,0.0,0.0,0.0,0.0,0.0,0.0,0.0,0.0,0.0,0.0,0.0,0.0,0.0,0.0,0.0,0.0,0.0,0.0,0.0,0.0,1.536,1.5413,1.537,1.5597,1.5749,1.5786,1.5572,1.5319,1.5071,1.5261,0.0,0.0,0.0,0.0,0.0,0.0,0.0,0.0,0.0,0.0,0.0,0.0,0.0,0.0,0.0,0.0,0.0,0.0,0.0,0.6277,0.6164,0.6028,0.595,0.595,0.6082,0.6395,0.6947,0.0,0.0,0.0,0.0,0.0,0.657,0.6115,0.5817,0.5674,0.5693,0.5794,0.6029,0.6222,0.6506,0.6878,0.7466,0.7844,0.8021,0.0,0.0,0.0,0.0,0.0,0.0,0.0,0.0,0.0,0.0,0.0,0.0,0.0,0.0,0.0,0.0,0.0,0.0,0.0,0.0,0.0,0.0,0.0,0.0,0.0,0.0,0.0,0.0,0.0,0.0,0.0,0.0,0.0,0.0,0.0,0.0,0.0,0.0,0.0,0.0,0.0,1.3031,1.307,0.0,0.0,0.0,0.0,0.0,0.0,0.0,0.0,0.0,0.0,0.0,0.0,0.0,1.532,1.5491,1.5533,1.5687,1.5953,1.5759,1.5923,1.6406,1.6278,1.633,1.6534,1.6516,0.0,1.5256,1.5106,0.0,0.0,0.0,0.0,0.0,0.0,0.0,0.0,0.0,0.0,0.0,0.0,0.0,0.0,0.0,0.0,0.0,0.0,0.0,0.0,0.0,0.544,0.5413,0.5413,0.5527,0.5798,0.6248,0.6262,0.0,0.0,0.0,0.6037,0.5992,0.5716,0.5627,0.5708,0.5716,0.5913,0.6298,0.6392,0.6561,0.6829,0.7116,0.7399,0.7684,0.7918,0.0,0.0,0.0,0.0,0.0,0.0,0.0,0.0,0.0,0.0,0.0,0.0,0.0,0.0,0.0,0.0,0.0,0.0,0.0,0.0,0.0,0.0,0.0,0.0,0.0,0.0,0.0,0.0,0.0,0.0,0.0,0.0,0.0,0.0,0.0,0.0,0.0,0.0,0.0,1.2962,1.3074,1.3193,1.3507,1.3707,0.0,0.0,0.0,0.0,0.0,0.0,0.0,0.0,0.0,1.5174,1.562,1.591,1.599,1.613,1.6279,1.6439,1.6319,1.65,1.6918,1.6842,1.6953,1.7194,1.7194,1.6965,1.6554,1.6134,1.5963,1.5963,0.0,0.0,0.0,0.0,1.6195,1.6302,0.0,0.0,0.0,0.0,0.0,0.0,0.0,0.0,0.0,0.0,0.0,0.0,0.5014,0.5001,0.5001,0.5001,0.5122,0.5325,0.5655,0.5791,0.5876,0.5952,0.5777,0.5663,0.5608,0.5511,0.5548,0.5755,0.5815,0.6054,0.6447,0.6492,0.6598,0.6744,0.6744,0.6975,0.7367,0.7541,0.7966,0.854,0.0,0.0,0.0,0.0,0.0,0.0,0.0,0.0,0.0,0.0,0.0,0.0,0.0,0.0,0.0,0.0,0.0,0.0,0.0,0.0,0.0,0.0,0.0,0.0,0.0,0.0,0.0,0.0,0.0,0.0,0.0,0.0,0.0,0.0,0.0,0.0,0.0,1.2908,1.308,1.3223,1.3662,1.3922,0.0,0.0,0.0,0.0,0.0,0.0,1.4986,1.5238,1.5465,1.5644,1.6135,1.645,1.6524,1.6805,1.6967,1.7022,1.7022,1.7194,1.7515,1.7436,1.7503,1.7702,1.7622,1.7622,1.7662,1.7142,1.6927,1.6927,1.6927,1.6927,1.6927,1.6927,1.6877,1.68,0.0,0.0,0.0,0.0,0.0,0.0,0.0,0.0,0.0,0.0,0.0,0.4877,0.4733,0.4719,0.4719,0.4719,0.4841,0.5035,0.5302,0.5396,0.554,0.5793,0.5556,0.5478,0.5605,0.5589,0.5593,0.5607,0.5867,0.601,0.6042,0.623,0.6318,0.6337,0.6337,0.6551,0.6955,0.7274,0.754,0.7822,0.8596,0.0,0.0,0.0,0.0,0.0,0.0,0.0,0.0,0.0,0.0,0.0,0.0,0.0,0.0,0.0,0.0,0.0,0.0,0.0,0.0,0.0,0.0,0.0,0.0,0.0,0.0,0.0,0.0,0.0,0.0,0.0,0.0,0.0,0.0,0.0,0.0,0.0,0.0,1.3378,1.3424,0.0,0.0,0.0,0.0,1.3834,1.4111,1.4461,1.4985,1.5245,1.5658,1.6235,1.6521,1.6832,1.7152,1.7421,1.7689,1.7929,1.7929,1.8116,1.8424,1.8106,1.7968,1.7953,1.7648,1.7676,1.7957,1.7676,1.7542,1.7542,1.7542,1.7542,1.7542,1.7542,1.7358,1.7068,0.0,0.0,0.0,0.0,0.0,0.0,0.0,0.0,0.4042,0.4042,0.4284,0.4429,0.4387,0.4498,0.4601,0.4691,0.4746,0.4893,0.5158,0.5197,0.5311,0.5531,0.5447,0.5468,0.5603,0.5685,0.5838,0.6042,0.6144,0.6274,0.6444,0.6519,0.6566,0.6566,0.6566,0.6645,0.6795,0.6989,0.7315,0.7743,0.8145,0.8714,0.0,0.0,0.0,0.0,0.0,0.0,0.0,0.0,0.0,0.0,0.0,0.0,0.0,0.0,0.0,0.0,0.0,0.0,0.0,0.0,0.0,0.0,0.0,0.0,0.0,0.0,0.0,0.0,0.0,0.0,0.0,0.0,0.0,0.0,0.0,0.0,0.0,1.2859,1.3205,0.0,1.3401,1.3666,1.3896,1.3977,1.4069,1.4292,1.4649,1.5139,1.5563,1.5914,1.637,1.6696,1.6804,1.7079,1.7266,1.7366,1.75,1.7708,1.7994,1.7852,1.7921,1.8124,1.8017,1.8017,1.8111,1.8031,1.8045,1.817,1.817,1.8048,1.7844,1.7844,1.7557,1.7064,0.0,0.0,0.0,0.0,0.0,0.0,0.0,0.0,0.3586,0.366,0.3938,0.4152,0.4193,0.4413,0.4579,0.4593,0.4708,0.4787,0.4829,0.4935,0.5049,0.5158,0.5335,0.5511,0.5657,0.5872,0.6076,0.63,0.643,0.6614,0.683,0.6898,0.6953,0.7007,0.7007,0.7007,0.7001,0.708,0.734,0.7712,0.7919,0.8502,0.9233,0.0,0.0,0.0,0.0,0.0,0.0,0.0,0.0,0.0,0.0,0.0,0.0,0.0,0.0,0.0,0.0,0.0,0.0,0.0,0.0,0.0,0.0,0.0,0.0,0.0,0.0,0.0,0.0,0.0,0.0,0.0,0.0,0.0,0.0,1.1374,1.1586,1.1953,1.2304,1.2546,1.2629,1.2899,1.3138,1.3241,1.3251,1.3461,1.3943,1.4412,1.4911,1.5451,1.6046,1.642,1.6621,1.6909,1.7038,1.7038,1.7173,1.7338,1.7483,1.7302,1.7333,1.7507,1.7291,1.7322,1.7538,1.7538,1.7733,1.8062,1.8292,1.8263,1.8062,1.7934,1.7502,1.6837,0.0,0.0,0.0,0.0,0.0,0.0,0.2142,0.2687,0.3146,0.3341,0.373,0.4041,0.4186,0.4492,0.4621,0.4418,0.4695,0.4705,0.4323,0.459,0.476,0.47,0.5223,0.5604,0.5795,0.6137,0.632,0.6327,0.6722,0.6985,0.7112,0.7312,0.7478,0.7597,0.7597,0.7597,0.7607,0.754,0.7577,0.7723,0.7918,0.8491,0.9262,0.0,0.0,0.0,0.0,0.0,0.0,0.0,0.0,0.0,0.0,0.0,0.0,0.0,0.0,0.0,0.0,0.0,0.0,0.0,0.0,0.0,0.0,0.0,0.0,0.0,0.0,0.0,0.0,0.0,0.0,0.0,0.0,0.0,0.9805,1.028,1.0612,1.0759,1.0785,1.0871,1.1069,1.1087,1.125,1.1565,1.1591,1.1959,1.2812,1.3065,1.3723,1.4887,1.5429,1.5996,1.6601,1.6836,1.6991,1.6991,1.7002,1.7002,1.6971,1.6394,1.6115,1.6084,1.5441,1.5525,1.6115,1.6115,1.6487,1.7064,1.7845,1.8165,1.8091,1.7784,1.7218,1.6383,0.0,0.0,0.0,0.0,0.0,0.0,0.1712,0.2156,0.2519,0.2715,0.3313,0.3806,0.4026,0.4314,0.4509,0.4544,0.4409,0.425,0.4087,0.4258,0.4514,0.4831,0.5451,0.5822,0.5879,0.6344,0.6681,0.6877,0.6999,0.7195,0.7475,0.7516,0.7556,0.7597,0.7597,0.7597,0.7597,0.7579,0.768,0.7847,0.775,0.8024,0.8513,0.0,0.0,0.0,0.0,0.0,0.0,0.0,0.0,0.0,0.0,0.0,0.0,0.0,0.0,0.0,0.0,0.0,0.0,0.0,0.0,0.0,0.0,0.0,0.0,0.0,0.0,0.0,0.0,0.0,0.0,0.0,0.8561,0.8888,0.9515,0.9812,1.0074,1.041,1.0568,1.0724,1.0877,1.1008,1.1208,1.1446,1.1462,1.1661,1.2147,1.2457,1.2847,1.3317,1.3713,1.3986,1.4172,1.437,1.4506,1.4506,1.4699,1.4774,1.4774,1.4613,1.4516,1.4516,1.4332,1.4355,1.4516,1.4516,1.4613,1.4961,1.6721,1.7145,1.6744,1.6651,1.5722,1.4392,0.0,0.0,0.0,0.0,0.0,0.0,0.1347,0.1754,0.2114,0.2338,0.2961,0.3522,0.3871,0.4213,0.4357,0.4268,0.4078,0.3825,0.3472,0.3604,0.3943,0.4497,0.5134,0.5566,0.5779,0.6402,0.6822,0.6966,0.7204,0.7432,0.7685,0.7685,0.7726,0.7763,0.7763,0.7763,0.7756,0.7719,0.7757,0.7841,0.7663,0.7821,0.8151,0.8057,0.8122,0.8275,0.8562,0.8705,0.8857,0.9368,0.0,0.0,0.0,0.0,0.0,0.0,0.0,0.0,0.0,0.0,0.0,0.0,0.0,0.0,0.0,0.0,0.0,0.0,0.0,0.0,0.0,0.0,0.0,0.0,0.8533,0.8802,0.9188,0.9314,0.9514,0.9881,1.0081,1.0246,1.0382,1.0539,1.0703,1.0906,1.0951,1.1095,1.1417,1.1674,1.2012,1.2393,1.2667,1.29,1.302,1.3154,1.3213,1.3213,1.3356,1.3448,1.3448,1.3284,1.3227,1.3227,1.3095,1.3087,1.3227,1.3227,1.3317,1.3587,0.0,0.0,0.0,0.0,1.4075,1.2997,0.0,0.0,0.0,0.0,0.0,0.0,0.0981,0.1403,0.1796,0.2059,0.2645,0.3218,0.3689,0.406,0.4139,0.3769,0.3671,0.333,0.2642,0.2804,0.3224,0.3839,0.4483,0.5028,0.5472,0.6243,0.6678,0.6732,0.7234,0.7556,0.7689,0.7738,0.7836,0.7963,0.7988,0.7988,0.7982,0.7871,0.781,0.7804,0.7699,0.7807,0.8018,0.7853,0.7793,0.7848,0.7868,0.7985,0.8122,0.8185,0.0,0.0,0.0,0.0,0.0,0.0,0.0,0.0,0.0,0.0,0.0,0.0,0.0,0.0,0.0,0.0,0.0,0.0,0.0,0.0,0.0,0.0,0.0,0.0,0.8791,0.8973,0.9007,0.9007,0.9109,0.9401,0.9564,0.9713,0.9856,0.9967,1.0109,1.0322,1.0304,1.047,1.0778,1.0898,0.0,0.0,0.0,1.2272,1.2553,1.2553,1.2553,1.2553,1.2576,1.2584,1.2584,1.2285,1.2168,1.2168,1.1869,1.1903,1.2168,1.2168,1.2359,1.2674,1.345,1.3754,1.3673,1.2947,1.2484,1.2135,0.0,0.0,0.0,0.0,0.0,0.0,0.0505,0.0841,0.1165,0.1443,0.2142,0.2819,0.3334,0.3513,0.3523,0.3334,0.2813,0.2365,0.2006,0.2316,0.2703,0.3094,0.385,0.4413,0.4788,0.543,0.5941,0.6308,0.6642,0.6851,0.7006,0.7428,0.7645,0.7696,0.7889,0.7988,0.7988,0.7986,0.7973,0.7966,0.7939,0.7822,0.7695,0.7644,0.7578,0.7528,0.7685,0.7694,0.7694,0.8078,0.8326,0.8535,0.8759,0.8768,0.0,0.0,0.0,0.0,0.0,0.0,0.0,0.0,0.0,0.0,0.0,0.0,0.0,0.0,0.0,0.0,0.0,0.0,0.0,0.8818,0.9103,0.9381,0.9589,0.9623,0.9643,0.9727,0.9907,1.0056,1.0175,1.0215,1.0297,1.0439,1.0453,1.054,1.0695,1.0729,1.0809,1.0941,1.1002,1.1049,1.1115,1.1115,1.1115,1.1115,1.1208,0.0,1.1271,1.1363,1.1419,1.1419,1.1351,1.1351,1.1419,1.1419,1.1454,1.1576,1.2453,1.2821,1.2846,1.2164,1.1864,1.1761,0.0,0.0,0.0,0.0,0.0,0.0,0.0378,0.0687,0.0967,0.1179,0.1749,0.231,0.2711,0.2873,0.2883,0.2713,0.2052,0.1514,0.1217,0.1475,0.1799,0.2139,0.2858,0.3402,0.3746,0.4612,0.5176,0.546,0.6028,0.6407,0.6617,0.7141,0.7466,0.7621,0.7889,0.7988,0.7988,0.7988,0.7988,0.7988,0.7988,0.7925,0.7783,0.7733,0.7611,0.7512,0.7621,0.7595,0.7578,0.7829,0.7948,0.8013,0.8152,0.8157,0.8121,0.0,0.0,0.0,0.0,0.0,0.0,0.0,0.0,0.0,0.0,0.0,0.0,0.0,0.0,0.8471,0.8669,0.0,0.896,0.9137,0.9408,0.9652,0.9771,1.0012,1.0127,1.0059,1.0213,1.0335,1.0378,1.046,1.0527,1.0602,1.0609,1.0636,1.0684,1.0684,1.0684,1.0684,1.0759,1.0799,1.0799,1.0907,1.0941,1.0941,1.1016,1.1056,1.1056,1.1166,1.12,1.12,1.12,1.12,1.12,1.12,1.124,1.1336,1.178,1.1951,1.1917,1.1579,1.1441,1.1434,0.0,0.0,0.0,0.0,0.0,0.0,0.0,0.0575,0.0813,0.0939,0.1355,0.1726,0.1995,0.2167,0.215,0.1896,0.1328,0.0861,0.0563,0.0729,0.0972,0.1256,0.1829,0.2298,0.2631,0.3578,0.4127,0.426,0.5063,0.5611,0.5937,0.6587,0.7092,0.7472,0.7764,0.7939,0.7988,0.7988,0.7988,0.7988,0.7988,0.7988,0.7975,0.7878,0.7767,0.7638,0.7638,0.7624,0.7597,0.7597,0.7617,0.7638,0.7638,0.7658,0.7706,0.7797,0.7831,0.0,0.0,0.0,0.0,0.0,0.0,0.0,0.0,0.8335,0.8389,0.8533,0.8574,0.8662,0.894,0.9021,0.9129,0.9422,0.9693,0.9852,0.9913,1.0263,1.046,1.0378,1.0466,1.0534,1.0534,1.0649,1.0684,1.0684,1.0684,1.0684,1.0684,1.0718,1.0732,1.0732,1.088,1.0955,1.0955,1.1104,1.12,1.12,1.1227,1.124,1.124,1.1274,1.1288,1.1288,1.1288,1.1288,1.1288,1.1288,1.1321,1.1436,1.1436,1.1375,1.1322,1.1295,1.1288,1.1288,0.0,0.0,0.0,0.0,0.0,0.0,0.0,0.0,0.0322,0.0463,0.0779,0.1102,0.1365,0.1375,0.1172,0.0721,0.0623,0.05,0.0345,0.0528,0.0686,0.0776,0.101,0.1346,0.1733,0.2049,0.2354,0.2647,0.3243,0.3776,0.4282,0.5311,0.6162,0.6923,0.7422,0.7771,0.7988,0.7988,0.7988,0.7988,0.7988,0.7988,0.7988,0.7993,0.7898,0.7787,0.7787,0.7706,0.7597,0.7597,0.7685,0.7787,0.7787,0.7858,0.7966,0.7986,0.7986,0.7993,0.7982,0.7988,0.8047,0.8208,0.8267,0.8308,0.0,0.8485,0.854,0.8798,0.8858,0.8953,0.9279,0.9442,0.9585,0.9717,0.9886,1.0082,1.0378,1.046,1.0534,1.0623,1.0683,1.0697,1.0697,1.0677,1.0684,1.0684,1.0684,1.0684,1.0684,1.0813,1.0887,1.0887,1.1063,1.1172,1.1172,1.1193,1.12,1.12,1.1336,1.1362,1.1369,1.1504,1.1565,1.1565,1.1565,1.1565,1.1565,1.1565,1.1543,1.1592,1.1592,1.1624,1.1705,1.1613,1.1565,1.1565,0.0,0.0,0.0,0.0,0.0,0.0,0.0,0.0,0.0224,0.028,0.0506,0.0716,0.0814,0.0804,0.0681,0.0403,0.0388,0.031,0.0145,0.02,0.0265,0.0288,0.0522,0.0734,0.0908,0.1298,0.1569,0.1693,0.2396,0.3017,0.3553,0.478,0.5782,0.6592,0.7291,0.7746,0.7988,0.7988,0.7988,0.7988,0.7988,0.7988,0.7988,0.7988,0.7973,0.7918,0.7918,0.7878,0.0,0.7831,0.7871,0.7918,0.7918,0.7966,0.7988,0.7988,0.7988,0.7988,0.7988,0.8081,0.8187,0.8281,0.8355,0.8485,0.8696,0.8723,0.8832,0.9137,0.9198,0.9259,0.9476,0.9632,0.9751,0.99,1.0123,1.0351,1.0473,1.0568,1.0649,1.0677,1.0684,1.0684,1.0684,1.0684,1.0684,1.0684,1.0684,1.0725,1.0813,1.088,1.0955,1.107,1.1219,1.1329,1.1329,1.1382,1.143,1.143,1.1491,1.1525,1.1525,1.1556,1.1584,1.159,1.1671,1.1705,1.1712,1.1843,1.1877,1.1877,1.1877,1.1911,1.1945,1.1796,1.1803,1.1877,0.0,0.0,0.0,0.0,0.0,0.0,0.0,0.0,0.0,0.0,0.0274,0.0359,0.0358,0.036,0.032,0.0219,0.0219,0.0155,0.0018,0.0,0.0,0.0,0.0186,0.0298,0.0289,0.0681,0.0864,0.087,0.1528,0.2155,0.2778,0.404,0.514,0.6115,0.6963,0.7558,0.7889,0.7963,0.7988,0.7988,0.7988,0.7988,0.7988,0.7988,0.7988,0.7988,0.7988,0.7988,0.7988,0.7988,0.7988,0.7988,0.7988,0.7988,0.7988,0.7988,0.8047,0.8081,0.8081,0.8214,0.8376,0.8431,0.8533,0.8689,0.8967,0.9034,0.9102,0.9395,0.9442,0.949,0.9639,0.9758,0.99,1.0055,1.0324,1.0507,1.0548,1.0649,1.0684,1.0684,1.0684,1.0684,1.0684,1.0684,1.0684,1.0684,1.0725,1.0799,1.0873,1.0995,1.1083,1.1254,1.1375,1.1457,1.1457,1.1565,1.1584,1.1584,1.1584,1.1584,1.1584,1.1624,1.1701,1.1748,1.185,1.1898,1.1904,1.205,1.2098,1.2098,1.2098,1.2125,1.2145,1.1999,1.1999,1.2098,0.0,0.0,0.0,0.0,0.0,0.0,0.0,0.0,0.0,0.0,0.0,0.0,0.0,0.0017,0.0017,0.0017,0.0017,0.0,0.0,0.0,0.0,0.0,0.0,0.0021,0.0022,0.0022,0.0045,0.0046,0.0331,0.0859,0.1671,0.2697,0.3902,0.5269,0.6293,0.7045,0.7621,0.7889,0.7988,0.7988,0.7988,0.7988,0.7988,0.7988,0.7988,0.7988,0.7988,0.7988,0.7988,0.7988,0.7988,0.7988,0.7988,0.7988,0.7988,0.7988,0.8147,0.8287,0.8287,0.8396,0.8547,0.8818,0.8892,0.8973,0.93,0.9396,0.9415,0.9571,0.9605,0.9646,0.9758,0.9907,1.0062,1.0249,1.0399,1.0548,1.069,1.0684,1.0684,1.0684,1.0684,1.0684,1.0684,1.0684,1.0684,1.0684,1.0826,1.0907,1.0914,1.1219,1.1382,1.1382,1.1531,1.1577,1.1577,1.1619,1.1584,1.1584,1.1584,1.1584,1.159,1.1726,1.1904,1.2084,1.2091,1.2091,1.2091,1.2098,1.2098,1.2098,1.2098,1.2193,1.2284,1.2277,1.222,1.2098,0.0,0.0,0.0,0.0,0.0,0.0,0.0,0.0,0.0,0.0,0.0,0.0,0.0,0.0,0.0,0.0,0.0202,0.0138,0.0,0.0,0.0,0.0,0.0,0.0,0.0,0.0,0.0,0.0,0.0278,0.0729,0.1359,0.2359,0.3534,0.4853,0.5954,0.6845,0.756,0.7874,0.7988,0.7988,0.7988,0.7988,0.7988,0.7988,0.7988,0.7988,0.0,0.7988,0.7988,0.7988,0.7988,0.7988,0.7988,0.7988,0.8033,0.816,0.8321,0.8437,0.8437,0.8594,0.8784,0.8885,0.9061,0.9286,0.949,0.953,0.9578,0.969,0.9717,0.9765,0.9913,1.0069,1.0249,1.0399,1.0548,1.0663,1.0677,1.0684,1.0684,1.0684,1.0684,1.0684,1.0684,1.0684,1.0732,1.0833,1.0887,1.1002,1.1233,1.1335,1.1436,1.1538,1.1592,1.1584,1.1584,1.1584,1.1584,1.1584,1.1678,1.1816,1.1918,1.1965,1.205,1.2104,1.2207,1.221,1.2261,1.2318,1.2352,1.2352,1.2352,1.2386,1.2433,1.2433,1.24,1.2352,0.0,0.0,0.0,0.0,0.0,0.0,0.0,0.0,0.0,0.0,0.0,0.0,0.0,0.0,0.0,0.0,0.0,0.0431,0.0327,0.0182,0.0112,0.0098,0.004,0.0,0.0,0.0,0.0,0.0,0.0181,0.0484,0.0933,0.1912,0.2971,0.4094,0.5455,0.6493,0.724,0.772,0.7966,0.7988,0.7988,0.7988,0.7988,0.7988,0.7988,0.0,0.7988,0.7988,0.7988,0.7988,0.7988,0.7988,0.7988,0.8054,0.8153,0.8328,0.8478,0.8574,0.8628,0.8825,0.9042,0.9122,0.932,0.9503,0.9652,0.9686,0.9683,0.9771,0.9792,0.9839,0.9988,1.0175,1.0324,1.0466,1.0622,1.0684,1.0684,1.0684,1.0684,1.0684,1.0684,1.0711,1.0765,1.0765,1.0813,1.0873,1.1009,1.1158,1.1382,1.1443,1.1518,1.1613,1.1584,1.1584,1.1584,1.1638,1.1721,1.1775,1.187,1.1993,1.2179,1.2179,1.2207,1.2261,1.2325,1.2366,1.2372,1.2467,1.2501,1.2501,1.2501,1.2535,1.2583,1.2583,1.2617,1.2651,0.0,0.0,0.0,0.0,0.0,0.0,0.0,0.0,0.0,0.0,0.0,0.0,0.0,0.0,0.0,0.0,0.0,0.0,0.0909,0.0528,0.0298,0.0294,0.0098,0.0,0.0,0.0,0.0,0.0,0.0,0.0135,0.0426,0.1346,0.2198,0.3069,0.477,0.5959,0.6737,0.7469,0.7878,0.7988,0.7988,0.7988,0.7988,0.7988,0.7988,0.7988,0.7988,0.7988,0.7988,0.7988,0.7988,0.7988,0.8027,0.8153,0.8335,0.8478,0.8608,0.8764,0.8885,0.9062,0.9274,0.9537,0.9612,0.9652,0.9758,0.9792,0.9792,0.9792,0.9798,0.9846,1.0001,1.0188,1.0337,1.048,1.0622,1.0684,1.0684,1.0684,1.0684,1.0684,1.0684,1.0745,1.0901,1.0921,1.0928,1.0934,1.1233,1.1396,1.1402,1.1538,1.1584,1.1584,1.1626,1.1597,1.1597,1.1732,1.1918,1.2111,1.2111,1.2193,1.2298,1.2298,1.2372,1.2501,1.2501,1.2501,1.2501,1.2501,1.2508,1.2515,1.2515,1.261,1.2706,1.2706,1.2834,1.2962,0.0,0.0,0.0,0.0,0.0,0.0,0.0,0.0,0.0,0.0,0.0,0.0,0.0,0.0,0.0,0.0,0.0,0.0,0.1072,0.0674,0.041,0.0314,0.0098,0.0,0.0,0.0,0.0,0.0,0.0,0.0135,0.0403,0.1008,0.1865,0.2981,0.4215,0.5446,0.6584,0.7286,0.7731,0.7988,0.7988,0.7988,0.7988,0.7988,0.7988,0.7988,0.7988,0.7988,0.7988,0.7988,0.7988,0.8033,0.8174,0.8335,0.8485,0.8608,0.8866,0.9077,0.9117,0.9322,0.951,0.9591,0.9686,0.9744,0.9785,0.9792,0.9792,0.9792,0.9879,1.0008,1.0195,1.0337,1.0487,1.0636,1.0697,1.0684,1.0684,1.0684,1.0684,1.0684,1.0684,1.0745,1.0901,1.1043,1.1151,1.1267,1.1348,1.1443,1.1552,1.1563,1.1584,1.1584,1.1685,1.1739,1.1739,1.1925,1.2118,1.223,1.223,1.2311,1.2447,1.2447,1.2467,1.2501,1.2501,1.2501,1.2501,1.2501,1.2569,1.2632,1.2632,1.2766,1.2901,1.2901,1.2969,1.2989,0.0,0.0,0.0,0.0,0.0,0.0,0.0,0.0,0.0,0.0,0.0,0.0,0.0,0.0,0.0,0.0,0.0,0.0,0.0,0.1447,0.1038,0.0791,0.0527,0.0314,0.0138,0.0122,0.0083,0.0,0.0,0.0067,0.0247,0.083,0.1569,0.2466,0.3807,0.5036,0.617,0.7012,0.7583,0.0,0.0,0.7988,0.7988,0.7988,0.7988,0.7988,0.7988,0.7988,0.7988,0.7988,0.7988,0.8054,0.8296,0.8444,0.8566,0.8852,0.9049,0.9241,0.9342,0.9483,0.9625,0.9686,0.9731,0.9792,0.9792,0.9792,0.9812,0.9879,0.9961,1.0082,1.0331,1.0439,1.0541,1.0697,1.0684,1.0684,1.0684,1.0684,1.0684,1.0684,1.0745,1.0846,1.1029,1.1179,1.1328,1.1477,1.1491,1.1531,1.1613,1.1584,1.1647,1.1671,1.1753,1.1861,1.2033,1.2121,1.2275,1.2386,1.2386,1.2427,1.2501,1.2501,1.2501,1.2501,1.2501,1.2542,1.2603,1.2603,1.2691,1.2834,1.2834,1.2922,1.3098,1.3098,1.3139,1.3193,0.0,0.0,0.0,0.0,0.0,0.0,0.0,0.0,0.0,0.0,0.0,0.0,0.0,0.0,0.0,0.0,0.0,0.0,0.0,0.0,0.1913,0.1532,0.1182,0.0825,0.0471,0.0442,0.035,0.0168,0.0172,0.0176,0.0202,0.0875,0.1458,0.2018,0.3563,0.4777,0.5698,0.673,0.7411,0.7804,0.7952,0.7988,0.7988,0.0,0.7988,0.7988,0.7988,0.7988,0.7988,0.7988,0.8027,0.8094,0.8397,0.8526,0.8621,0.9056,0.9221,0.9274,0.953,0.9625,0.9666,0.9758,0.9792,0.9792,0.9792,0.9805,0.9859,0.9988,1.0049,1.0157,1.0446,1.0507,1.0568,1.0664,1.0684,1.0684,1.0684,1.0684,1.0684,1.0684,1.0819,1.0968,1.1186,1.1336,1.1457,1.1606,1.1584,1.1584,1.1584,1.164,1.1685,1.1847,1.1854,1.2026,1.2318,1.2318,1.2379,1.2501,1.2501,1.2501,1.2501,1.2501,1.2515,1.2528,1.2528,1.2617,1.272,1.272,1.2854,1.303,1.303,1.3118,1.3241,1.3241,1.3288,1.3403,0.0,0.0,0.0,0.0,0.0,0.0,0.0,0.0,0.0,0.0,0.4212,0.4163,0.0,0.0,0.0,0.0,0.0,0.0,0.0,0.0,0.0,0.2153,0.1723,0.145,0.1372,0.1205,0.1111,0.1071,0.1075,0.1098,0.1166,0.1525,0.2041,0.2755,0.3582,0.466,0.5886,0.6643,0.7274,0.7804,0.7952,0.7988,0.7988,0.7988,0.0,0.0,0.7988,0.7988,0.7988,0.7988,0.8101,0.8287,0.8457,0.8567,0.8737,0.9083,0.9274,0.941,0.9557,0.9693,0.9758,0.9785,0.9792,0.9792,0.9792,0.9886,0.9988,0.9984,1.0211,1.0432,1.048,1.0595,1.0657,1.0684,1.0684,1.0684,1.0684,1.0684,1.0684,1.0684,1.0819,1.0968,1.1186,1.1336,1.1457,1.1606,1.1584,1.1584,1.1584,1.1692,1.1888,1.2203,1.221,1.2291,1.2461,1.2467,1.2474,1.2501,1.2501,1.2501,1.2501,1.2501,1.2569,1.2652,1.2652,1.2779,1.2962,1.2962,1.3043,1.318,1.318,1.3268,1.3363,1.3363,1.3376,1.3403,0.0,0.0,0.0,0.0,0.0,0.0,0.0,0.4505,0.4505,0.4505,0.4475,0.4508,0.4648,0.4713,0.4831,0.0,0.0,0.0,0.0,0.0,0.0,0.3054,0.2844,0.2526,0.2079,0.1965,0.1847,0.1661,0.0,0.1715,0.1815,0.2061,0.2486,0.3093,0.3782,0.4746,0.5845,0.659,0.7212,0.7719,0.7925,0.7988,0.7988,0.7988,0.0,0.0,0.7988,0.7988,0.8027,0.8133,0.8255,0.8417,0.8485,0.8587,0.8784,0.9192,0.9349,0.9429,0.9659,0.9737,0.9792,0.9792,0.9792,0.9792,0.9792,0.9907,1.0042,1.0123,1.0344,1.0514,1.0595,1.067,1.0684,1.0684,1.0684,1.0684,1.0684,1.0684,1.0684,1.0684,1.0921,1.109,1.1193,1.1375,1.1538,1.1613,1.1651,1.1692,1.1692,1.1945,1.2135,1.2284,1.2366,1.2433,1.2501,1.2501,1.2501,1.2501,1.2501,1.2542,1.2584,1.2584,1.2705,1.2854,1.2854,1.2935,1.3111,1.3111,1.32,1.3295,1.3295,1.3336,1.3403,1.3403,1.3403,1.3403,0.0,0.0,0.0,0.0,0.0,0.0,0.0,0.4505,0.4518,0.4532,0.4627,0.4762,0.493,0.495,0.5074,0.0,0.0,0.0,0.0,0.0,0.0,0.0,0.0,0.0,0.2979,0.0,0.0,0.2545,0.2556,0.0,0.0,0.0,0.0,0.0,0.4322,0.5075,0.5891,0.6652,0.7221,0.0,0.0,0.7988,0.7988,0.0,0.0,0.0,0.0,0.7988,0.804,0.8247,0.8389,0.8512,0.8546,0.8635,0.8838,0.9259,0.941,0.9449,0.9741,0.9792,0.9792,0.9792,0.9792,0.9798,0.9832,0.9954,1.0109,1.0297,1.0439,1.0575,1.0664,1.0684,1.0684,1.0684,1.0684,1.0684,1.0684,1.0684,1.0698,1.0732,1.1002,1.1206,1.124,1.1457,1.1597,1.1624,1.1793,1.1895,1.1895,1.2162,1.2305,1.2332,1.244,1.2501,1.2501,1.2501,1.2501,1.2501,1.2535,1.2617,1.2693,1.2726,1.2861,1.305,1.305,1.3125,1.322,1.322,1.3295,1.3403,1.3403,1.3403,1.3403,1.3403,1.3403,1.3403,0.0,0.0,0.0,0.0,0.0,0.0,0.0,0.4505,0.4539,0.4668,0.4695,0.4796,0.5049,0.5076,0.516,0.0,0.0,0.0,0.0,0.0,0.0,0.0,0.0,0.0,0.0,0.0,0.0,0.4272,0.4398,0.0,0.0,0.0,0.0,0.0,0.0,0.5852,0.638,0.693,0.0,0.0,0.0,0.0,0.0,0.0,0.0,0.0,0.0,0.7988,0.804,0.8247,0.8389,0.8532,0.8648,0.877,0.8953,0.9286,0.941,0.9449,0.9741,0.9792,0.9792,0.9792,0.9792,0.9825,0.9967,1.0116,1.0297,1.0439,1.0595,1.0704,1.0684,1.0684,1.0684,1.0684,1.0684,1.0684,1.0684,1.0684,1.0738,1.088,1.1063,1.1254,1.1355,1.1518,1.1638,1.1766,1.2081,1.225,1.225,1.2277,1.2345,1.2481,1.2494,1.2501,1.2501,1.2501,1.2501,1.2501,1.2605,1.2679,1.2693,1.2874,1.3057,1.3193,1.3193,1.3282,1.3376,1.3376,1.339,1.3403,1.3403,1.3403,1.3403,1.3403,1.3403,1.3403,0.0,0.0,0.0,0.0,0.0,0.0,0.4505,0.4566,0.4634,0.4695,0.4843,0.4984,0.5083,0.5216,0.5307,0.5392,0.0,0.0,0.0,0.0,0.0,0.0,0.0,0.0,0.0,0.0,0.4909,0.4864,0.5038,0.0,0.0,0.0,0.0,0.0,0.0,0.6191,0.6675,0.7046,0.0,0.0,0.0,0.0,0.0,0.0,0.0,0.0,0.0,0.0,0.8054,0.8316,0.8464,0.8553,0.8743,0.8865,0.8967,0.9293,0.941,0.9449,0.9741,0.9792,0.9792,0.9792,0.9792,0.9832,0.9981,1.0168,1.0356,1.046,1.0616,1.0684,1.0684,1.0684,1.0684,1.0684,1.0684,1.0684,1.0684,1.0765,1.0846,1.0873,1.1158,1.1321,1.1389,1.1531,1.1714,1.1952,1.2169,1.2325,1.2413,1.242,1.244,1.2501,1.2501,1.2501,1.2501,1.2501,1.2549,1.2598,1.2659,1.2827,1.2996,1.3098,1.3207,1.3308,1.3308,1.3342,1.3403,1.3403,1.3403,1.3403,1.3403,1.3403,1.3403,1.3403,1.3403,1.3403,0.0,0.0,0.0,0.0,0.0,0.465,0.465,0.4804,0.4908,0.4905,0.513,0.5276,0.5253,0.5471,0.5607,0.5557,0.5458,0.0,0.0,0.0,0.0,0.0,0.0,0.0,0.0,0.0,0.554,0.5456,0.5679,0.5808,0.0,0.0,0.6207,0.639,0.0,0.0,0.0,0.0,0.0,0.0,0.0,0.0,0.0,0.0,0.0,0.0,0.0,0.0,0.0,0.0,0.0,0.8533,0.8818,0.8912,0.8967,0.9293,0.941,0.9449,0.9741,0.9792,0.9792,0.9792,0.9825,0.99,1.0049,1.0236,1.0385,1.0527,1.0643,1.0684,1.0684,1.0684,1.0684,1.0684,1.0684,1.0704,1.0745,1.0846,1.0948,1.1036,1.1267,1.1409,1.1457,1.1633,1.1857,1.2145,1.2271,1.2393,1.2494,1.2501,1.2501,1.2501,1.2501,1.2501,1.2501,1.2549,1.2623,1.2693,1.282,1.2969,1.3214,1.322,1.3302,1.3403,1.3403,1.3403,1.3403,1.3403,1.3403,1.3403,1.3403,1.3403,1.3403,1.3403,1.3403,1.3403,0.0,0.0,0.0,0.0,0.0,0.0,0.4999,0.5218,0.5395,0.5399,0.5563,0.567,0.5595,0.5947,0.6119,0.5905,0.5591,0.0,0.0,0.0,0.0,0.0,0.0,0.0,0.0,0.0,0.628,0.628,0.6559,0.6681,0.6688,0.6957,0.7098,0.7098,0.0,0.0,0.0,0.0,0.0,0.0,0.0,0.0,0.0,0.0,0.0,0.0,0.0,0.0,0.0,0.0,0.0,0.0,0.0,0.8912,0.8967,0.9293,0.941,0.9449,0.9741,0.9792,0.9792,0.9792,0.9907,1.0055,1.0243,1.0385,1.0534,1.065,1.0684,1.0684,1.0684,1.0684,1.0684,1.0684,1.0684,1.0738,1.0894,1.0914,1.1022,1.1355,1.1389,1.145,1.1599,1.1884,1.2159,1.2277,1.242,1.2501,1.2501,1.2501,1.2501,1.2501,1.2501,1.2501,1.2501,1.2611,1.2686,1.2693,1.303,1.3207,1.322,1.3329,1.3397,1.3403,1.3403,1.3403,1.3403,1.3403,1.3403,1.3403,1.3403,1.3403,1.3403,1.3403,1.3403,1.3403,0.0,0.0,0.0,0.0,0.0,0.0,0.0,0.5747,0.5942,0.5951,0.6077,0.6221,0.6334,0.6457,0.6507,0.6449,0.6145,0.0,0.0,0.0,0.0,0.0,0.0,0.0,0.0,0.0,0.6347,0.6443,0.6627,0.6756,0.6837,0.7004,0.7098,0.7098,0.7098,0.7098,0.0,0.0,0.0,0.0,0.0,0.0,0.7988,0.0,0.0,0.0,0.0,0.0,0.0,0.0,0.0,0.0,0.0,0.0,0.0,0.9349,0.941,0.9449,0.9741,0.9792,0.9792,0.9792,0.9907,1.0062,1.0243,1.0392,1.0534,1.0657,1.0684,1.0684,1.0684,1.0684,1.0684,1.0684,1.0772,1.086,1.0873,1.109,1.1287,1.1382,1.1484,1.1606,1.1712,1.1945,1.2166,1.2277,1.242,1.2501,1.2501,1.2501,1.2501,1.2501,1.2501,1.2556,1.2657,1.2665,1.2834,1.3037,1.3166,1.3268,1.3329,1.3376,1.3403,1.3403,1.3403,1.3403,1.3403,1.3403,1.3403,1.3403,1.3403,1.3403,1.3403,1.3403,1.3464,1.3559,0.0,0.0,0.0,0.0,0.0,0.0,0.0,0.6525,0.6741,0.6693,0.6879,0.7007,0.6999,0.7162,0.7211,0.7089,0.6884,0.0,0.0,0.0,0.0,0.0,0.0,0.0,0.0,0.63,0.6368,0.6491,0.6627,0.6776,0.6911,0.7031,0.7098,0.7098,0.7098,0.7148,0.0,0.0,0.0,0.0,0.0,0.0,0.7988,0.0,0.0,0.0,0.0,0.0,0.0,0.0,0.0,0.0,0.0,0.0,0.0,0.0,0.9422,0.9517,0.9754,0.9792,0.9805,0.9859,0.9994,1.0175,1.0324,1.0473,1.0602,1.0671,1.0684,1.0684,1.0684,1.0684,1.0684,1.0684,1.0813,1.0934,1.0988,1.124,1.1409,1.147,1.1558,1.1665,1.1898,1.2043,1.2186,1.2352,1.2454,1.2501,1.2501,1.2501,1.2501,1.2501,1.2556,1.263,1.2686,1.284,1.299,1.3214,1.3227,1.3308,1.3403,1.3403,1.3403,1.3403,1.3403,1.3403,0.0,1.3403,1.3403,1.3403,1.3403,1.3403,1.341,1.3464,1.3546,1.3592,0.0,0.0,0.0,0.0,0.0,0.0,0.0,0.7487,0.7743,0.7619,0.7889,0.7954,0.7652,0.8009,0.8123,0.7824,0.0,0.0,0.0,0.0,0.0,0.0,0.0,0.0,0.6358,0.6365,0.6421,0.6532,0.6682,0.6797,0.6924,0.7038,0.7098,0.7098,0.7098,0.7208,0.0,0.0,0.0,0.0,0.0,0.0,0.0,0.0,0.0,0.0,0.0,0.0,0.0,0.0,0.0,0.0,0.0,0.0,0.0,0.0,0.0,0.0,0.0,0.9792,0.9825,0.9981,1.0136,1.0349,1.046,1.0609,0.0,1.0684,1.0684,1.0684,1.0684,1.0684,1.0691,1.0698,1.0833,1.0982,1.1193,1.1342,1.1457,1.1599,1.159,1.1748,1.207,1.2111,1.2234,1.2481,1.2501,1.2501,1.2501,1.2501,1.2508,1.2515,1.2664,1.2706,1.2706,1.303,1.322,1.3234,1.3336,1.3403,1.3403,1.3403,1.3403,1.3403,1.3403,1.3403,1.3403,1.3403,1.3403,1.3403,1.3403,1.341,1.3437,1.3531,1.3599,1.3639,0.0,0.0,0.0,0.0,0.0,0.0,0.0,0.0,0.0,0.0,0.8705,0.8797,0.8866,0.8834,0.877,0.0,0.0,0.0,0.0,0.0,0.0,0.0,0.0,0.0,0.6988,0.7089,0.7053,0.6887,0.707,0.7118,0.7045,0.7078,0.7098,0.7098,0.7098,0.7269,0.0,0.0,0.0,0.0,0.0,0.0,0.0,0.0,0.0,0.0,0.7988,0.8182,0.0,0.0,0.0,0.0,0.0,0.0,0.0,0.0,0.9564,0.9751,0.9785,0.0,0.9825,0.9981,1.0136,1.0349,0.0,1.0609,1.0684,1.0684,1.0684,1.0684,1.0684,1.0684,1.0725,1.084,1.1016,1.1165,1.1314,1.147,1.1543,1.1613,1.1678,1.1857,1.2084,1.2207,1.2311,1.2488,1.2501,1.2501,1.2501,1.2501,1.2556,1.2632,1.2827,1.2948,1.2948,1.3125,1.3227,1.3349,1.3383,1.3403,1.3403,1.3403,1.3403,1.3403,1.3403,1.3403,1.3403,1.3403,1.3403,1.3403,1.3403,1.3471,1.358,1.3572,1.377,1.3973,0.0,0.0,0.0,0.0,0.0,0.0,0.0,0.0,0.0,0.0,0.0,0.0,0.0,0.0,0.0,0.0,0.0,0.0,0.0,0.0,0.0,0.0,0.0,0.7538,0.7334,0.7383,0.7266,0.7005,0.7204,0.7238,0.7098,0.7098,0.7098,0.7098,0.7269,0.7459,0.0,0.0,0.0,0.0,0.7988,0.0,0.0,0.0,0.0,0.0,0.8094,0.8289,0.0,0.856,0.8716,0.8919,0.0,0.0,0.0,0.0,0.9646,0.9792,0.9792,0.9839,0.9934,1.0089,1.027,1.0419,1.0561,1.0663,1.0684,1.0684,1.0684,1.0684,1.0684,1.0684,1.0738,1.0887,1.107,1.1274,1.1463,1.1565,1.1584,1.1584,1.1705,1.1891,1.2084,1.2241,1.2345,1.2488,1.2501,1.2501,1.2501,1.2501,1.2569,1.2686,1.2881,1.303,1.3098,1.3207,1.3315,1.3403,1.3403,1.3403,1.3403,1.3403,1.3403,1.3403,1.3403,1.3403,1.3403,1.3403,1.3444,1.3505,1.3505,1.3551,1.3693,1.3804,1.3933,1.4125,0.0,0.0,0.0,0.0,0.0,0.0,0.0,0.0,0.0,0.0,0.0,0.0,0.0,0.0,0.0,0.0,0.0,0.0,0.0,0.0,0.0,0.0,0.0,0.8063,0.7848,0.777,0.7567,0.7249,0.7374,0.7346,0.7165,0.7121,0.7105,0.7168,0.7495,0.7699,0.0,0.0,0.0,0.0,0.7988,0.0,0.0,0.0,0.0,0.0,0.0,0.0,0.0,0.8669,0.8784,0.8933,0.9138,0.0,0.0,0.0,0.0,0.0,0.9819,0.9934,1.0082,1.0249,1.0385,1.0534,1.0683,1.0684,1.0684,1.0684,1.0684,1.0684,1.0684,1.0704,1.0772,1.0921,1.1124,1.1321,1.1586,1.1584,1.159,1.1611,1.1775,1.1925,1.2118,1.2237,1.2372,1.2494,1.2501,1.2501,1.2501,1.2522,1.261,1.272,1.2915,1.3105,1.3248,1.3336,1.3403,1.3403,1.3403,1.3403,1.3403,1.3403,1.3403,1.3403,1.3403,1.3403,1.3403,1.3424,1.3512,1.3592,1.3612,1.3707,1.3849,1.4021,1.4132,1.4166,0.0,0.0,0.0,0.0,0.0,0.0,0.0,0.0,0.0,0.0,0.0,0.0,0.0,0.0,0.0,0.0,0.0,0.0,0.0,0.0,0.0,1.0357,1.0027,0.9689,0.9379,0.9307,0.8964,0.8349,0.8163,0.7848,0.7437,0.7209,0.7188,0.7369,0.7645,0.7787,0.7797,0.0,0.0,0.0,0.7988,0.0,0.0,0.0,0.0,0.0,0.0,0.0,0.0,0.8703,0.8784,0.8933,0.9138,0.0,0.0,0.0,0.0,0.0,0.9947,1.0096,1.0249,1.0276,1.0385,1.0534,1.0683,1.0684,1.0684,1.0684,1.0684,1.0684,1.0684,1.0792,1.0928,1.1104,1.1369,1.1565,1.1577,1.1584,1.1624,1.1746,1.1932,1.2125,1.2244,1.2386,1.2481,1.2501,1.2501,1.2501,1.2501,1.2623,1.2766,1.2962,1.3105,1.3214,1.3363,1.339,1.3403,1.3403,1.3403,1.3403,1.3403,1.3403,1.3403,1.3403,1.3403,1.3403,1.341,1.3497,1.3565,1.3599,1.372,1.3899,1.4041,1.4105,1.4156,1.4272,0.0,0.0,0.0,0.0,0.0,0.0,0.0,0.0,0.0,0.0,0.0,0.0,0.0,0.0,0.0,0.0,0.0,0.0,0.0,0.0,1.1663,1.1459,1.1451,1.0954,0.988,0.9697,0.9277,0.8603,0.8332,0.7959,0.751,0.7343,0.7387,0.7611,0.7753,0.7831,0.7912,0.7986,0.0,0.0,0.0,0.0,0.0,0.0,0.0,0.0,0.0,0.0,0.0,0.0,0.8933,0.9083,0.926,0.0,0.0,0.0,0.0,0.0,0.9974,1.0161,1.0329,1.0378,1.0507,1.0636,1.0704,1.0684,1.0684,1.0684,1.0684,1.0684,1.0684,1.0813,1.0988,1.1253,1.147,1.1584,1.1584,1.1584,1.1638,1.178,1.1965,1.2159,1.2277,1.242,1.2501,1.2501,1.2501,1.2501,1.2501,1.2651,1.28,1.2996,1.3139,1.3247,1.3397,1.3403,1.3403,1.3403,1.3403,1.3403,1.3403,1.3403,1.3403,1.3403,1.3403,1.3451,1.3532,1.3558,1.3722,1.3878,1.3939,1.4061,1.4197,1.4197,1.4238,1.4299,0.0,0.0,0.0,0.0,0.0,0.0,0.0,0.0,0.0,0.0,0.0,0.0,0.0,0.0,0.0,0.0,0.0,0.0,0.0,0.0,1.2239,1.2132,1.2354,1.1855,1.0476,1.0201,0.9726,0.9003,0.8566,0.8092,0.756,0.7645,0.7762,0.7887,0.7921,0.7954,0.7988,0.7988,0.7988,0.0,0.0,0.0,0.0,0.0,0.0,0.0,0.0,0.0,0.0,0.0,0.0,0.0,0.0,0.0,0.0,0.9751,0.9812,0.9879,1.0028,1.0215,1.0365,1.0507,1.0636,1.0684,1.0684,1.0684,1.0684,1.0684,1.0684,1.0698,1.0732,1.0894,1.1103,1.1402,1.1545,1.1584,1.1584,1.1647,1.1685,1.187,1.202,1.2213,1.2325,1.244,1.2501,1.2501,1.2501,1.2515,1.2556,1.2698,1.2854,1.3043,1.3193,1.3281,1.3397,1.3403,1.3403,1.3403,1.3403,1.3403,1.3403,1.3403,1.3403,1.3403,1.3437,1.3519,1.3592,1.366,1.3865,1.4119,1.4109,1.4197,1.4299,1.4299,1.4299,1.4299,0.0,0.0,0.0,0.0,0.0,0.0,0.0,0.0,0.0,0.0,0.0,0.0,0.0,0.0,0.0,0.0,0.0,0.0,0.0,0.0,1.2364,1.2465,1.2491,1.2272,1.177,1.1551,1.1047,1.0183,0.9279,0.8478,0.7792,0.829,0.8403,0.8166,0.8301,0.8223,0.7988,0.7988,0.7988,0.7988,0.0,0.0,0.0,0.0,0.0,0.0,0.0,0.0,0.0,0.0,0.0,0.0,0.0,0.0,0.9639,0.9751,0.9893,1.0035,1.0222,1.0371,1.0514,1.0663,1.0677,1.0684,1.0684,1.0684,1.0684,1.0684,1.0684,1.0732,1.0874,1.1165,1.1409,1.1579,1.1577,1.1584,1.1584,1.1698,1.187,1.2064,1.2182,1.2332,1.2474,1.2494,1.2501,1.2501,1.2501,1.2562,1.2665,1.2861,1.305,1.3193,1.3302,1.339,1.3403,1.3403,1.3403,1.3403,1.3403,1.3403,1.3403,1.3403,1.3403,1.341,1.3511,1.3578,1.3605,1.3926,1.4098,1.4132,1.4231,1.4292,1.4299,1.4299,1.4299,1.4299,0.0,0.0,0.0,0.0,0.0,0.0,0.0,0.0,0.0,0.0,0.0,0.0,0.0,0.0,0.0,0.0,0.0,0.0,0.0,1.2497,1.2625,1.2669,1.3021,1.2999,1.2596,1.1955,1.1238,1.0484,0.9389,0.8664,0.8313,0.851,0.85,0.8325,0.8382,0.8262,0.7988,0.7988,0.7988,0.802,0.8147,0.0,0.0,0.0,0.0,0.0,0.0,0.0,0.0,0.0,0.9308,0.9456,0.9571,0.9673,0.9737,0.9886,0.9974,1.0069,1.0344,1.0453,1.0527,1.0683,1.0684,1.0684,1.0684,1.0684,1.0684,1.0684,1.0765,1.0901,1.1144,1.1314,1.1443,1.1592,1.1584,1.1584,1.1584,1.1705,1.1884,1.2084,1.2234,1.2345,1.2488,1.2501,1.2501,1.2501,1.2501,1.2569,1.2679,1.2874,1.3064,1.3207,1.3322,1.3403,1.3403,1.3403,1.3403,1.3403,1.3403,1.3403,1.3403,1.3403,1.3403,1.341,1.3518,1.3639,1.3734,1.3987,1.4173,1.4217,1.4278,1.4299,1.4299,1.4299,1.4299,1.4299,0.0,0.0,0.0,0.0,0.0,0.0,0.0,0.0,0.0,0.0,0.0,0.0,0.0,0.0,0.0,0.0,0.0,0.0,1.2457,1.2663,1.2878,1.3046,1.3407,1.3476,1.3236,1.2539,1.1787,1.0944,0.9777,0.9089,0.8851,0.8888,0.8777,0.8528,0.8528,0.8336,0.7988,0.7988,0.804,0.8094,0.8253,0.8321,0.0,0.0,0.0,0.0,0.0,0.0,0.0,0.0,0.9435,0.9618,0.9659,0.971,0.9819,0.9974,1.0049,1.0143,1.0426,1.0527,1.0588,1.0697,1.0684,1.0684,1.0684,1.0684,1.0684,1.0684,1.0846,1.109,1.1348,1.143,1.1497,1.1599,1.1584,1.1597,1.1644,1.1809,1.1959,1.2152,1.2264,1.2393,1.2494,1.2501,1.2501,1.2501,1.2549,1.2644,1.2793,1.2989,1.3132,1.3282,1.3349,1.3403,1.3403,1.3403,1.3403,1.3403,1.3403,1.3403,1.3403,1.3403,1.3424,1.3485,1.3592,1.3734,1.3926,1.4082,1.4204,1.4299,1.4299,1.4299,1.4299,1.4299,1.4299,1.4299,0.0,0.0,0.0,0.0,0.0,0.0,0.0,0.0,0.0,0.0,0.0,0.0,0.0,0.0,0.0,0.0,0.0,0.0,1.2789,1.2797,1.3032,1.3573,1.36,1.3643,1.3688,1.3563,1.2911,1.1704,1.0622,0.9875,0.9412,0.9543,0.9327,0.88,0.88,0.8503,0.7988,0.7988,0.8108,0.8301,0.8301,0.8383,0.8526,0.0,0.0,0.0,0.0,0.0,0.0,0.0,0.9612,0.9639,0.9744,0.9792,0.9819,0.9974,1.013,1.0349,1.0453,1.0602,1.0684,1.0684,1.0684,1.0684,1.0684,1.0684,1.0684,1.0691,1.0962,1.1247,1.1362,1.1518,1.1584,1.1584,1.1584,1.1638,1.1773,1.1965,1.2159,1.2271,1.2413,1.2501,1.2501,1.2501,1.2501,1.2501,1.2605,1.28,1.2989,1.3139,1.3241,1.3397,1.3403,1.3403,1.3403,1.3403,1.3403,1.3403,1.3403,1.3403,1.3403,1.3403,1.3485,1.3599,1.3741,1.3933,1.4125,1.4238,1.4299,1.4299,1.4299,1.4299,1.4299,1.4299,1.4299,1.4299,0.0,0.0,0.0,0.0,0.0,0.0,0.0,0.0,0.0,0.0,0.0,0.0,0.0,0.0,0.0,0.0,0.0,0.0,1.2789,1.3146,1.3433,1.36,1.382,1.3989,1.4052,1.3683,1.2882,1.1641,1.0972,1.0362,0.9812,0.987,0.9501,0.88,0.88,0.8592,0.8201,0.8201,0.8315,0.8457,0.8533,0.8608,0.8662,0.0,0.0,0.0,0.0,0.0,0.0,0.0,0.0,0.0,0.9778,0.9866,0.9981,1.0168,1.0317,1.046,1.0609,1.0683,1.0684,1.0684,1.0684,1.0684,1.0684,1.0684,1.0778,1.0989,1.122,1.1369,1.1525,1.1556,1.1584,1.1584,1.1665,1.1746,1.1786,1.206,1.2275,1.2284,1.2413,1.2501,1.2501,1.2501,1.2501,1.2501,1.2605,1.28,1.2989,1.3139,1.3241,1.3397,1.3403,1.3403,1.3403,1.3403,1.3403,1.3403,1.3403,1.3403,1.3403,1.3512,1.3545,1.3599,1.3892,1.4027,1.4125,1.4238,1.4299,1.4299,1.4299,1.4299,1.4299,1.4299,1.4299,1.4299,0.0,0.0,0.0,0.0,0.0,0.0,0.0,0.0,0.0,0.0,1.2198,1.2305,0.0,0.0,0.0,0.0,0.0,0.0,0.0,1.342,1.3653,1.3794,1.4087,1.4304,1.4366,1.3967,1.3273,1.2185,1.1524,1.093,1.0462,1.0142,0.9624,0.8956,0.8924,0.8679,0.8301,0.8355,0.8464,0.8581,0.8676,0.8784,0.8893,0.0,0.0,0.0,0.0,0.0,0.0,0.0,0.0,0.0,0.9859,0.9947,1.0062,1.0304,1.0426,1.0527,1.0644,1.0684,1.0684,1.0684,1.0684,1.0704,1.0765,1.0779,1.086,1.1227,1.1328,1.1436,1.1592,1.1584,1.1584,1.1584,1.1705,1.1813,1.1911,1.2135,1.2311,1.2366,1.2447,1.2501,1.2501,1.2501,1.2528,1.2589,1.2732,1.2888,1.3077,1.3227,1.3308,1.3397,1.3403,1.3403,1.3403,1.3403,1.3403,1.3403,1.3464,1.3492,1.3492,1.3545,1.3653,1.3817,1.4061,1.4163,1.417,1.4265,1.4299,1.4299,1.4299,1.4299,1.4299,1.4299,1.4299,1.4299,0.0,0.0,0.0,0.0,0.0,0.0,0.0,0.0,0.0,0.0,1.2305,1.2318,0.0,0.0,0.0,0.0,0.0,0.0,0.0,0.0,1.3794,1.4108,1.4429,1.4589,1.4604,1.4373,1.3874,1.3147,1.2175,1.1541,1.1174,1.0437,0.9756,0.921,0.9138,0.882,0.8349,0.8471,0.8601,0.875,0.875,0.8947,0.9228,0.9228,0.0,0.0,0.0,0.0,0.0,0.0,0.0,0.0,0.9974,1.0004,1.0109,1.0412,1.05,1.0541,1.0683,1.0684,1.0684,1.0684,1.0698,1.0745,1.0901,1.0948,1.1029,1.1335,1.1402,1.1457,1.1592,1.1584,1.1584,1.164,1.1726,1.1904,1.2098,1.221,1.2359,1.2488,1.2501,1.2501,1.2501,1.2501,1.2562,1.2679,1.2874,1.3064,1.3207,1.3315,1.3403,1.3403,1.3403,1.3403,1.3403,1.3403,1.341,1.3424,1.3518,1.3599,1.3668,1.3668,1.3824,1.4146,1.4238,1.4299,1.4299,1.4299,1.4299,1.4299,1.4299,1.4299,1.4299,1.4299,1.4299,1.4299,0.0,0.0,0.0,0.0,0.0,0.0,0.0,0.0,0.0,0.0,0.0,0.0,0.0,0.0,0.0,0.0,0.0,0.0,0.0,0.0,1.4122,1.4394,1.4923,1.5019,1.4617,1.4607,1.4208,1.3413,1.2832,1.2078,1.1198,1.0806,1.0194,0.9431,0.9191,0.8916,0.8615,0.8648,0.8818,0.9083,0.9083,0.9199,0.9362,0.9362,0.9429,0.0,0.0,0.0,0.0,0.0,0.0,0.0,0.9977,1.0177,1.0405,1.0473,1.0575,1.0644,1.0677,1.0684,1.0684,1.0684,1.0779,1.0901,1.1084,1.1212,1.1314,1.1382,1.1484,1.1579,1.1577,1.1584,1.1617,1.1732,1.1911,1.2104,1.2261,1.2366,1.2467,1.2501,1.2501,1.2501,1.2501,1.2501,1.2562,1.2679,1.2874,1.3064,1.3207,1.3315,1.3403,1.3403,1.3403,1.3403,1.3403,1.3403,1.3458,1.358,1.3572,1.3749,1.3973,1.3973,1.4075,1.4251,1.4285,1.4299,1.4299,1.4299,1.4299,1.4299,1.4299,1.4299,1.4299,1.4299,1.4299,1.4299,0.0,0.0,0.0,0.0,0.0,0.0,0.0,0.0,0.0,0.0,0.0,0.0,0.0,0.0,0.0,0.0,0.0,0.0,0.0,0.0,1.4482,1.4901,1.5116,1.504,1.4666,1.4423,1.3895,1.2977,1.2589,1.2078,1.1394,1.0798,1.0146,0.9486,0.9216,0.8957,0.8716,0.8866,0.9036,0.9214,0.926,0.9383,0.949,0.949,0.9585,0.9707,0.9707,0.0,0.0,0.0,0.0,0.0,0.0,0.0,1.0507,1.0582,1.0656,1.0684,1.0684,1.0684,1.0704,1.0779,1.0853,1.0968,1.1254,1.1335,1.1409,1.1484,1.1565,1.1584,1.1584,1.1638,1.1705,1.178,1.202,1.2234,1.2277,1.2413,1.2501,1.2501,1.2501,1.2501,1.2501,1.2569,1.2671,1.2827,1.3016,1.3166,1.3275,1.3356,1.3403,1.3403,1.3403,1.3403,1.3403,1.3471,1.3553,1.3592,1.377,1.396,1.4183,1.4183,1.4224,1.4299,1.4299,1.4299,1.4299,1.4299,1.4299,1.4299,1.4299,1.4299,1.4299,1.4299,1.4299,1.4299,0.0,0.0,0.0,0.0,0.0,0.0,0.0,0.0,0.0,0.0,0.0,0.0,0.0,0.0,0.0,0.0,0.0,0.0,0.0,0.0,0.0,1.5308,1.5143,1.4876,1.4568,1.4028,1.3281,1.2273,1.1962,1.1639,1.127,1.054,0.9942,0.9476,0.9234,0.9008,0.8804,0.9104,0.9233,0.9274,0.9396,0.951,0.9646,0.9646,0.9704,0.9832,0.9832,0.9927,1.0055,1.0055,0.0,0.0,0.0,0.0,1.0555,1.0683,1.0684,1.0684,1.0684,1.0684,1.0725,1.0874,1.0934,1.1022,1.1328,1.1409,1.1463,1.1592,1.1584,1.1584,1.1584,1.1698,1.18,1.1864,1.2108,1.2298,1.2325,1.2427,1.2501,1.2501,1.2501,1.2501,1.2501,1.2598,1.2793,1.2989,1.3132,1.3282,1.339,1.3403,1.3403,1.3403,1.3403,1.3403,1.3403,1.3511,1.3599,1.3626,1.3966,1.4177,1.4299,1.4299,1.4299,1.4299,1.4299,1.4299,1.4299,1.4299,1.4299,1.4299,1.4299,1.4299,1.4299,1.4299,1.4299,1.4299,0.0,0.0,0.0,0.0,0.0,0.0,0.0,0.0,0.0,0.0,1.3146,1.3247,0.0,0.0,0.0,0.0,0.0,0.0,1.4434,0.0,0.0,1.5054,1.5081,1.4746,1.4028,1.3487,1.2713,1.1712,1.1319,1.0776,1.0045,1.0146,0.9943,0.9503,0.9343,0.9224,0.9131,0.9308,0.9429,0.9551,0.9571,0.9666,0.9765,0.9765,0.9859,0.9988,0.9988,1.0089,1.0249,1.0249,1.0344,0.0,0.0,0.0,1.0697,1.0684,1.0684,1.0684,1.0684,1.0684,1.0725,1.0874,1.1043,1.1213,1.1355,1.1491,1.1592,1.1613,1.1584,1.1584,1.1584,1.1698,1.1877,1.2043,1.2176,1.2332,1.2454,1.2488,1.2501,1.2501,1.2501,1.2501,1.2501,1.2598,1.2793,1.2989,1.3132,1.3282,1.339,1.3403,1.3403,1.3403,1.3403,1.3403,1.3403,1.3511,1.3646,1.3774,1.4122,1.4278,1.4299,1.4299,1.4299,1.4299,1.4299,1.4299,1.4299,1.4299,1.4299,1.4299,1.4299,1.4299,1.4299,1.4299,1.4299,1.4299,0.0,0.0,0.0,0.0,0.0,0.0,0.0,0.0,0.0,0.0,0.0,1.354,0.0,0.0,0.0,1.4322,1.4603,1.483,1.4981,1.5257,1.5355,1.5266,1.503,1.4424,1.3463,1.2744,1.1845,1.0811,1.045,0.9983,0.9399,0.9602,0.959,0.9385,0.9293,0.9278,0.9322,0.9442,0.9551,0.9618,0.9693,0.9737,0.9798,0.9886,0.9961,0.9997,1.0116,1.027,1.0399,1.0399,1.0493,1.0622,1.0622,0.0,0.0,0.0,1.0684,1.0684,1.0684,1.0752,1.0853,1.1029,1.1179,1.137,1.1484,1.1572,1.1584,1.1584,1.1644,1.1698,1.1698,1.1857,1.2013,1.2207,1.2311,1.2433,1.2494,1.2501,1.2501,1.2501,1.2501,1.2501,1.2501,1.2718,1.2888,1.2996,1.3173,1.3329,1.3397,1.3403,1.3403,1.3403,1.3403,1.3444,1.3526,1.3632,1.3822,1.4102,1.4238,1.4299,1.4299,1.4299,1.4299,1.4299,1.4299,1.4299,1.4299,1.4299,1.4299,1.4299,1.4299,1.4299,1.4299,1.4299,1.4299,1.4299,0.0,0.0,0.0,0.0,0.0,0.0,0.0,0.0,0.0,0.0,0.0,0.0,0.0,0.0,0.0,0.0,1.4919,1.5227,1.5484,1.5511,1.5464,1.5391,1.4879,1.4087,1.2994,1.2079,1.1116,1.0076,0.9719,0.9367,0.9062,0.9196,0.9307,0.9363,0.9332,0.9362,0.9449,0.9598,0.9656,0.9704,0.9805,0.9873,0.9951,1.0035,1.0103,1.0143,1.029,1.0426,1.0548,1.0548,1.0622,1.0684,1.0684,1.0684,0.0,0.0,0.0,1.0698,1.0732,1.0826,1.0961,1.1172,1.1342,1.143,1.1586,1.1584,1.1584,1.1584,1.1698,1.1807,1.1884,1.2013,1.2193,1.2271,1.2413,1.2501,1.2501,1.2501,1.2501,1.2501,1.2501,1.2501,1.2501,1.2779,1.3003,1.3003,1.3234,1.3403,1.3403,1.3403,1.3403,1.3403,1.3403,1.3471,1.3585,1.3768,1.4034,1.4299,1.4299,1.4299,1.4299,1.4299,1.4299,1.4299,1.4299,1.4299,1.4299,1.4299,1.4299,1.4299,1.4299,1.4299,1.4299,1.4299,1.4299,1.4299,0.0,0.0,0.0,0.0,0.0,0.0,0.0,0.0,0.0,0.0,0.0,0.0,1.4905,1.4981,1.4959,1.4959,1.5227,1.5498,1.5768,1.5781,1.5581,1.5131,1.4616,0.0,1.2648,1.1582,1.0603,0.9727,0.9314,0.9049,0.8927,0.9104,0.935,0.9578,0.9585,0.9591,0.9605,0.9717,0.9859,0.9994,0.997,1.0096,1.0256,1.0263,1.0351,1.0473,1.048,1.0582,1.0677,1.0677,1.0677,1.0684,1.0684,1.0684,1.0684,0.0,0.0,0.0,1.0867,1.0873,1.0982,1.1307,1.1389,1.143,1.1586,1.1584,1.1584,1.1584,1.1698,1.1877,1.2057,1.2213,1.2284,1.2291,1.2413,1.2501,1.2501,1.2501,1.2501,1.2501,1.2501,1.2501,1.2501,1.2779,1.3003,1.3003,1.3234,1.3403,1.3403,1.3403,1.3403,1.3403,1.3403,1.3471,1.3585,1.3919,1.4143,1.4299,1.4299,1.4299,1.4299,1.4299,1.4299,1.4299,1.4299,1.4299,1.4299,1.4299,1.4299,1.4299,1.4299,1.4299,1.4299,1.4299,1.4299,1.4299,0.0,0.0,0.0,0.0,0.0,0.0,0.0,0.0,0.0,0.0,0.0,0.0,0.0,1.5146,1.5267,1.5267,1.5511,1.5688,1.5795,1.5689,1.5452,1.5107,1.4364,1.3462,1.2369,1.1386,1.0442,0.958,0.9311,0.9133,0.9111,0.9327,0.9503,0.9612,0.9612,0.9659,0.9724,0.9873,0.9967,0.9997,1.0123,1.0229,1.0322,1.041,1.0446,1.0507,1.0602,1.0677,1.0684,1.0684,1.0684,1.0684,1.0684,1.0684,1.0684,1.0684,1.0759,1.0846,1.0901,1.1056,1.126,1.1362,1.1463,1.1552,1.1606,1.1584,1.1611,1.1698,1.187,1.2026,1.222,1.225,1.2318,1.2413,1.2467,1.2501,1.2501,1.2501,1.2501,1.2501,1.2501,1.2501,1.2501,1.2779,1.3003,1.3003,1.3234,1.3403,1.3403,1.3403,1.3403,1.3403,1.3403,1.3519,1.372,1.4068,1.4245,1.4299,1.4299,1.4299,1.4299,1.4299,1.4299,1.4299,1.4299,1.4299,1.4299,1.4299,1.4299,1.4299,1.4299,1.4299,1.4299,1.4299,1.4299,1.4299,0.0,0.0,0.0,0.0,0.0,0.0,0.0,0.0,0.0,1.512,0.0,0.0,0.0,0.0,1.5515,1.5445,1.5442,1.5467,1.5534,1.5342,1.5103,1.4814,1.4058,1.3179,1.2159,1.116,1.0315,0.9672,0.9363,0.9233,0.9342,0.9517,0.9659,0.9724,0.9724,0.9778,0.9879,1.0028,1.0123,1.0177,1.031,1.0385,1.0439,1.0534,1.0568,1.0582,1.0683,1.0684,1.0684,1.0684,1.0684,1.0684,1.0684,1.0684,1.0698,1.0745,1.0833,1.0934,1.1036,1.124,1.1402,1.1457,1.1545,1.1584,1.1584,1.1617,1.1678,1.1773,1.1993,1.2207,1.2271,1.2332,1.2393,1.2488,1.2501,1.2501,1.2501,1.2501,1.2501,1.2501,1.2501,1.2501,1.2501,1.2779,1.3003,1.3003,1.3234,1.3403,1.3403,1.3403,1.3424,1.3478,1.3526,1.3668,1.3912,1.417,1.4299,1.4299,1.4299,1.4299,1.4299,1.4299,1.4299,1.4299,1.4299,1.4299,1.4299,1.4299,1.4299,1.4299,1.4299,1.4299,1.4299,1.4299,1.4299,1.4299,0.0,0.0,0.0,0.0,0.0,0.0,0.0,0.0,1.5106,1.5378,0.0,0.0,0.0,0.0,0.0,1.5488,1.4987,1.4776,1.4949,1.4776,1.4512,1.4188,1.3638,1.292,1.2009,1.0882,1.0206,0.9992,0.9476,0.9349,0.9612,0.9618,0.9744,0.9984,0.9997,0.9997,1.0042,1.0222,1.0365,1.0493,1.0493,1.0588,1.0684,1.0684,1.0684,1.0684,1.0684,1.0684,1.0684,1.0684,1.0684,1.0684,1.0684,1.0691,1.0725,1.0874,1.0921,1.0988,0.0,0.0,0.0,1.1586,1.1584,1.1584,1.159,1.1698,1.1793,1.1807,1.2081,1.2291,1.2298,1.2406,1.2501,1.2501,1.2501,1.2501,1.2501,1.2501,1.2501,1.2501,1.2501,1.2501,1.2501,1.2779,1.3003,1.3003,1.3234,1.3403,1.3403,1.3403,1.3471,1.3585,1.3727,1.3912,1.4112,1.4224,1.4299,1.4299,1.4299,1.4299,1.4299,1.4299,1.4299,1.4299,1.4299,1.4299,1.4299,1.4299,1.4299,1.4299,1.4299,1.4299,1.4299,1.4299,1.4299,1.4299,0.0,0.0,0.0,0.0,0.0,0.0,1.5307,1.5458,1.5548,0.0,0.0,0.0,1.5034,1.5006,1.4875,1.4582,1.4589,1.4545,1.4364,1.3923,1.3652,1.3539,1.272,1.2034,1.1584,1.0727,1.0144,0.9867,0.9603,0.953,0.9612,0.9798,0.994,0.9997,1.0245,1.0371,1.0371,1.0419,1.046,1.05,1.0616,1.0683,1.0684,1.0684,1.0684,1.0684,1.0684,1.0684,1.0684,1.0684,1.0684,1.0684,1.0684,1.0765,1.086,1.0901,1.107,1.1287,1.1369,0.0,0.0,0.0,0.0,0.0,1.1712,1.1766,1.1861,1.2115,1.223,1.2325,1.2427,1.2474,1.2501,1.2501,1.2501,1.2501,1.2501,1.2501,1.2501,1.2501,1.2501,1.2501,1.2501,1.2779,1.3003,1.3003,1.3234,1.3403,1.3403,1.3403,1.3471,1.3585,1.3727,1.3912,1.4112,1.4224,1.4299,1.4299,1.4299,1.4299,1.4299,1.4299,1.4299,1.4299,1.4299,1.4299,1.4299,1.4299,1.4299,1.4299,1.4299,1.4299,1.4299,1.4299,1.4299,1.4299,0.0,0.0,0.0,0.0,0.0,1.5531,1.5461,1.5583,1.5547,0.0,0.0,0.0,1.4495,1.4255,1.4048,1.3847,1.3551,1.338,1.3336,1.2822,1.2532,1.26,1.189,1.1383,1.1103,1.0433,1.0019,0.9879,0.9744,0.9704,0.9765,1.0001,1.0143,1.0211,1.0412,1.0527,1.0588,1.0588,1.0588,1.0595,1.0683,1.0684,1.0684,1.0684,1.0684,1.0684,1.0684,1.0684,1.0698,1.0759,1.0853,1.0907,1.0907,1.0968,1.105,1.1083,1.1253,1.1402,1.147,1.1552,1.1584,1.1584,0.0,0.0,1.1759,1.184,1.1993,1.2244,1.2338,1.2406,1.2488,1.2501,1.2501,1.2501,1.2501,1.2501,1.2501,1.2501,1.2501,1.2501,1.2501,1.2501,1.2501,1.2779,1.3003,1.3003,1.3234,1.3403,1.3403,1.3403,1.3498,1.3666,1.3754,1.3903,1.4163,1.4258,1.4299,1.4299,1.4299,1.4299,1.4299,1.4299,1.4299,1.4299,1.4299,1.4299,1.4299,1.4299,1.4299,1.4299,1.4299,1.4299,1.4299,1.4299,1.4299,1.4299,0.0,0.0,1.5784,1.5784,1.574,1.5658,1.5467,1.5421,1.5207,0.0,1.441,1.4175,1.3893,1.3399,1.3086,1.3065,1.2213,1.1814,1.2146,1.1653,1.1385,1.1495,1.1154,1.0873,1.062,1.0106,0.987,1.001,0.9893,0.9913,1.0049,1.0229,1.0403,1.0493,1.0507,1.0595,1.0684,1.0684,1.0684,1.0684,1.0684,1.0684,1.0684,1.0684,1.0684,1.0691,1.0704,1.0711,1.0738,1.0887,1.1056,1.12,1.12,1.1206,1.1247,1.1383,1.1402,1.1443,1.1586,1.1584,1.1584,1.1584,1.1597,0.0,1.1786,1.1979,1.2166,1.2284,1.2413,1.2501,1.2501,1.2501,1.2501,1.2501,1.2501,1.2501,1.2501,1.2501,1.2501,1.2501,1.2501,1.2501,1.2501,1.2766,1.2982,1.3003,1.3234,1.3403,1.3403,1.3403,1.3539,1.3788,1.3795,1.3944,1.4299,1.4299,1.4299,1.4299,1.4299,1.4299,1.4299,1.4299,1.4299,1.4299,1.4299,1.4299,1.4299,1.4299,1.4299,1.4299,1.4299,1.4299,1.4299,1.4299,1.4299,1.4299,0.0,1.5666,1.5571,1.5571,1.5345,1.5144,1.5108,1.4923,1.458,1.404,1.297,1.2287,1.2309,1.2013,1.172,1.1614,1.1623,1.1546,1.1338,1.1033,1.0865,1.087,1.0457,1.0178,1.0148,1.0007,0.9961,0.9995,1.0145,1.0209,1.0236,1.0385,1.0466,1.0493,1.0622,1.069,1.0684,1.0684,1.0684,1.0684,1.0684,1.0684,1.0684,1.0684,1.0684,1.0704,1.0826,1.0874,1.0894,1.107,1.1172,1.12,1.12,1.1281,1.1355,1.1382,1.1477,1.1579,1.1577,1.1584,1.1584,1.1584,1.1671,0.0,1.1979,1.2173,1.2284,1.2433,1.2481,1.2501,1.2501,1.2501,1.2501,1.2501,1.2501,1.2501,1.2501,1.2501,1.2501,1.2501,1.2501,1.2501,1.2501,1.2664,1.2827,1.2989,1.3234,1.3403,1.3403,1.3403,1.3539,1.3788,1.3795,1.3944,1.4299,1.4299,1.4299,1.4299,1.4299,1.4299,1.4299,1.4299,1.4299,1.4299,1.4299,1.4299,1.4299,1.4299,1.4299,1.4299,1.4299,1.4299,1.4299,1.4299,1.4299,1.4299,1.5236,1.5164,1.5093,1.506,1.4898,1.4658,1.4221,1.4033,1.3696,1.2951,1.2037,1.1458,1.1504,1.1226,1.1017,1.0964,1.0794,1.0649,1.0566,1.0355,1.0287,1.0337,1.0221,1.0159,1.0159,1.0149,1.0168,1.0168,1.031,1.0385,1.0392,1.0534,1.0609,1.0609,1.065,1.0684,1.0691,1.0765,1.0799,1.0792,1.0718,1.0732,1.0799,1.0799,1.0846,1.0948,1.1029,1.1104,1.1144,1.1288,1.1328,1.1389,1.1389,1.1443,1.1504,1.1504,1.1558,1.1584,1.1584,1.1638,1.1692,1.1692,1.1837,0.0,0.0,1.2237,1.2332,1.2474,1.2501,1.2501,1.2501,1.2501,1.2501,1.2501,1.2501,1.2501,1.2501,1.2501,1.2501,1.2501,1.2501,1.2501,1.2501,1.2598,1.2827,1.3091,1.3275,1.3403,1.3403,1.3403,1.3539,1.3788,1.3795,1.3944,1.4299,1.4299,1.4299,1.4299,1.4299,1.4299,1.4299,1.4299,1.4299,1.4299,1.4299,1.4299,1.4299,1.4299,1.4299,1.4299,1.4299,1.4299,1.4299,1.4299,1.4299,1.4299,1.4529,1.4515,1.4399,1.4369,1.4253,1.3924,1.3215,1.3028,1.2651,1.1783,1.1234,1.0936,1.0873,1.0636,1.0521,1.0552,1.012,0.9896,1.0058,0.9964,0.9934,1.0055,1.0215,1.0315,1.0315,1.0342,1.0356,1.0356,1.0466,1.0534,1.0541,1.0663,1.0684,1.0684,1.0684,1.0704,1.0738,1.086,1.0928,1.0948,1.0853,1.0846,1.0955,1.0955,1.1063,1.12,1.1234,1.1307,1.1436,1.1436,1.1518,1.1584,1.1584,1.1584,1.1584,1.1584,1.1604,1.1624,1.1624,1.1769,1.1877,1.1877,1.1993,1.2173,0.0,0.0,0.0,1.2481,1.2501,1.2501,1.2501,1.2501,1.2501,1.2501,1.2501,1.2501,1.2501,1.2501,1.2501,1.2501,1.2501,1.2501,1.2501,1.2664,1.2874,1.3152,1.3302,1.3403,1.3403,1.3403,1.3539,1.3788,1.3795,1.3944,1.4299,1.4299,1.4299,1.4299,1.4299,1.4299,1.4299,1.4299,1.4299,1.4299,1.4299,1.4299,1.4299,1.4299,1.4299,1.4299,1.4299,1.4299,1.4299,1.4299,1.4299,1.4299,1.3889,1.3787,1.3456,1.3463,1.2951,1.2523,1.2442,1.2062,1.1558,1.0927,1.0306,0.999,1.0119,0.9874,0.9806,1.0074,1.0033,1.007,1.0258,1.0254,1.0236,1.0288,1.0301,1.0315,1.0315,1.0437,1.0466,1.0466,1.0622,1.0697,1.0697,1.0677,1.0684,1.0684,1.0684,1.0765,1.0887,1.0873,1.0988,1.1172,1.1152,1.1159,1.1172,1.1172,1.1186,1.1213,1.1314,1.1463,1.1592,1.1592,1.1606,1.1584,1.1584,1.1584,1.1584,1.1584,1.1671,1.1773,1.1773,1.1918,1.207,1.207,1.2149,1.2271,1.2284,0.0,1.2481,1.2501,0.0,1.2501,1.2501,0.0,0.0,1.2501,1.2501,1.2501,1.2501,1.2501,1.2501,1.2501,1.2501,1.2501,1.2501,1.2766,1.2989,1.3023,1.3241,1.3403,1.3403,1.3403,1.3539,1.3788,1.3795,1.3944,1.4299,1.4299,1.4299,1.4299,1.4299,1.4299,1.4299,1.4299,1.4299,1.4299,1.4299,1.4299,1.4299,1.4299,1.4299,1.4299,1.4299,1.4299,1.4299,1.4299,1.4299,1.4299,1.237,1.2348,1.2211,1.2283,1.209,1.1785,1.1419,1.0985,1.0627,1.048,1.0164,0.9974,1.0163,1.006,1.0046,1.0175,1.0181,1.0209,1.0276,1.0358,1.0437,1.0437,1.0487,1.0534,1.0534,1.0595,1.0622,1.0622,1.0657,1.0684,1.0684,1.0684,1.0732,1.0819,1.0819,1.0901,1.1077,1.1165,1.124,1.1301,1.1396,1.143,1.1416,1.1363,1.1348,1.1436,1.1497,1.1565,1.1584,1.1584,1.1638,1.1705,1.1705,1.1803,1.1877,1.1877,1.1918,1.1965,1.1965,1.2074,1.2234,1.2234,1.2305,1.2413,1.2413,1.2461,1.2501,1.2501,0.0,0.0,0.0,0.0,0.0,0.0,1.2501,1.2501,1.2501,1.2501,1.2501,1.2501,1.2501,1.2501,1.2501,1.2779,1.3003,1.3003,1.3234,1.3403,1.3403,1.3403,1.3539,1.3788,1.3795,1.3944,1.4299,1.4299,1.4299,1.4299,1.4299,1.4299,1.4299,1.4299,1.4299,1.4299,1.4299,1.4299,1.4299,1.4299,1.4299,1.4299,1.4299,1.4299,1.4299,1.4299,1.4299,1.4299,1.0892,1.1062,1.1251,1.1347,1.1265,1.101,1.0575,1.0262,1.0133,1.0268,1.0163,1.0123,1.027,1.0315,1.0297,1.0337,1.0337,1.0358,1.0399,1.0493,1.0555,1.0555,1.0663,1.0684,1.0684,1.0684,1.0684,1.0684,1.0732,1.0752,1.0752,1.0826,1.09,1.0975,1.0975,1.109,1.1268,1.1341,1.1416,1.1463,1.1572,1.1604,1.1624,1.1511,1.1545,1.1644,1.1644,1.1701,1.1742,1.1742,1.1809,1.1898,1.1898,1.1972,1.2098,1.2098,1.2132,1.2166,1.2166,1.2237,1.2345,1.2345,1.2427,1.2501,1.2501,1.2501,1.2501,1.2501,1.2501,0.0,0.0,0.0,1.2501,1.2501,0.0,1.2501,1.2501,1.2501,1.2501,1.2501,1.2501,1.2501,1.2501,1.2779,1.3003,1.3003,1.3234,1.3403,1.3403,1.3403,1.3539,1.3788,1.3795,1.3944,1.4299,1.4299,1.4299,1.4299,1.4299,1.4299,1.4299,1.4299,1.4299,1.4299,1.4299,1.4299,1.4299,1.4299,1.4299,1.4299,1.4299,1.4299,1.4299,1.4299,1.4299,1.4299,0.9676,1.0222,1.0718,1.0726,1.0347,1.0053,1.0047,1.0161,1.0295,1.0295,1.0301,1.0276,1.0315,1.0315,1.0337,1.0473,1.0487,1.0548,1.0697,1.0677,1.0677,1.0677,1.0684,1.0684,1.0684,1.0684,1.0684,1.0684,1.0833,1.0873,1.0914,1.1084,1.1186,1.1193,1.1193,1.1274,1.1382,1.1389,1.1477,1.1577,1.1619,1.1665,1.1773,1.1631,1.1665,1.1786,1.1786,1.1918,1.2084,1.2084,1.2091,1.2091,1.2091,1.2098,1.2098,1.2098,1.2207,1.2284,1.2284,1.2386,1.2494,1.2494,1.2501,1.2501,1.2501,1.2501,1.2501,1.2501,1.2501,1.2501,1.2501,1.2501,0.0,0.0,0.0,0.0,0.0,1.2501,1.2501,1.2501,1.2501,1.2501,1.2501,1.2779,1.3003,1.3003,1.3234,1.3403,1.3403,1.3403,1.3539,1.3788,1.3795,1.3944,1.4299,1.4299,1.4299,1.4299,1.4299,1.4299,1.4299,1.4299,1.4299,1.4299,1.4299,1.4299,1.4299,1.4299,1.4299,1.4299,1.4299,1.4299,1.4299,1.4299,1.4299,1.4299,1.0077,1.026,1.0398,1.0261,1.0228,1.0211,1.0188,1.0249,1.0349,1.0405,1.0419,1.046,1.0561,1.0568,1.0588,1.0636,1.0643,1.0663,1.0684,1.0684,1.0684,1.0684,1.0786,1.084,1.084,1.0962,1.1043,1.1043,1.1063,1.109,1.109,1.1172,1.1254,1.1314,1.1314,1.1396,1.1545,1.1545,1.1626,1.1732,1.187,1.1975,1.1979,1.1968,1.1975,1.1986,1.1986,1.2057,1.2098,1.2098,1.2166,1.221,1.221,1.2277,1.2352,1.2352,1.2386,1.2427,1.2427,1.2467,1.2501,1.2501,1.2501,1.2501,1.2501,1.2501,1.2501,1.2501,1.2501,1.2501,1.2501,0.0,0.0,0.0,0.0,0.0,0.0,1.2501,1.2501,1.2501,1.2501,1.2501,1.2501,1.2779,1.3003,1.3003,1.3234,1.3403,1.3403,1.3403,1.3539,1.3788,1.3795,1.3944,1.4299,1.4299,1.4299,1.4299,1.4299,1.4299,1.4299,1.4299,1.4299,1.4299,1.4299,1.4299,1.4299,1.4299,1.4299,1.4299,1.4299,1.4299,1.4299,1.4299,1.4299,1.4299,1.0315,1.0356,1.031,1.0123,1.0256,1.0358,1.0358,1.0399,1.0473,1.0561,1.0575,1.0629,1.0752,1.0765,1.0786,1.0873,1.088,1.088,1.088,1.088,1.088,1.088,1.0975,1.1023,1.1023,1.1118,1.12,1.12,1.1254,1.1281,1.1281,1.1336,1.1375,1.147,1.1525,1.1599,1.1665,1.1755,1.183,1.1925,1.2118,1.2179,1.2186,1.2234,1.2227,1.2179,1.2179,1.2213,1.2254,1.2254,1.2284,1.2366,1.2366,1.2427,1.2501,1.2501,1.2501,1.2501,1.2501,1.2501,1.2501,1.2501,1.2501,1.2501,1.2501,1.2501,1.2501,1.2501,1.2501,1.2501,1.2501,1.2501,0.0,0.0,0.0,0.0,0.0,1.2501,1.2501,1.2501,1.2501,1.2501,1.2501,1.2779,1.3003,1.3003,1.3234,1.3403,1.3403,1.3403,1.3539,1.3788,1.3795,1.3944,1.4299,1.4299,1.4299,1.4299,1.4299,1.4299,1.4299,1.4299,1.4299,1.4299,1.4299,1.4299,1.4299,1.4299,1.4299,1.4299,1.4299,1.4299,1.4299,1.4299,1.4299,1.4299,1.0335,1.0412,1.046,1.0324,1.0412,1.05,1.05,1.0629,1.0691,1.0698,1.0698,1.0752,1.0907,1.0928,1.0982,1.1186,1.12,1.12,1.12,1.12,1.12,1.12,1.1206,1.1206,1.1206,1.122,1.122,1.122,1.137,1.1402,1.1402,1.1558,1.1597,1.1633,1.1739,1.1807,1.1813,1.2036,1.2104,1.2125,1.2275,1.2298,1.2318,1.2447,1.242,1.2298,1.2298,1.2386,1.2501,1.2501,1.2501,1.2501,1.2501,1.2501,1.2501,1.2501,1.2501,1.2501,1.2501,1.2501,1.2501,1.2501,1.2501,1.2501,1.2501,1.2501,1.2501,1.2501,1.2501,1.2501,1.2501,1.2501,0.0,0.0,0.0,0.0,1.2501,1.2501,1.2501,1.2501,1.2501,1.2508,1.2515,1.2826,1.3003,1.3009,1.3241,1.3403,1.3403,1.3403,1.3539,1.3788,1.3795,1.3944,1.4299,1.4299,1.4299,1.4299,1.4299,1.4299,1.4299,1.4299,1.4299,1.4299,1.4299,1.4299,1.4299,1.4299,1.4299,1.4299,1.4299,1.4299,1.4299,1.4299,1.4299,1.4299,1.0609,1.0636,1.0649,1.0616,1.0636,1.0663,1.0663,1.0697,1.0725,1.084,1.086,1.0914,1.109,1.1104,1.1124,1.1193,1.12,1.12,1.12,1.12,1.12,1.12,1.1308,1.1335,1.1335,1.1443,1.1504,1.1504,1.1545,1.1558,1.1565,1.1671,1.1739,1.1746,1.1938,1.2006,1.2043,1.2084,1.2166,1.2244,1.2386,1.2447,1.2447,1.2488,1.2481,1.2447,1.2447,1.2467,1.2501,1.2501,1.2501,1.2501,1.2501,1.2501,1.2501,1.2501,1.2501,1.2501,1.2501,1.2501,1.2501,1.2501,1.2501,1.2501,1.2501,1.2501,1.2501,1.2501,1.2501,1.2501,1.2501,1.2501,1.2501,1.2501,0.0,0.0,1.2501,1.2501,1.2501,1.2501,1.2501,1.2549,1.2618,1.2847,1.3043,1.3152,1.3295,1.3403,1.3403,1.3403,1.3539,1.3788,1.3795,1.3944,1.4299,1.4299,1.4299,1.4299,1.4299,1.4299,1.4299,1.4299,1.4299,1.4299,1.4299,1.4299,1.4299,1.4299,1.4299,1.4299,1.4299,1.4299,1.4299,1.4299,1.4299,1.4299,1.0684,1.0738,1.0806,1.09,1.0914,1.0894,1.0792,1.0873,1.0948,1.1029,1.107,1.1164,1.1348,1.1416,1.1519,1.1587,1.1594,1.1594,1.1594,1.1594,1.1594,1.1594,1.1676,1.1653,1.1586,1.1667,1.1671,1.1671,1.1671,1.1748,1.1816,1.1898,1.1932,1.1938,1.2094,1.22,1.2207,1.2268,1.2305,1.2393,1.2542,1.2603,0.0,1.2678,1.2705,1.2705,1.2705,1.2657,1.2603,1.2603,1.2603,1.2603,1.2603,1.2556,1.2501,1.2501,1.2501,1.2501,1.2501,1.2501,1.2501,1.2501,1.2501,1.2501,1.2501,1.2501,1.2501,1.2501,1.2501,1.2501,1.2501,1.2501,1.2501,1.2501,1.2501,1.2501,1.2501,1.2501,1.2528,1.2589,1.2603,1.2684,1.2901,1.2989,1.3057,1.32,1.3315,1.3403,1.3403,1.3403,1.3539,1.3788,1.3795,1.3944,1.4299,1.4299,1.4299,1.4299,1.4299,1.4299,1.4299,1.4299,1.4299,1.4299,1.4299,1.4299,1.4299,1.4299,1.4299,1.4299,1.4299,1.4299,1.4299,1.4299,1.4299,1.4299,1.0778,1.0853,1.0982,1.1172,1.1234,1.1179,1.1022,1.1124,1.1234,1.1254,1.1355,1.1504,1.166,1.1789,1.1918,1.2084,1.2098,1.2098,1.2098,1.2098,1.2098,1.2098,1.2098,1.2036,1.1827,1.1827,1.1827,1.1827,1.1827,1.1932,1.2098,1.2118,1.2132,1.2139,1.2288,1.2318,1.2325,1.2474,1.2528,1.2549,1.2698,1.272,1.2773,1.2948,1.3003,1.3003,1.3003,1.2874,1.272,1.272,1.272,1.272,1.272,1.2671,1.2562,1.2562,1.2562,1.2562,1.2562,1.2562,1.2562,1.2562,1.2562,1.2562,1.2562,1.2562,1.2562,1.2562,1.2562,1.2562,1.2562,1.2562,1.2562,1.2562,1.2562,1.2562,1.2562,1.2562,1.261,1.2745,1.272,0.0,1.3186,1.3105,1.3091,1.3234,1.3322,1.3403,1.3403,1.3403,1.3539,1.3788,1.3795,1.3944,1.4299,1.4299,1.4299,1.4299,1.4299,1.4299,1.4299,1.4299,1.4299,1.4299,1.4299,1.4299,1.4299,1.4299,1.4299,1.4299,1.4299,1.4299,1.4299,1.4299,1.4299,1.4299,1.1118,1.1145,1.1166,1.1193,1.1369,1.1531,1.1469,1.1416,1.1396,1.1525,1.1667,1.1809,1.2002,1.2043,1.207,1.2098,1.2098,1.2098,1.2098,1.2098,1.2098,1.2098,1.2098,1.2084,1.2057,1.2057,1.2057,1.2057,1.2057,1.207,1.2104,1.2189,1.225,1.2257,1.24,1.2467,1.2474,1.2623,1.2652,1.2665,1.2861,1.2962,1.2962,1.2989,1.3003,1.3003,1.3003,1.2982,1.2962,1.2962,1.2962,1.2962,1.2962,1.2941,1.2921,1.2921,1.2921,1.2921,1.2921,1.2921,1.2921,1.2921,1.2921,1.2921,1.2921,1.2921,1.2921,1.2921,1.2921,1.2921,1.2921,1.2921,1.2921,1.2921,1.2921,1.2921,1.2921,1.2921,1.2928,1.2955,1.2962,1.303,1.32,1.3193,1.3241,1.3349,1.3383,1.3403,1.3403,1.3403,1.3539,1.3788,1.3795,1.3944,1.4299,1.4299,1.4299,1.4299,1.4299,1.4299,1.4299,1.4299,1.4299,1.4299,1.4299,1.4299,1.4299,1.4299,1.4299,1.4299,1.4299,1.4299,1.4299,1.4299,1.4299,1.4299,1.1302,1.1348,1.1423,1.1497,1.1701,1.185,1.185,1.185,1.1857,1.185,1.1979,1.2128,1.2277,1.2359,1.244,1.256,1.2567,1.2567,1.2567,1.2567,1.2533,1.2413,1.2406,1.2338,1.222,1.222,1.222,1.222,1.222,1.2254,1.2291,1.2366,1.24,1.2406,1.2556,1.2617,1.2591,1.2786,1.2847,1.2861,1.305,1.3111,1.3118,1.32,1.3193,1.3193,1.3193,1.3193,1.322,1.3139,1.3111,1.3111,1.3111,1.3064,1.3003,1.3003,1.3003,1.3003,1.3003,1.3003,1.3003,1.3003,1.3003,1.3003,1.3003,1.3003,1.3003,1.3003,1.3003,1.3003,1.3003,1.3003,1.3003,1.3003,1.3003,1.3003,1.3003,1.3003,1.303,1.3105,1.3111,1.3166,1.3275,1.3288,1.3322,1.3397,1.3403,1.3403,1.3403,1.3403,1.3539,1.3788,1.3795,1.3944,1.4299,1.4299,1.4299,1.4299,1.4299,1.4299,1.4299,1.4299,1.4299,1.4299,1.4299,1.4299,1.4299,1.4299,1.4299,1.4299,1.4299,1.4299,1.4299,1.4299,1.4299,1.4299,1.1463,1.1606,1.1748,1.1864,1.2033,1.2193,1.2193,1.2349,1.2404,1.222,1.2291,1.244,1.2583,1.2705,1.2827,1.2989,1.3003,1.3003,1.3003,1.3003,1.2948,1.2786,1.2779,1.2671,1.244,1.2433,1.242,1.2386,1.2386,1.2427,1.2501,1.2501,1.2522,1.2556,1.2712,1.2779,1.2786,1.2942,1.305,1.3057,1.3207,1.322,1.3234,1.3356,1.3403,1.3403,1.3403,1.3403,1.3383,1.3261,1.322,1.322,1.322,1.3186,1.3098,1.3098,1.3098,1.3098,1.3098,1.3098,1.3098,1.3098,1.3098,1.3098,1.3098,1.3098,1.3098,1.3098,1.3098,1.3098,1.3098,1.3098,1.3098,1.3098,1.3098,1.3098,1.3098,1.3098,1.3139,1.3248,1.322,1.3268,1.339,1.3403,1.3403,1.3403,1.3403,1.3403,1.3403,1.3403,1.3539,1.3788,1.3795,1.3944,1.4299,1.4299,1.4299,1.4299,1.4299,1.4299,1.4299,1.4299,1.4299,1.4299,1.4299,1.4299,1.4299,1.4299,1.4299,1.4299,1.4299,1.4299,1.4299,1.4299,1.4299,1.4299,1.1753,1.1918,1.2064,1.2077,1.2271,1.2461,1.2461,1.2751,1.2833,1.2501,1.2589,1.2745,1.2941,1.2969,1.2982,1.3003,1.3003,1.3003,1.3003,1.3003,1.2996,1.2982,1.2982,1.2969,1.2941,1.2935,1.2827,1.2652,1.2652,1.2623,1.2501,1.2501,1.2576,1.2679,1.2868,1.2982,1.2989,1.3132,1.3193,1.3207,1.3315,1.3376,1.3383,1.3397,1.3403,1.3403,1.3403,1.3403,1.3397,1.3383,1.3376,1.3376,1.3376,1.337,1.3363,1.3363,1.3363,1.3363,1.3363,1.3363,1.3363,1.3363,1.3363,1.3363,1.3363,1.3363,1.3363,1.3363,1.3363,1.3363,1.3363,1.3363,1.3363,1.3363,1.3363,1.3363,1.3363,1.3363,1.3363,1.3376,1.3376,1.3383,1.3397,1.3403,1.3403,1.3403,1.3403,1.3403,1.3403,1.3403,1.3539,1.3788,1.3795,1.3944,1.4299,1.4299,1.4299,1.4299,1.4299,1.4299,1.4299,1.4299,1.4299,1.4299,1.4299,1.4299,1.4299,1.4299,1.4299,1.4299,1.4299,1.4299,1.4299,1.4299,1.4299,1.4299,1.1972,1.2162,1.2325,1.2325,1.2615,1.2819,1.2819,1.2921,1.2989,1.2948,1.2881,1.2922,1.3111,1.3125,1.3166,1.3214,1.3227,1.3227,1.3227,1.3227,1.3186,1.3132,1.3125,1.3091,1.3003,1.3003,1.2969,1.2868,1.2868,1.2834,1.2819,1.2819,1.2813,1.2874,1.3064,1.3125,1.3139,1.3247,1.3363,1.3451,1.3512,1.3587,1.3619,1.3619,1.3619,1.3619,1.3619,1.3619,1.3619,1.3619,1.3546,1.3403,1.3403,1.3403,1.3403,1.3403,1.3403,1.3403,1.3403,1.3403,1.3403,1.3403,1.3403,1.3403,1.3403,1.3403,1.3403,1.3403,1.3403,1.3403,1.3403,1.3403,1.3403,1.3403,1.3403,1.3403,1.3403,1.3403,1.3403,1.3403,1.3403,1.3403,1.3403,1.3403,1.3403,1.3403,1.3403,1.3403,1.3403,1.3492,1.3592,1.3788,1.3933,1.4082,1.4299,1.4299,1.4299,1.4299,1.4299,1.4299,1.4299,1.4299,1.4299,1.4299,1.4299,1.4299,1.4299,1.4299,1.4299,1.4299,1.4299,1.4299,1.4299,1.4299,1.4299,1.4299,1.2288,1.2461,1.2637,1.2637,1.2894,1.3064,1.3064,1.3105,1.3166,1.3268,1.3193,1.3166,1.3268,1.3282,1.3281,1.339,1.3403,1.3403,1.3403,1.3403,1.3356,1.3247,1.3282,1.3193,1.3132,1.3132,1.3111,1.3064,1.3064,1.3043,1.3003,1.3043,1.3064,1.3071,1.322,1.3308,1.3315,1.3464,1.3551,1.3646,1.3646,1.3707,1.3795,1.3795,1.3795,1.3795,1.3795,1.3795,1.3795,1.3795,1.366,1.3532,1.3532,1.3532,1.3532,1.3532,1.3532,1.3532,1.3532,1.3532,1.3519,1.3478,1.3464,1.3458,1.341,1.3403,1.3403,1.3403,1.3403,1.3403,1.3403,1.3403,1.3403,1.3403,1.3403,1.3403,1.3403,1.3403,1.3403,1.3403,1.3403,1.3403,1.3403,1.3403,1.3403,1.3403,1.3444,1.3464,1.3464,1.3531,1.3673,1.3862,1.4014,1.4143,1.4299,1.4299,1.4299,1.4299,1.4299,1.4299,1.4299,1.4299,1.4299,1.4299,1.4299,1.4299,1.4299,1.4299,1.4299,1.4299,1.4299,1.4299,1.4299,1.4299,1.4299,1.4299,1.2652,1.2847,1.2996,1.2996,1.3111,1.3214,1.3214,1.3302,1.3397,1.3397,1.3397,1.3397,1.3397,1.3397,1.3397,1.3403,1.3403,1.3403,1.3403,1.3403,1.3403,1.3397,1.3397,1.3397,1.3397,1.3397,1.3322,1.3214,1.3214,1.3139,1.3003,1.3146,1.3214,1.3227,1.3492,1.3585,1.3592,1.3734,1.3795,1.3795,1.3795,1.3795,1.3795,1.3795,1.3795,1.3795,1.3795,1.3795,1.3795,1.3795,1.3795,1.3795,1.3795,1.3795,1.3795,1.3795,1.3795,1.3795,1.3795,1.3795,1.3761,1.3619,1.3585,1.3545,1.3437,1.3403,1.3403,1.3403,1.3403,1.3403,1.3403,1.3403,1.3403,1.3403,1.3403,1.3403,1.3403,1.3403,1.3403,1.3403,1.3403,1.3403,1.3403,1.3403,1.3403,1.3403,1.3497,1.3585,1.3585,1.3585,1.3763,1.4105,1.4112,1.4143,1.4299,1.4299,1.4299,1.4299,1.4299,1.4299,1.4299,1.4299,1.4299,1.4299,1.4299,1.4299,1.4299,1.4299,1.4299,1.4299,1.4299,1.4299,1.4299,1.4299,1.4299,1.4299,1.2921,1.3043,1.3146,1.3146,1.3268,1.3363,1.3464,1.3526,1.3593,1.3646,1.366,1.366,1.366,1.3572,1.3551,1.3653,1.366,1.366,1.366,1.366,1.366,1.366,1.366,1.366,1.366,1.3565,1.3532,1.3485,1.3376,1.3356,1.3417,1.3559,1.3627,1.3592,1.3687,1.3734,1.3734,1.3781,1.3899,1.4,1.4,1.4061,1.4156,1.4156,1.4156,1.4156,1.4156,1.4156,1.4156,1.4156,1.4156,1.4156,1.4156,1.3964,1.3795,1.3795,1.3795,1.3795,1.3795,1.3795,1.3788,1.3741,1.3734,1.372,1.3666,1.366,1.366,1.366,1.366,1.366,1.366,1.366,1.366,1.366,1.366,1.3626,1.3566,1.3559,1.3519,1.341,1.3403,1.3403,1.3403,1.3498,1.3559,1.3559,1.3646,1.3687,1.3592,1.3817,1.3973,1.4112,1.4177,1.4251,1.4299,1.4299,1.4299,1.4299,1.4299,1.4299,1.4299,1.4299,1.4299,1.4299,1.4299,1.4299,1.4299,1.4299,1.4299,1.4299,1.4299,1.4299,1.4299,1.4299,1.4299,1.4299,1.3193,1.3281,1.3363,1.341,1.3505,1.36,1.3653,1.3666,1.37,1.3788,1.3795,1.3822,1.3919,1.3851,1.381,1.3795,1.3795,1.3795,1.3795,1.3795,1.3795,1.3795,1.3795,1.3795,1.3795,1.3714,1.3666,1.3666,1.3572,1.3572,1.3666,1.3754,1.3795,1.3802,1.3899,1.3926,1.3933,1.3987,1.4068,1.42,1.42,1.4217,1.4299,1.4299,1.4299,1.4299,1.4299,1.4299,1.4299,1.4299,1.4299,1.4299,1.4299,1.417,1.3971,1.3971,1.3971,1.3971,1.3971,1.3971,1.4,1.3939,1.3926,1.3869,1.3808,1.3795,1.3795,1.3795,1.3795,1.3795,1.3795,1.3795,1.3795,1.3795,1.3795,1.3768,1.368,1.3666,1.3632,1.358,1.3566,1.3566,1.3566,1.3612,1.3666,1.3666,1.3802,1.3892,1.3804,1.3973,1.4139,1.4156,1.4251,1.4299,1.4299,1.4299,1.4299,1.4299,1.4299,1.4299,1.4299,1.4299,1.4299,1.4299,1.4299,1.4299,1.4299,1.4299,1.4299,1.4299,1.4299,1.4299,1.4299,1.4299,1.4299,1.4299,1.3545,1.3599,1.3646,1.3774,1.3795,1.3802,1.3815,1.3815,1.3815,1.3829,1.3829,1.3926,1.4068,1.4132,1.4027,1.3842,1.3829,1.3829,1.3829,1.3829,1.3829,1.3829,1.3829,1.3829,1.3829,1.3822,1.3808,1.3795,1.3808,1.3815,1.3815,1.3822,1.3829,1.3835,1.4021,1.4132,1.4139,1.4238,1.4299,1.4299,1.4299,1.4299,1.4299,1.4299,1.4299,1.4299,1.4299,1.4299,1.4299,1.4299,1.4299,1.4299,1.4299,1.4299,1.4299,1.4299,1.4299,1.4299,1.4299,1.4299,1.4265,1.4166,1.4132,1.4048,1.3862,1.3829,1.3829,1.3829,1.3829,1.3829,1.3829,1.3829,1.3829,1.3829,1.3829,1.3829,1.3815,1.3815,1.3808,1.3802,1.3795,1.3795,1.3795,1.3808,1.3815,1.3815,1.4,1.4132,1.4132,1.4132,1.415,1.4292,1.4299,1.4299,1.4299,1.4299,1.4299,1.4299,1.4299,1.4299,1.4299,1.4299,1.4299,1.4299,1.4299,1.4299,1.4299,1.4299,1.4299,1.4299,1.4299,1.4299,1.4299,1.4299,1.4299,1.4299,1.3734,1.3747,1.3761,1.3795,1.3795,1.3835,1.4,1.4014,1.4061,1.4177,1.419,1.4204,1.4245,1.4245,1.4231,1.4197,1.419,1.419,1.419,1.419,1.419,1.419,1.419,1.419,1.419,1.4075,1.396,1.3795,1.396,1.4014,1.4021,1.4136,1.419,1.419,1.4231,1.4245,1.4251,1.4285,1.4299,1.4299,1.4299,1.4299,1.4299,1.4299,1.4299,1.4299,1.4299,1.4299,1.4299,1.4299,1.4299,1.4299,1.4299,1.4299,1.4299,1.4299,1.4299,1.4299,1.4299,1.4299,1.4292,1.4251,1.4245,1.4238,1.4197,1.419,1.419,1.419,1.419,1.419,1.419,1.419,1.419,1.419,1.419,1.415,1.4034,1.4014,1.3973,1.3815,1.3795,1.3795,1.3795,1.3946,1.4014,1.4014,1.4156,1.4245,1.4245,1.4245,1.4265,1.4299,1.4299,1.4299,1.4299,1.4299,1.4299,1.4299,1.4299,1.4299,1.4299,1.4299,1.4299,1.4299,1.4299,1.4299,1.4299,1.4299,1.4299,1.4299,1.4299,1.4299,1.4299,1.4299,1.4299,1.4299,1.3933,1.3946,1.3966,1.4041,1.4048,1.4082,1.4163,1.4177,1.4204,1.4292,1.4299,1.4299,1.4299,1.4299,1.4299,1.4299,1.4299,1.4299,1.4299,1.4299,1.4299,1.4299,1.4299,1.4299,1.4299,1.4217,1.4136,1.4048,1.4136,1.4177,1.4177,1.4265,1.4299,1.4299,1.4299,1.4299,1.4299,1.4299,1.4299,1.4299,1.4299,1.4299,1.4299,1.4299,1.4299,1.4299,1.4299,1.4299,1.4299,1.4299,1.4299,1.4299,1.4299,1.4299,1.4299,1.4299,1.4299,1.4299,1.4299,1.4299,1.4299,1.4299,1.4299,1.4299,1.4299,1.4299,1.4299,1.4299,1.4299,1.4299,1.4299,1.4299,1.4299,1.4299,1.4299,1.4272,1.419,1.4177,1.4143,1.4061,1.4048,1.4048,1.4048,1.4129,1.4177,1.4177,1.4251,1.4299,1.4299,1.4299,1.4299,1.4299,1.4299,1.4299,1.4299,1.4299,1.4299,1.4299,1.4299,1.4299,1.4299,1.4299,1.4299,1.4299,1.4299,1.4299,1.4299,1.4299,1.4299,1.4299,1.4299,1.4299,1.4299,1.4299,1.4299,1.4299,1.4082,1.4153,1.4193,1.4278,1.4299,1.4299,1.4299,1.4299,1.4299,1.4299,1.4299,1.4299,1.4299,1.4299,1.4299,1.4299,1.4299,1.4299,1.4299,1.4299,1.4299,1.4299,1.4299,1.4299,1.4299,1.4299,1.4299,1.4299,1.4299,1.4299,1.4299,1.4299,1.4299,1.4299,1.4299,1.4299,1.4299,1.4299,1.4299,1.4299,1.4299,1.4299,1.4299,1.4299,1.4299,1.4299,1.4299,1.4299,1.4299,1.4299,1.4299,1.4299,1.4299,1.4299,1.4299,1.4299,1.4299,1.4299,1.4299,1.4299,1.4299,1.4299,1.4299,1.4299,1.4299,1.4299,1.4299,1.4299,1.4299,1.4299,1.4299,1.4299,1.4299,1.4299,1.4299,1.4299,1.4299,1.4299,1.4299,1.4299,1.4299,1.4299,1.4299,1.4299,1.4299,1.4299,1.4299,1.4299,1.4299,1.4299,1.4299,1.4299,1.4299,1.4299,1.4299,1.4299,1.4299,1.4299,1.4299,1.4299,1.4299,1.4299,1.4299,1.4299,1.4299,1.4299,1.4299,1.4299,1.4299,1.4299,1.4299,1.4299,1.4299,1.4299,1.4299,1.4299,1.4258,1.4265,1.4272,1.4299,1.4299,1.4299,1.4299,1.4299,1.4299,1.4299,1.4299,1.4299,1.4299,1.4299,1.4299,1.4299,1.4299,1.4299,1.4299,1.4299,1.4299,1.4299,1.4299,1.4299,1.4299,1.4299,1.4299,1.4299,1.4299,1.4299,1.4299,1.4299,1.4299,1.4299,1.4299,1.4299,1.4299,1.4299,1.4299,1.4299,1.4299,1.4299,1.4299,1.4299,1.4299,1.4299,1.4299,1.4299,1.4299,1.4299,1.4299,1.4299,1.4299,1.4299,1.4299,1.4299,1.4299,1.4299,1.4299,1.4299,1.4299,1.4299,1.4299,1.4299,1.4299,1.4299,1.4299,1.4299,1.4299,1.4299,1.4299,1.4299,1.4299,1.4299,1.4299,1.4299,1.4299,1.4299,1.4299,1.4299,1.4299,1.4299,1.4299,1.4299,1.4299,1.4299,1.4299,1.4299,1.4299,1.4299,1.4299,1.4299,1.4299,1.4299,1.4299,1.4299,1.4299,1.4299,1.4299,1.4299,1.4299,1.4299,1.4299,1.4299,1.4299,1.4299,1.4299,1.4299,1.4299,1.4299,1.4299,1.4299,1.4299,1.4299,1.4299,1.4299,1.4299,1.4299,1.4299,1.4299,1.4299,1.4299,1.4299,1.4299,1.4299,1.4299,1.4299,1.4299,1.4299,1.4299,1.4299,1.4299,1.4299,1.4299,1.4299,1.4299,1.4299,1.4299,1.4299,1.4299,1.4299,1.4299,1.4299,1.4299,1.4299,1.4299,1.4299,1.4299,1.4299,1.4299,1.4299,1.4299,1.4299,1.4299,1.4299,1.4299,1.4299,1.4299,1.4299,1.4299,1.4299,1.4299,1.4299,1.4299,1.4299,1.4299,1.4299,1.4299,1.4299,1.4299,1.4299,1.4299,1.4299,1.4299,1.4299,1.4299,1.4299,1.4299,1.4299,1.4299,1.4299,1.4299,1.4299,1.4299,1.4299,1.4299,1.4299,1.4299,1.4299,1.4299,1.4299,1.4299,1.4299,1.4299,1.4299,1.4299,1.4299,1.4299,1.4299,1.4299,1.4299,1.4299,1.4299,1.4299,1.4299,1.4299,1.4299,1.4299,1.4299,1.4299,1.4299,1.4299,1.4299,1.4299,1.4299,1.4299,1.4299,1.4299,1.4299,1.4299,1.4299,1.4299,1.4299,1.4299,1.4299,1.4299,1.4299,1.4299,1.4299,1.4299,1.4299,1.4299,1.4299,1.4299,1.4299,1.4299,1.4299,1.4299,1.4299,1.4299,1.4299,1.4299,1.4299,1.4299,1.4299,1.4299,1.4299,1.4299,1.4299,1.4299,1.4299,1.4299,1.4299,1.4299,1.4299,1.4299,1.4299,1.4299,1.4299,1.4299,1.4299,1.4299,1.4299,1.4299,1.4299,1.4299,1.4299,1.4299,1.4299,1.4299,1.4299,1.4299,1.4299,1.4299,1.4299,1.4299,1.4299,1.4299,1.4299,1.4299,1.4299,1.4299,1.4299,1.4299,1.4299,1.4299,1.4299,1.4299,1.4299,1.4299,1.4299,1.4299,1.4299,1.4299,1.4299,1.4299,1.4299,1.4299,1.4299,1.4299,1.4299,1.4299,1.4299,1.4299,1.4299,1.4299,1.4299,1.4299,1.4299,1.4299,1.4299,1.4299,1.4299,1.4299,1.4299,1.4299,1.4299,1.4299,1.4299,1.4299,1.4299,1.4299,1.4299,1.4299,1.4299,1.4299,1.4299,1.4299,1.4299,1.4299,1.4299,1.4299,1.4299,1.4299,1.4299,1.4299,1.4299,1.4299,1.4299,1.4299,1.4299,1.4299,1.4299,1.4299,1.4299,1.4299,1.4299,1.4299,1.4299,1.4299,1.4299,1.4299,1.4299,1.4299,1.4299,1.4299,1.4299,1.4299,1.4299,1.4299,1.4299,1.4299,1.4299,1.4299,1.4299,1.4299,1.4299,1.4299,1.4299,1.4299,1.4299,1.4299,1.4299,1.4299,1.4299,1.4299,1.4299,1.4299,1.4299,1.4299,1.4299,1.4299,1.4299,1.4299,1.4299,1.4299,1.4299,1.4299,1.4299,1.4299,1.4299,1.4299,1.4299,1.4299,1.4299,1.4299,1.4299,1.4299,1.4299,1.4299,1.4299,1.4299,1.4299,1.4299,1.4299,1.4299,1.4299,1.4299,1.4299,1.4299,1.4299,1.4299,1.4299,1.4299,1.4299,1.4299,1.4299,1.4299,1.4299,1.4299,1.4299,1.4299,1.4299,1.4299,1.4299,1.4299,1.4299,1.4299,1.4299,1.4299,1.4299,1.4299,1.4299,1.4299,1.4299,1.4299,1.4299,1.4299,1.4299,1.4299,1.4299,1.4299,1.4299,1.4299,1.4299,1.4299,1.4299,1.4299,1.4299,1.4299,1.4299,1.4299,1.4299,1.4299,1.4299,1.4299,1.4299,1.4299,1.4299,1.4299,1.4299,1.4299,1.4299,1.4299,1.4299,1.4299,1.4299,1.4299,1.4299,1.4299,1.4299,1.4299,1.4299,1.4299,1.4299,1.4299,1.4299,1.4299,1.4299,1.4299,1.4299,1.4299,1.4299,1.4299,1.4299,1.4299,1.4299,1.4299,1.4299,1.4299,1.4299,1.4299,1.4299,1.4299,1.4299,1.4299,1.4299,1.4299,1.4299,1.4299,1.4299,1.4299,1.4299,1.4299,1.4299,1.4299,1.4299,1.4299,1.4299,1.4299,1.4299,1.4299,1.4299,1.4299,1.4299,1.4299,1.4299,1.4299,1.4299,1.4299,1.4299,1.4299,1.4299,1.4299,1.4299,1.4299,1.4299,1.4299,1.4299,1.4299,1.4299,1.4299,1.4299,1.4299,1.4299,1.4299,1.4299,1.4299,1.4299,1.4299,1.4299,1.4299,1.4299,1.4299,1.4299,1.4299,1.4299,1.4299,1.4299,1.4299,1.4299,1.4299,1.4299,1.4299,1.4299,1.4299,1.4299,1.4299,1.4299,1.4299,1.4299,1.4299,1.4299,1.4299,1.4299,1.4299,1.4299,1.4299,1.4299,1.4299,1.4299,1.4299,1.4299,1.4299,1.4299,1.4299,1.4299,1.4299,1.4299,1.4299,1.4299,1.4299,1.4299,1.4299,1.4299,1.4299,1.4299,1.4299,1.4299,1.4299,1.4299,1.4299,1.4299,1.4299,1.4299,1.4299,1.4299,1.4299,1.4299,1.4299,1.4299,1.4299,1.4299,1.4299,1.4299,1.4299,1.4299,1.4299,1.4299,1.4299,1.4299,1.4299,1.4299,1.4299,1.4299,1.4299,1.4299,1.4299,1.4299,1.4299,1.4299,1.4299,1.4299,1.4299,1.4299,1.4299,1.4299,1.4299,1.4299,1.4299,1.4299,1.4299,1.4299,1.4299,1.4299,1.4299,1.4299,1.4299,1.4299,1.4299,1.4299,1.4299,1.4299,1.4299,1.4299,1.4299,1.4299,1.4299,1.4299,1.4299,1.4299,1.4299,1.4299,1.4299,1.4299,1.4299,1.4299,1.4299,1.4299,1.4299,1.4299,1.4299,1.4299,1.4299,1.4299,1.4299,1.4299,1.4299,1.4299,1.4299,1.4299,1.4299,1.4299,1.4299,1.4299,1.4299,1.4299,1.4299,1.4299,1.4299,1.4299,1.4299,1.4299,1.4299,1.4299,1.4299,1.4299,1.4299,1.4299,1.4299,1.4299,1.4299,1.4299,1.4299,1.4299,1.4299,1.4299,1.4299,1.4299,1.4299,1.4299,1.4299,1.4299,1.4299,1.4299,1.4299,1.4299,1.4299,1.4299,1.4299,1.4299,1.4299,1.4299,1.4299,1.4299,1.4299,1.4299,1.4299,1.4299,1.4299,1.4299,1.4299,1.4299,1.4299,1.4299,1.4299,1.4299,1.4299,1.4299,1.4299,1.4299,1.4299,1.4299,1.4299,1.4299,1.4299,1.4299,1.4299,1.4299,1.4299,1.4299,1.4299,1.4299,1.4299,1.4299,1.4299,1.4299,1.4299,1.4299,1.4299,1.4299,1.4299,1.4299,1.4299,1.4299,1.4299,1.4299,1.4299,1.4299,1.4299,1.4299,1.4299,1.4299,1.4299,1.4299,1.4299,1.4299,1.4299,1.4299,1.4299,1.4299,1.4299,1.4299,1.4299,1.4299,1.4299,1.4299,1.4299,1.4299,1.4299,1.4299,1.4299,1.4299,1.4299,1.4299,1.4299,1.4299,1.4299,1.4299,1.4299,1.4299,1.4299,1.4299,1.4299,1.4299,1.4299,1.4299,1.4299,1.4299,1.4299,1.4299,1.4299,1.4299,1.4299,1.4299,1.4299,1.4299,1.4299,1.4299,1.4299,1.4299,1.4299,1.4299,1.4299,1.4299,1.4299,1.4299,1.4299,1.4299,1.4299,1.4299,1.4299,1.4299,1.4299,1.4299,1.4299,1.4299,1.4299,1.4299,1.4299,1.4299,1.4299,1.4299,1.4299,1.4299,1.4299,1.4299,1.4299,1.4299,1.4299,1.4299,1.4299,1.4299,1.4299,1.4299,1.4299,1.4299,1.4299,1.4299,1.4299,1.4299,1.4299,1.4299,1.4299,1.4299,1.4299,1.4299,1.4299,1.4299,1.4299,1.4299,1.4299,1.4299,1.4299,1.4299,1.4299,1.4299,1.4299,1.4299,1.4299,1.4299,1.4299,1.4299,1.4299,1.4299,1.4299,1.4299,1.4299,1.4299,1.4299,1.4299,1.4299,1.4299,1.4299,1.4299,1.4299,1.4299,1.4299,1.4299,1.4299,1.4299,1.4299,1.4299,1.4299,1.4299,1.4299,1.4299,1.4299,1.4299,1.4299,1.4299,1.4299,1.4299,1.4299,1.4299,1.4299,1.4299,1.4299,1.4299,1.4299,1.4299,1.4299,1.4299,1.4299,1.4299,1.4299,1.4299,1.4299,1.4299,1.4299,1.4299,1.4299,1.4299,1.4299,1.4299,1.4299,1.4299,1.4299,1.4299,1.4299,1.4299,1.4299,1.4299,1.4299,1.4299,1.4299,1.4299,1.4299,1.4299,1.4299,1.4299,1.4299,1.4299,1.4299,1.4299,1.4299,1.4299,1.4299,1.4299,1.4299,1.4299,1.4299,1.4299,1.4299,1.4299,1.4299,1.4299,1.4299,1.4299,1.4299,1.4299,1.4299,1.4299,1.4299,1.4299,1.4299,1.4299,1.4299,1.4299,1.4299,1.4299,1.4299,1.4299,1.4299,1.4299,1.4299,1.4299,1.4299,1.4299,1.4299,1.4299,1.4299,1.4299,1.4299,1.4299,1.4299,1.4299,1.4299,1.4299,1.4299,1.4299,1.4299,1.4299,1.4299,1.4299,1.4299,1.4299,1.4299,1.4299,1.4299,1.4299,1.4299,1.4299,1.4299,1.4299,1.4299,1.4299,1.4299,1.4299,1.4299,1.4299,1.4299,1.4299,1.4299,1.4299,1.4299,1.4299,1.4299,1.4299,1.4299,1.4299,1.4299,1.4299,1.4299,1.4299,1.4299,1.4299,1.4299,1.4299,1.4299,1.4299,1.4299,1.4299,1.4299,1.4299,1.4299,1.4299,1.4299,1.4299,1.4299,1.4299,1.4299,1.4299,1.4299,1.4299,1.4299,1.4299,1.4299,1.4299,1.4299,1.4299,1.4299,1.4299,1.4299,1.4299,1.4299,1.4299,1.4299,1.4299,1.4299,1.4299,1.4299,1.4299,1.4299,1.4299,1.4299,1.4299,1.4299,1.4299,1.4299,1.4299,1.4299,1.4299,1.4299,1.4299,1.4299,1.4299,1.4299,1.4299,1.4299,1.4299,1.4299,1.4299,1.4299,1.4299,1.4299,1.4299,1.4299,1.4299,1.4299,1.4299,1.4299,1.4299,1.4299,1.4299,1.4299,1.4299,1.4299,1.4299,1.4299,1.4299,1.4299,1.4299,1.4299,1.4299,1.4299,1.4299,1.4299,1.4299,1.4299,1.4299,1.4299,1.4299,1.4299,1.4299,1.4299,1.4299,1.4299,1.4299,1.4299,1.4299,1.4299,1.4299,1.4299,1.4299,1.4299,1.4299,1.4299,1.4299,1.4299,1.4299,1.4299,1.4299,1.4299,1.4299,1.4299,1.4299,1.4299,1.4299,1.4299,1.4299,1.4299,1.4299,1.4299,1.4299,1.4299,1.4299,1.4299,1.4299,1.4299,1.4299,1.4299,1.4299,1.4299,1.4299,1.4299,1.4299,1.4299,1.4299,1.4299,1.4299,1.4299,1.4299,1.4299,1.4299,1.4299,1.4299,1.4299,1.4299,1.4299,1.4299,1.4299,1.4299,1.4299,1.4299,1.4299,1.4299,1.4299,1.4299,1.4299,1.4299,1.4299,1.4299,1.4299,1.4299,1.4299,1.4299,1.4299,1.4299,1.4299,1.4299,1.4299,1.4299,1.4299,1.4299,1.4299,1.4299,1.4299,1.4299,1.4299,1.4299,1.4299,1.4299,1.4299,1.4299,1.4299,1.4299,1.4299,1.4299,1.4299,1.4299,1.4299,1.4299,1.4299,1.4299,1.4299,1.4299,1.4299,1.4299,1.4299,1.4299,1.4299,1.4299,1.4299,1.4299,1.4299,1.4299,1.4299,1.4299,1.4299,1.4299,1.4299,1.4299,1.4299,1.4299,1.4299,1.4299,1.4299,1.4299,1.4299,1.4299,1.4299,1.4299,1.4299,1.4299,1.4299,1.4299,1.4299,1.4299,1.4299,1.4299,1.4299,1.4299,1.4299,1.4299,1.4299,1.4299,1.4299,1.4299,1.4299,1.4299,1.4299,1.4299,1.4299,1.4299,1.4299,1.4299,1.4299,1.4299,1.4299,1.4299,1.4299,1.4299,1.4299,1.4299,1.4299,1.4299,1.4299,1.4299,1.4299,1.4299,1.4299,1.4299,1.4299,1.4299,1.4299,1.4299,1.4299,1.4299,1.4299,1.4299,1.4299,1.4299,1.4299,1.4299,1.4299,1.4299,1.4299,1.4299,1.4299,1.4299,1.4299,1.4299,1.4299,1.4299,1.4299,1.4299,1.4299,1.4299,1.4299,1.4299,1.4299,1.4299,1.4299,1.4299,1.4299,1.4299,1.4299,1.4299,1.4299,1.4299,1.4299,1.4299,1.4299,1.4299,1.4299,1.4299,1.4299,1.4299,1.4299,1.4299,1.4299,1.4299,1.4299,1.4299,1.4299,1.4299,1.4299,1.4299,1.4299,1.4299,1.4299,1.4299,1.4299,1.4299,1.4299,1.4299,1.4299,1.4299,1.4299,1.4299,1.4299,1.4299,1.4299,1.4299,1.4299,1.4299,1.4299,1.4299,1.4299,1.4299,1.4299,1.4299,1.4299,1.4299,1.4299,1.4299,1.4299,1.4299,1.4299,1.4299,1.4299,1.4299,1.4299,1.4299,1.4299,1.4299,1.4299,1.4299,1.4299,1.4299,1.4299,1.4299,1.4299,1.4299,1.4299,1.4299,1.4299,1.4299,1.4299,1.4299,1.4299,1.4299,1.4299,1.4299,1.4299,1.4299,1.4299,1.4299,1.4299,1.4299,1.4299,1.4299,1.4299,1.4299,1.4299,1.4299,1.4299,1.4299,1.4299,1.4299,1.4299,1.4299,1.4299,1.4299,1.4299,1.4299,1.4299,1.4299,1.4299,1.4299,1.4299,1.4299,1.4299,1.4299,1.4299,1.4299,1.4299,1.4299,1.4299,1.4299,1.4299,1.4299,1.4299,1.4299,1.4299,1.4299,1.4299,1.4299,1.4299,1.4299,1.4299,1.4299,1.4299,1.4299,1.4299,1.4299,1.4299,1.4299,1.4299,1.4299,1.4299,1.4299,1.4299,1.4299,1.4299,1.4299,1.4299,1.4299,1.4299,1.4299,1.4299,1.4299,1.4299,1.4299,1.4299,1.4299,1.4299,1.4299,1.4299,1.4299,1.4299,1.4299,1.4299,1.4299,1.4299,1.4299,1.4299,1.4299,1.4299,1.4299,1.4299,1.4299,1.4299,1.4299,1.4299,1.4299,1.4299,1.4299,1.4299,1.4299,1.4299,1.4299,1.4299,1.4299,1.4299,1.4299,1.4299,1.4299,1.4299,1.4299,1.4299,1.4299,1.4299,1.4299,1.4299,1.4299,1.4299,1.4299,1.4299,1.4299,1.4299,1.4299,1.4299,1.4299,1.4299,1.4299,1.4299,1.4299,1.4299,1.4299,1.4299,1.4299,1.4299,1.4299,1.4299,1.4299,1.4299,1.4299,1.4299,1.4299,1.4299,1.4299,1.4299,1.4299,1.4299,1.4299,1.4299,1.4299,1.4299,1.4299,1.4299,1.4299,1.4299,1.4299,1.4299,1.4299,1.4299,1.4299,1.4299,1.4299,1.4299,1.4299,1.4299,1.4299,1.4299,1.4299,1.4299,1.4299,1.4299,1.4299,1.4299,1.4299,1.4299,1.4299,1.4299,1.4299,1.4299,1.4299,1.4299,1.4299,1.4299,1.4299,1.4299,1.4299,1.4299,1.4299,1.4299,1.4299,1.4299,1.4299,1.4299,1.4299,1.4299,1.4299,1.4299,1.4299,1.4299,1.4299,1.4299,1.4299,1.4299,1.4299,1.4299,1.4299,1.4299,1.4299,1.4299,1.4299,1.4299,1.4299,1.4299,1.4299,1.4299,1.4299,1.4299,1.4299,1.4299,1.4299,1.4299,1.4299,1.4299,1.4299,1.4299,1.4299,1.4299,1.4299,1.4299,1.4299,1.4299,1.4299,1.4299,1.4299,1.4299,1.4299,1.4299,1.4299,1.4299,1.4299,1.4299,1.4299,1.4299,1.4299,1.4299,1.4299,1.4299,1.4299,1.4299,1.4299,1.4299,1.4299,1.4299,1.4299,1.4299,1.4299,1.4299,1.4299,1.4299,1.4299,1.4299,1.4299,1.4299,1.4299,1.4299,1.4299,1.4299,1.4299,1.4299,1.4299,1.4299,1.4299,1.4299,1.4299,1.4299,1.4299,1.4299,1.4299,1.4299,1.4299,1.4299,1.4299,1.4299,1.4299,1.4299,1.4299,1.4299,1.4299,1.4299,1.4299,1.4299,1.4299,1.4299,1.4299,1.4299,1.4299,1.4299,1.4299,1.4299,1.4299,1.4299,1.4299,1.4299,1.4299,1.4299,1.4299,1.4299,1.4299,1.4299,1.4299,1.4299,1.4299,1.4299,1.4299,1.4299,1.4299,1.4299,1.4299,1.4299,1.4299,1.4299,1.4299,1.4299,1.4299,1.4299,1.4299,1.4299,1.4299,1.4299,1.4299,1.4299,1.4299,1.4299,1.4299,1.4299,1.4299,1.4299,1.4299,1.4299,1.4299,1.4299,1.4299,1.4299,1.4299,1.4299,1.4299,1.4299,1.4299,1.4299,1.4299,1.4299]},{"header":{"parameterUnit":"m.s-1","parameterCategory":1,"la1":30.6,"la2":28.766,"lo1":-90.7593,"lo2":-88.6598,"dy":0.0162,"dx":0.0183,"nx":116,"ny":114,"refTime":"2023-09-27T00:00:00:Z","depth":0,"parameterNumber":3,"parameterNumberName":"V-component_of_WINDS"},"data":[0.0,0.0,0.0,0.0,0.0,0.0,0.0,0.0,0.0,0.0,0.0,0.0,0.0,0.0,0.0,0.0,0.0,0.0,0.0,0.0,0.0,0.0,0.0,0.0,0.0,0.0,0.0,0.0,0.0,0.0,0.0,0.0,0.0,0.0,0.0,0.0,0.0,0.0,0.0,0.0,0.0,0.0,0.0,0.0,0.0,0.0,0.0,0.0,0.0,0.0,0.0,0.0,0.0,0.0,0.0,0.0,0.0,0.0,0.0,0.0,0.0,0.0,0.0,0.0,0.0,0.0,0.0,0.0,0.0,0.0,0.0,0.0,0.0,0.0,0.0,0.0,0.0,0.0,0.0,0.0,0.0,0.0,0.0,0.0,0.0,0.0,0.0,0.0,0.0,0.0,0.0,0.0,0.0,0.0,0.0,0.0,0.0,0.0,0.0,0.0,0.0,0.0,0.0,0.0,0.0,0.0,0.0,0.0,0.0,0.0,0.0,0.0,0.0,0.0,0.0,0.0,0.0,0.0,0.0,0.0,0.0,0.0,0.0,0.0,0.0,0.0,0.0,0.0,0.0,0.0,0.0,0.0,0.0,0.0,0.0,0.0,0.0,0.0,0.0,0.0,0.0,0.0,0.0,0.0,0.0,0.0,0.0,0.0,0.0,0.0,0.0,0.0,0.0,0.0,0.0,0.0,0.0,0.0,0.0,0.0,0.0,0.0,0.0,0.0,0.0,0.0,0.0,0.0,0.0,0.0,0.0,0.0,0.0,0.0,0.0,0.0,0.0,0.0,0.0,0.0,0.0,0.0,0.0,0.0,0.0,0.0,0.0,0.0,0.0,0.0,0.0,0.0,0.0,0.0,0.0,0.0,0.0,0.0,0.0,0.0,0.0,0.0,0.0,0.0,0.0,0.0,0.0,0.0,0.0,0.0,0.0,0.0,0.0,0.0,0.0,0.0,0.0,0.0,0.0,0.0,0.0,0.0,0.0,0.0,0.0,0.0,0.0,0.0,0.0,0.0,0.0,0.0,0.0,0.0,0.0,0.0,0.0,0.0,0.0,0.0,0.0,0.0,0.0,0.0,0.0,0.0,0.0,0.0,0.0,0.0,0.0,0.0,0.0,0.0,0.0,0.0,0.0,0.0,0.0,0.0,0.0,0.0,0.0,0.0,0.0,0.0,0.0,0.0,0.0,0.0,0.0,0.0,0.0,0.0,0.0,0.0,0.0,0.0,0.0,0.0,0.0,0.0,0.0,0.0,0.0,0.0,0.0,0.0,0.0,0.0,0.0,0.0,0.0,0.0,0.0,0.0,0.0,0.0,0.0,0.0,0.0,0.0,0.0,0.0,0.0,0.0,0.0,0.0,0.0,0.0,0.0,0.0,0.0,0.0,0.0,0.0,0.0,0.0,0.0,0.0,0.0,0.0,0.0,0.0,0.0,0.0,0.0,0.0,0.0,0.0,0.0,0.0,0.0,0.0,0.0,0.0,0.0,0.0,0.0,0.0,0.0,0.0,0.0,0.0,0.0,0.0,0.0,0.0,0.0,0.0,0.0,0.0,0.0,0.0,0.0,0.0,0.0,0.0,0.0,0.0,0.0,0.0,0.0,0.0,0.0,0.0,0.0,0.0,0.0,0.0,0.0,0.0,0.0,0.0,0.0,0.0,0.0,0.0,0.0,0.0,0.0,0.0,0.0,0.0,0.0,0.0,0.0,0.0,0.0,0.0,0.0,0.0,0.0,0.0,0.0,0.0,0.0,0.0,0.0,0.0,0.0,0.0,0.0,0.0,0.0,0.0,0.0,0.0,0.0,0.0,0.0,0.0,0.0,0.0,0.0,0.0,0.0,0.0,0.0,0.0,0.0,0.0,0.0,0.0,0.0,0.0,0.0,0.0,0.0,0.0,0.0,0.0,0.0,0.0,0.0,0.0,0.0,0.0,0.0,0.0,0.0,0.0,0.0,0.0,0.0,0.0,0.0,0.0,0.0,0.0,0.0,0.0,0.0,0.0,0.0,0.0,0.0,0.0,0.0,0.0,0.0,0.0,0.0,0.0,0.0,0.0,0.0,0.0,0.0,0.0,0.0,0.0,0.0,0.0,0.0,0.0,0.0,0.0,0.0,0.0,0.0,0.0,0.0,0.0,0.0,0.0,0.0,0.0,0.0,0.0,0.0,0.0,0.0,0.0,0.0,0.0,0.0,0.0,0.0,0.0,0.0,0.0,0.0,0.0,0.0,0.0,0.0,0.0,0.0,0.0,0.0,0.0,0.0,0.0,0.0,0.0,0.0,0.0,0.0,0.0,0.0,0.0,0.0,0.0,0.0,0.0,0.0,0.0,0.0,0.0,0.0,0.0,0.0,0.0,0.0,0.0,0.0,0.0,0.0,0.0,0.0,0.0,0.0,0.0,0.0,0.0,0.0,0.0,0.0,0.0,0.0,0.0,0.0,0.0,0.0,0.0,0.0,0.0,0.0,0.0,0.0,0.0,0.0,0.0,0.0,0.0,0.0,0.0,0.0,0.0,0.0,0.0,0.0,0.0,0.0,0.0,0.0,0.0,0.0,0.0,0.0,0.0,0.0,0.0,0.0,0.0,0.0,0.0,0.0,0.0,0.0,0.0,0.0,0.0,0.0,0.0,0.0,0.0,0.0,0.0,0.0,0.0,0.0,0.0,0.0,0.0,0.0,0.0,0.0,0.0,0.0,0.0,0.0,0.0,0.0,0.0,0.0,0.0,0.0,0.0,0.0,0.0,0.0,0.0,0.0,0.0,0.0,0.0,0.0,0.0,0.0,0.0,0.0,0.0,0.0,0.0,0.0,0.0,0.0,0.0,0.0,0.0,0.0,0.0,0.0,0.0,0.0,0.0,0.0,0.0,0.0,0.0,0.0,0.0,0.0,0.0,0.0,0.0,0.0,0.0,0.0,0.0,0.0,0.0,0.0,0.0,0.0,0.0,0.0,0.0,0.0,0.0,0.0,0.0,0.0,0.0,0.0,0.0,0.0,0.0,0.0,0.0,0.0,0.0,0.0,0.0,0.0,0.0,0.0,0.0,0.0,0.0,0.0,0.0,0.0,0.0,0.0,0.0,0.0,0.0,0.0,0.0,0.0,0.0,0.0,0.0,0.0,0.0,0.0,0.0,0.0,0.0,0.0,0.0,0.0,0.0,0.0,0.0,0.0,0.0,0.0,0.0,0.0,0.0,0.0,0.0,0.0,0.0,0.0,0.0,0.0,0.0,0.0,0.0,0.0,0.0,0.0,0.0,0.0,0.0,0.0,0.0,0.0,0.0,0.0,0.0,0.0,0.0,0.0,0.0,0.0,0.0,0.0,0.0,0.0,0.0,0.0,0.0,0.0,0.0,0.0,0.0,0.0,0.0,0.0,0.0,0.0,0.0,0.0,0.0,0.0,0.0,0.0,0.0,0.0,0.0,0.0,0.0,0.0,0.0,0.0,0.0,0.0,0.0,0.0,0.0,0.0,0.0,0.0,0.0,0.0,0.0,0.0,0.0,0.0,0.0,0.0,0.0,0.0,0.0,0.0,0.0,0.0,0.0,0.0,0.0,0.0,0.0,0.0,0.0,0.0,0.0,0.0,0.0,0.0,0.0,0.0,0.0,0.0,0.0,0.0,0.0,0.0,0.0,0.0,0.0,0.0,0.0,0.0,0.0,0.0,0.0,0.0,0.0,0.0,0.0,0.0,0.0,0.0,0.0,0.0,0.0,0.0,0.0,0.0,0.0,0.0,0.0,0.0,0.0,0.0,0.0,0.0,0.0,0.0,0.0,0.0,0.0,0.0,0.0,0.0,0.0,0.0,0.0,0.0,0.0,0.0,0.0,0.0,0.0,0.0,0.0,0.0,0.0,0.0,0.0,0.0,0.0,0.0,0.0,0.0,0.0,0.0,0.0,0.0,0.0,0.0,0.0,0.0,0.0,0.0,0.0,0.0,0.0,0.0,0.0,0.0,0.0,0.0,0.0,0.0,0.0,0.0,0.0,0.0,0.0,0.0,0.0,0.0,0.0,0.0,0.0,0.0,0.0,0.0,0.0,0.0,0.0,0.0,0.0,0.0,0.0,0.0,0.0,0.0,0.0,0.0,0.0,0.0,0.0,0.0,0.0,0.0,0.0,0.0,0.0,0.0,0.0,0.0,0.0,0.0,0.0,0.0,0.0,0.0,0.0,0.0,0.0,0.0,0.0,0.0,0.0,0.0,0.0,0.0,0.0,0.0,0.0,0.0,0.0,0.0,0.0,0.0,0.0,0.0,0.0,0.0,0.0,0.0,0.0,0.0,0.0,0.0,0.0,0.0,0.0,0.0,0.0,0.0,0.0,0.0,0.0,0.0,0.0,0.0,0.0,0.0,0.0,0.0,0.0,0.0,0.0,0.0,0.0,0.0,0.0,0.0,0.0,0.0,0.0,0.0,0.0,0.0,0.0,0.0,0.0,0.0,0.0,0.0,0.0,0.0,0.0,0.0,0.0,0.0,0.0,0.0,0.0,0.0,0.0,0.0,0.0,0.0,0.0,0.0,0.0,0.0,0.0,0.0,0.0,0.0,0.0,0.0,0.0,0.0,0.0,0.0,0.0,0.0,0.0,0.0,0.0,0.0,0.0,0.0,0.0,0.0,0.0,0.0,0.0,0.0,0.0,0.0,0.0,0.0,0.0,0.0,0.0,0.0,0.0,0.0,0.0,0.0,0.0,0.0,0.0,0.0,0.0,0.0,0.0,0.0,0.0,0.0,0.0,0.0,0.0,0.0,0.0,0.0,0.0,0.0,0.0,0.0,0.0,0.0,0.0,0.0,0.0,0.0,0.0,0.0,0.0,0.0,0.0,0.0,0.0,0.0,0.0,0.0,0.0,0.0,0.0,0.0,0.0,0.0,0.0,0.0,0.0,0.0,0.0,0.0,0.0,0.0,0.0,0.0,0.0,0.0,0.0,0.0,0.0,0.0,0.0,0.0,0.0,0.0,0.0,0.0,0.0,0.0,0.0,0.0,0.0,0.0,0.0,0.0,0.0,0.0,0.0,0.0,0.0,0.0,0.0,0.0,0.0,0.0,0.0,0.0,0.0,0.0,0.0,0.0,0.0,0.0,0.0,0.0,0.0,0.0,0.0,0.0,0.0,0.0,0.0,0.0,0.0,0.0,0.0,0.0,0.0,0.0,0.0,0.0,0.0,0.0,0.0,0.0,0.0,0.0,0.0,0.0,0.0,0.0,0.0,0.0,0.0,0.0,0.0,0.0,0.0,0.0,0.0,0.0,0.0,0.0,0.0,0.0,0.0,0.0,0.0,0.0,0.0,0.0,0.0,0.0,0.0,0.0,0.0,0.0,0.0,0.0,0.0,0.0,0.0,0.0,0.0,0.0,0.0,0.0,0.0,0.0,0.0,0.0,0.0,0.0,0.0,0.0,0.0,0.0,0.0,0.0,0.0,0.0,0.0,0.0,0.0,0.0,0.0,0.0,0.0,0.0,0.0,0.0,0.0,0.0,0.0,0.0,0.0,0.0,0.0,0.0,0.0,0.0,0.0,0.0,0.0,0.0,0.0,0.0,0.0,0.0,0.0,0.0,0.0,0.0,0.0,0.0,0.0,0.0,0.0,0.0,0.0,0.0,0.0,0.0,0.0,0.0,0.0,0.0,0.0,0.0,0.0,0.0,0.0,0.0,0.0,0.0,0.0,0.0,0.0,0.0,0.0,0.0,0.0,0.0,0.0,0.0,0.0,0.0,0.0,0.0,0.0,0.0,0.0,0.0,0.0,0.0,0.0,0.0,0.0,0.0,0.0,0.0,0.0,0.0,0.0,0.0,0.0,0.0,0.0,0.0,0.0,0.0,0.0,0.0,0.0,0.0,0.0,0.0,0.0,0.0,0.0,0.0,0.0,0.0,0.0,0.0,0.0,0.0,0.0,0.0,0.0,0.0,0.0,0.0,0.0,0.0,0.0,0.0,0.0,0.0,0.0,0.0,0.0,0.0,0.0,0.0,0.0,0.0,0.0,0.0,0.0,0.0,0.0,0.0,0.0,0.0,0.0,0.0,0.0,0.0,0.0,0.0,0.0,0.0,0.0,0.0,0.0,0.0,0.0,0.0,0.0,3.4736,3.4084,0.0,0.0,0.0,0.0,0.0,0.0,0.0,0.0,0.0,0.0,0.0,0.0,0.0,0.0,0.0,0.0,0.0,0.0,0.0,0.0,0.0,0.0,0.0,0.0,0.0,0.0,0.0,0.0,0.0,0.0,0.0,0.0,0.0,0.0,0.0,0.0,0.0,2.543,2.5929,2.6401,2.6778,2.6204,2.5905,2.5772,0.0,0.0,0.0,0.0,0.0,0.0,0.0,0.0,0.0,0.0,0.0,0.0,0.0,0.0,0.0,0.0,0.0,0.0,0.0,0.0,0.0,0.0,0.0,0.0,0.0,0.0,0.0,0.0,0.0,0.0,0.0,0.0,0.0,0.0,0.0,0.0,0.0,0.0,0.0,0.0,0.0,0.0,0.0,0.0,0.0,0.0,0.0,0.0,0.0,0.0,0.0,0.0,0.0,0.0,0.0,0.0,0.0,0.0,0.0,0.0,0.0,0.0,0.0,0.0,0.0,0.0,0.0,0.0,0.0,0.0,3.7475,3.6653,0.0,0.0,0.0,0.0,0.0,0.0,0.0,0.0,0.0,0.0,0.0,0.0,0.0,0.0,0.0,0.0,0.0,0.0,0.0,0.0,0.0,0.0,0.0,2.4791,2.4813,2.4813,2.4712,2.4647,0.0,0.0,0.0,0.0,0.0,0.0,2.5179,2.6028,2.6464,2.6456,2.7403,2.7802,2.7769,2.7854,2.7812,2.7683,2.7294,0.0,0.0,0.0,0.0,0.0,0.0,0.0,0.0,0.0,0.0,0.0,0.0,0.0,0.0,0.0,0.0,0.0,0.0,0.0,0.0,0.0,0.0,0.0,0.0,0.0,0.0,0.0,0.0,0.0,0.0,0.0,0.0,0.0,0.0,0.0,0.0,0.0,0.0,0.0,0.0,0.0,0.0,0.0,0.0,0.0,0.0,0.0,0.0,0.0,0.0,0.0,0.0,0.0,0.0,0.0,0.0,0.0,0.0,0.0,0.0,0.0,0.0,0.0,3.9627,4.0151,4.0502,4.1168,4.157,4.1598,4.0173,3.9266,3.8818,3.9498,0.0,0.0,0.0,0.0,0.0,0.0,0.0,0.0,0.0,0.0,0.0,0.0,0.0,0.0,0.0,0.0,0.0,0.0,0.0,2.4885,2.4953,2.4986,2.4965,2.4965,2.4973,2.4895,2.4787,0.0,0.0,0.0,0.0,0.0,2.7106,2.7372,2.7517,2.7507,2.838,2.8798,2.8829,2.9507,2.9806,2.9642,2.7925,2.7131,2.7079,0.0,0.0,0.0,0.0,0.0,0.0,0.0,0.0,0.0,0.0,0.0,0.0,0.0,0.0,0.0,0.0,0.0,0.0,0.0,0.0,0.0,0.0,0.0,0.0,0.0,0.0,0.0,0.0,0.0,0.0,0.0,0.0,0.0,0.0,0.0,0.0,0.0,0.0,0.0,0.0,0.0,3.5621,3.5607,0.0,0.0,0.0,0.0,0.0,0.0,0.0,0.0,0.0,0.0,0.0,0.0,0.0,4.0437,4.0289,4.0398,4.0799,4.1492,4.1733,4.2589,4.3952,4.4124,4.4563,4.5196,4.4994,0.0,4.067,4.0809,0.0,0.0,0.0,0.0,0.0,0.0,0.0,0.0,0.0,0.0,0.0,0.0,0.0,0.0,0.0,0.0,0.0,0.0,0.0,0.0,0.0,2.5121,2.5127,2.5127,2.5062,2.5241,2.5656,2.5653,0.0,0.0,0.0,2.7229,2.7599,2.8176,2.895,2.9889,3.0286,3.0685,3.1127,3.1506,3.1631,3.1535,3.067,2.9677,2.8676,2.8612,0.0,0.0,0.0,0.0,0.0,0.0,0.0,0.0,0.0,0.0,0.0,0.0,0.0,0.0,0.0,0.0,0.0,0.0,0.0,0.0,0.0,0.0,0.0,0.0,0.0,0.0,0.0,0.0,0.0,0.0,0.0,0.0,0.0,0.0,0.0,0.0,0.0,0.0,0.0,3.6103,3.6353,3.631,3.711,3.7661,0.0,0.0,0.0,0.0,0.0,0.0,0.0,0.0,0.0,4.1201,4.241,4.3053,4.2981,4.3429,4.3832,4.4189,4.4234,4.4875,4.6012,4.6039,4.6498,4.7241,4.7241,4.6452,4.5022,4.4177,4.3782,4.3782,0.0,0.0,0.0,0.0,4.4571,4.4864,0.0,0.0,0.0,0.0,0.0,0.0,0.0,0.0,0.0,0.0,0.0,0.0,2.5209,2.5212,2.5212,2.5212,2.5387,2.5744,2.6393,2.6603,2.7065,2.7927,2.8004,2.8147,2.8357,2.9291,3.0396,3.1629,3.2055,3.2567,3.3168,3.3398,3.3457,3.3428,3.3428,3.2382,3.061,3.0528,3.046,3.0344,0.0,0.0,0.0,0.0,0.0,0.0,0.0,0.0,0.0,0.0,0.0,0.0,0.0,0.0,0.0,0.0,0.0,0.0,0.0,0.0,0.0,0.0,0.0,0.0,0.0,0.0,0.0,0.0,0.0,0.0,0.0,0.0,0.0,0.0,0.0,0.0,0.0,3.7488,3.7718,3.7668,3.8715,3.9451,0.0,0.0,0.0,0.0,0.0,0.0,4.21,4.2881,4.3297,4.3275,4.4634,4.5351,4.5324,4.6094,4.6617,4.6847,4.6847,4.7241,4.8039,4.8068,4.8418,4.8969,4.8998,4.8998,4.8859,4.7177,4.6507,4.6507,4.6507,4.6507,4.6507,4.6507,4.6526,4.6553,0.0,0.0,0.0,0.0,0.0,0.0,0.0,0.0,0.0,0.0,0.0,2.5236,2.5303,2.5306,2.5306,2.5306,2.6038,2.6518,2.6506,2.7284,2.8092,2.8878,2.9004,2.9376,3.0147,3.1103,3.1618,3.1695,3.3276,3.4083,3.4157,3.4997,3.5378,3.5374,3.5374,3.4302,3.2546,3.2476,3.2416,3.2349,3.2152,0.0,0.0,0.0,0.0,0.0,0.0,0.0,0.0,0.0,0.0,0.0,0.0,0.0,0.0,0.0,0.0,0.0,0.0,0.0,0.0,0.0,0.0,0.0,0.0,0.0,0.0,0.0,0.0,0.0,0.0,0.0,0.0,0.0,0.0,0.0,0.0,0.0,0.0,4.1326,4.1393,0.0,0.0,0.0,0.0,4.2656,4.3429,4.4178,4.4868,4.5646,4.6043,4.5926,4.6736,4.7123,4.6966,4.7783,4.86,4.9427,4.9344,4.9774,5.0618,5.0691,5.0741,5.0787,5.0894,5.0884,5.062,4.8895,4.8196,4.8196,4.8196,4.8196,4.8196,4.8196,4.8262,4.8366,0.0,0.0,0.0,0.0,0.0,0.0,0.0,0.0,2.5344,2.5344,2.5344,2.5358,2.5366,2.5346,2.5526,2.6105,2.6413,2.7061,2.8085,2.8475,2.901,2.9843,2.9938,3.0331,3.118,3.2038,3.3003,3.4157,3.4734,3.5584,3.6664,3.6969,3.7119,3.7119,3.7119,3.6748,3.6005,3.4255,3.3428,3.3291,3.2591,3.2241,0.0,0.0,0.0,0.0,0.0,0.0,0.0,0.0,0.0,0.0,0.0,0.0,0.0,0.0,0.0,0.0,0.0,0.0,0.0,0.0,0.0,0.0,0.0,0.0,0.0,0.0,0.0,0.0,0.0,0.0,0.0,0.0,0.0,0.0,0.0,0.0,0.0,4.1736,4.2692,0.0,4.3326,4.4267,4.5013,4.5274,4.5573,4.6117,4.6906,4.7653,4.8255,4.8799,4.9553,4.9898,4.9861,5.0676,5.1231,5.1527,5.2018,5.2731,5.3583,5.3548,5.3854,5.4363,5.444,5.444,5.4326,5.3694,5.2038,4.9921,4.9921,4.9924,4.9956,4.9956,5.0099,5.0269,0.0,0.0,0.0,0.0,0.0,0.0,0.0,0.0,2.5412,2.5441,2.54,2.5405,2.5398,2.5599,2.5967,2.6559,2.7134,2.7952,2.9054,2.9393,2.9968,3.0821,3.1148,3.1554,3.2083,3.3196,3.4349,3.55,3.635,3.7507,3.8857,3.9123,3.9431,3.9738,3.9738,3.9738,3.9581,3.7183,3.5778,3.506,3.4132,3.3629,3.3436,0.0,0.0,0.0,0.0,0.0,0.0,0.0,0.0,0.0,0.0,0.0,0.0,0.0,0.0,0.0,0.0,0.0,0.0,0.0,0.0,0.0,0.0,0.0,0.0,0.0,0.0,0.0,0.0,0.0,0.0,0.0,0.0,0.0,0.0,4.3297,4.3523,4.3748,4.4745,4.5529,4.5831,4.681,4.7676,4.8255,4.8293,4.864,4.9439,5.0158,5.0745,5.1236,5.228,5.2778,5.2715,5.3525,5.3935,5.3935,5.4466,5.4988,5.5556,5.5613,5.593,5.649,5.6556,5.6547,5.648,5.648,5.4984,5.2735,5.2655,5.2665,5.2735,5.2737,5.2882,5.3097,0.0,0.0,0.0,0.0,0.0,0.0,2.5614,2.5562,2.551,2.5485,2.5431,2.5423,2.5439,2.614,2.6633,2.6668,2.8245,2.9193,2.9253,3.0042,3.0925,3.1803,3.2631,3.3044,3.2971,3.4696,3.5615,3.5654,3.8123,3.9742,4.0593,4.147,4.2273,4.3085,4.3085,4.3085,4.3004,4.131,3.9554,3.7853,3.6854,3.6325,3.6056,0.0,0.0,0.0,0.0,0.0,0.0,0.0,0.0,0.0,0.0,0.0,0.0,0.0,0.0,0.0,0.0,0.0,0.0,0.0,0.0,0.0,0.0,0.0,0.0,0.0,0.0,0.0,0.0,0.0,0.0,0.0,0.0,0.0,4.5398,4.5894,4.666,4.7548,4.7662,4.8043,4.8919,4.8996,4.9719,5.137,5.1485,5.1801,5.2482,5.3265,5.3543,5.3231,5.4823,5.5555,5.5378,5.6163,5.6566,5.6566,5.6603,5.6603,5.6612,5.6823,5.6903,5.6911,5.7129,5.7066,5.6903,5.6903,5.6796,5.6585,5.6384,5.6323,5.6305,5.6403,5.6538,5.6785,0.0,0.0,0.0,0.0,0.0,0.0,2.5685,2.5612,2.5579,2.5559,2.5489,2.5657,2.6255,2.6487,2.7128,2.8389,2.8963,2.9539,3.0154,3.1037,3.1869,3.2692,3.4059,3.479,3.478,3.6444,3.7892,3.9127,3.9819,4.0935,4.2393,4.2624,4.2854,4.3085,4.3085,4.3085,4.3085,4.2573,4.2078,4.1332,3.8525,3.7351,3.7243,0.0,0.0,0.0,0.0,0.0,0.0,0.0,0.0,0.0,0.0,0.0,0.0,0.0,0.0,0.0,0.0,0.0,0.0,0.0,0.0,0.0,0.0,0.0,0.0,0.0,0.0,0.0,0.0,0.0,0.0,0.0,4.7198,4.7377,4.6378,4.6915,4.7778,4.8585,4.919,4.9916,5.0762,5.1373,5.2169,5.3276,5.3353,5.3989,5.5363,5.5614,5.5926,5.6418,5.6846,5.7021,5.6975,5.7771,5.818,5.818,5.8816,5.9119,5.9119,5.9159,5.9183,5.9183,5.9268,5.9222,5.9183,5.9183,5.9159,5.8911,5.7135,5.6519,5.6639,5.6667,5.6931,5.7322,0.0,0.0,0.0,0.0,0.0,0.0,2.5707,2.5682,2.5616,2.5597,2.5493,2.5776,2.6595,2.6978,2.7706,2.9103,2.9603,3.007,3.0624,3.1788,3.3007,3.4158,3.5411,3.6294,3.6617,3.8257,3.9572,4.0539,4.1251,4.2281,4.3585,4.3585,4.3816,4.4167,4.4167,4.4167,4.4128,4.3778,4.3573,4.3359,4.0969,3.9546,3.8762,3.8422,3.8009,3.7616,3.7552,3.7519,3.7523,3.7399,0.0,0.0,0.0,0.0,0.0,0.0,0.0,0.0,0.0,0.0,0.0,0.0,0.0,0.0,0.0,0.0,0.0,0.0,0.0,0.0,0.0,0.0,0.0,0.0,4.8394,4.8981,4.8393,4.8767,4.9524,5.0686,5.1563,5.2406,5.3255,5.406,5.4904,5.578,5.585,5.626,5.7232,5.7539,5.7908,5.8307,5.8648,5.8797,5.873,5.9181,5.9448,5.9448,5.9936,6.0196,6.0196,6.0232,6.0285,6.0285,6.0313,6.0275,6.0285,6.0285,6.0225,6.0044,0.0,0.0,0.0,0.0,5.8486,5.8775,0.0,0.0,0.0,0.0,0.0,0.0,2.5684,2.5704,2.5679,2.562,2.5567,2.5855,2.6778,2.7475,2.8332,2.9368,3.0168,3.0718,3.0981,3.2457,3.4066,3.5771,3.668,3.7555,3.848,3.9984,4.0864,4.1053,4.2514,4.3687,4.4457,4.4449,4.4868,4.5599,4.5594,4.5594,4.5556,4.4782,4.4436,4.4397,4.3662,4.2253,4.0543,3.9819,3.8955,3.8146,3.8142,3.8078,3.8009,3.7996,0.0,0.0,0.0,0.0,0.0,0.0,0.0,0.0,0.0,0.0,0.0,0.0,0.0,0.0,0.0,0.0,0.0,0.0,0.0,0.0,0.0,0.0,0.0,0.0,4.9856,5.1053,5.1246,5.1246,5.1823,5.3318,5.4241,5.5088,5.5895,5.6709,5.7517,5.8352,5.8434,5.8444,5.8508,5.9161,0.0,0.0,0.0,6.0486,6.0349,6.0349,6.0349,6.0349,6.0464,6.0502,6.0502,6.0723,6.0826,6.0826,6.0885,6.0878,6.0826,6.0826,6.0748,6.0603,6.0355,6.0327,6.0425,6.0585,6.0682,6.0833,0.0,0.0,0.0,0.0,0.0,0.0,2.5698,2.5689,2.5716,2.5663,2.5614,2.6137,2.7651,2.7983,2.8691,3.0286,3.0613,3.1356,3.279,3.3122,3.4347,3.6745,3.7616,3.8734,4.0263,4.1246,4.2438,4.3845,4.4112,4.4673,4.5519,4.5452,4.5534,4.5684,4.5612,4.5594,4.5594,4.5436,4.5359,4.5321,4.5167,4.4077,4.2552,4.2402,4.1779,4.0994,4.0965,4.0526,3.9929,3.9814,4.0361,4.1036,4.0989,4.1586,0.0,0.0,0.0,0.0,0.0,0.0,0.0,0.0,0.0,0.0,0.0,0.0,0.0,0.0,0.0,0.0,0.0,0.0,0.0,5.0168,5.1625,5.3203,5.4554,5.4747,5.4862,5.5164,5.6005,5.6852,5.7703,5.7934,5.8396,5.9204,5.9281,5.9583,6.0269,6.0462,6.0527,6.0503,6.0651,6.0722,6.071,6.071,6.071,6.071,6.1407,0.0,6.1753,6.2451,6.2758,6.2758,6.2771,6.2771,6.2758,6.2758,6.2752,6.265,6.1725,6.1809,6.2442,6.2579,6.2676,6.2695,0.0,0.0,0.0,0.0,0.0,0.0,2.57,2.5694,2.5685,2.5715,2.6035,2.6736,2.7994,2.8528,2.9272,3.0622,3.0791,3.1526,3.3298,3.3366,3.468,3.7674,3.8174,3.9384,4.1511,4.2327,4.3325,4.4667,4.5028,4.5409,4.5814,4.5735,4.5683,4.5697,4.5612,4.5594,4.5594,4.5594,4.5594,4.5594,4.5594,4.509,4.4282,4.3855,4.3162,4.2466,4.2407,4.2133,4.1779,4.1733,4.1989,4.2334,4.2308,4.2585,4.3029,0.0,0.0,0.0,0.0,0.0,0.0,0.0,0.0,0.0,0.0,0.0,0.0,0.0,0.0,4.7889,4.9163,0.0,5.0976,5.1818,5.3356,5.4741,5.5593,5.678,5.7434,5.7049,5.7736,5.8429,5.8858,5.9319,5.9704,6.0127,6.0165,6.0319,6.0787,6.0787,6.0787,6.0787,6.121,6.1441,6.1441,6.1858,6.205,6.205,6.2474,6.2704,6.2704,6.3121,6.3314,6.3314,6.3314,6.3314,6.3314,6.3314,6.3545,6.3885,6.3367,6.3136,6.3143,6.3245,6.3271,6.3232,0.0,0.0,0.0,0.0,0.0,0.0,0.0,2.5697,2.569,2.5686,2.6411,2.725,2.8093,2.8942,2.9805,3.0723,3.0792,3.1551,3.3276,3.339,3.4947,3.8378,3.8511,3.9699,4.2262,4.3055,4.3869,4.4759,4.554,4.5908,4.5867,4.5778,4.5743,4.5722,4.5633,4.5603,4.5594,4.5594,4.5594,4.5594,4.5594,4.5594,4.5518,4.4821,4.4047,4.3316,4.3316,4.3239,4.3085,4.3085,4.3201,4.3316,4.3316,4.3431,4.3701,4.4359,4.4551,0.0,0.0,0.0,0.0,0.0,0.0,0.0,0.0,4.712,4.7428,4.8394,4.8625,4.9125,5.0861,5.1323,5.1938,5.3433,5.4972,5.6055,5.6401,5.8204,5.9319,5.8858,5.9358,5.9742,5.9742,6.0396,6.0787,6.0787,6.0787,6.0787,6.0787,6.0979,6.1056,6.1056,6.1903,6.2326,6.2326,6.2974,6.3314,6.3314,6.3468,6.3545,6.3545,6.3737,6.3814,6.3814,6.3814,6.3814,6.3814,6.3814,6.4205,6.4859,6.4859,6.4512,6.4006,6.3852,6.3814,6.3814,0.0,0.0,0.0,0.0,0.0,0.0,0.0,0.0,2.5701,2.5699,2.6434,2.7282,2.8092,2.8952,2.9821,3.0734,3.0853,3.1598,3.3279,3.3394,3.4954,3.843,3.858,3.9782,4.2347,4.3154,4.3999,4.4883,4.5666,4.6056,4.6051,4.5944,4.5838,4.5808,4.573,4.5672,4.5594,4.5594,4.5594,4.5594,4.5594,4.5594,4.5594,4.5475,4.4936,4.4162,4.4162,4.3701,4.3085,4.3085,4.3585,4.4162,4.4162,4.4705,4.5321,4.5436,4.5436,4.5475,4.5556,4.5594,4.5782,4.6547,4.6735,4.6966,0.0,4.7966,4.8432,5.0053,5.0399,5.0938,5.2626,5.3549,5.4357,5.5285,5.6247,5.7363,5.8858,5.9319,5.9742,6.0441,6.0589,6.0666,6.0666,6.0748,6.0787,6.0787,6.0787,6.0787,6.0787,6.1518,6.1941,6.1941,6.2743,6.316,6.316,6.3275,6.3314,6.3314,6.4083,6.4436,6.4474,6.5243,6.559,6.559,6.559,6.559,6.559,6.559,6.5673,6.5743,6.5743,6.6134,6.6596,6.5859,6.559,6.559,0.0,0.0,0.0,0.0,0.0,0.0,0.0,0.0,2.5702,2.5702,2.6479,2.7334,2.8152,2.9481,3.0461,3.0818,3.0896,3.16,3.3281,3.3398,3.4725,3.7694,3.8317,3.9563,4.1592,4.248,4.3565,4.4968,4.5249,4.5643,4.6113,4.5963,4.5848,4.5817,4.5711,4.5676,4.5594,4.5594,4.5594,4.5594,4.5594,4.5594,4.5594,4.5594,4.5359,4.5051,4.5051,4.4821,0.0,4.4551,4.4782,4.5051,4.5051,4.5321,4.5594,4.5594,4.5594,4.5594,4.5594,4.5975,4.6432,4.6812,4.7235,4.7966,4.9317,4.963,5.0087,5.1818,5.2164,5.251,5.3741,5.4626,5.5478,5.6324,5.7594,5.8704,5.9396,5.9935,6.0396,6.0748,6.0787,6.0787,6.0787,6.0787,6.0787,6.0787,6.0787,6.1018,6.1518,6.1903,6.2326,6.2781,6.3628,6.4045,6.4045,6.4551,6.482,6.482,6.5166,6.5359,6.5359,6.575,6.5904,6.5942,6.6404,6.6596,6.6635,6.7167,6.7359,6.7359,6.7359,6.7552,6.7744,6.6898,6.6936,6.7359,0.0,0.0,0.0,0.0,0.0,0.0,0.0,0.0,0.0,0.0,2.6444,2.7419,2.8552,2.9998,3.0897,3.0898,3.0898,3.1601,3.3281,3.3398,3.457,3.7187,3.789,3.9022,4.0741,4.1635,4.2804,4.4288,4.4466,4.487,4.5423,4.5328,4.5334,4.5489,4.5407,4.547,4.5612,4.5599,4.5594,4.5594,4.5594,4.5594,4.5594,4.5594,4.5594,4.5594,4.5594,4.5594,4.5594,4.5594,4.5594,4.5594,4.5594,4.5594,4.5594,4.5594,4.5782,4.5975,4.5975,4.6586,4.7351,4.7817,4.8394,4.9279,5.1015,5.1399,5.1784,5.328,5.3549,5.3818,5.4664,5.5516,5.6324,5.7209,5.855,5.9588,5.9819,6.0396,6.0787,6.0787,6.0787,6.0787,6.0787,6.0787,6.0787,6.0787,6.1018,6.1441,6.2062,6.2557,6.3057,6.3622,6.4512,6.4974,6.4974,6.559,6.5904,6.5904,6.5904,6.5904,6.5904,6.6134,6.6359,6.6628,6.7205,6.7475,6.7513,6.8122,6.8391,6.8391,6.8391,6.8545,6.866,6.8052,6.8052,6.8391,0.0,0.0,0.0,0.0,0.0,0.0,0.0,0.0,0.0,0.0,0.0,0.0,0.0,3.0351,3.0898,3.0898,3.0898,3.1601,3.3281,3.3398,3.457,3.7187,3.7344,3.8164,3.9883,4.0781,4.1641,4.2461,4.3319,4.3741,4.3757,4.3706,4.4046,4.473,4.4597,4.4959,4.5697,4.5612,4.5594,4.5594,4.5594,4.5594,4.5594,4.5594,4.5594,4.5594,4.5594,4.5594,4.5594,4.5594,4.5594,4.5594,4.5594,4.5594,4.5594,4.5594,4.6201,4.6851,4.6851,4.7466,4.8471,5.0168,5.0592,5.1053,5.2741,5.3121,5.3395,5.428,5.4472,5.4703,5.5516,5.6362,5.7247,5.8127,5.8973,5.9819,6.0627,6.0787,6.0787,6.0787,6.0787,6.0787,6.0787,6.0787,6.0787,6.0787,6.1595,6.2056,6.2095,6.3628,6.4551,6.4551,6.5397,6.5865,6.5865,6.5897,6.5904,6.5904,6.5904,6.5904,6.5942,6.6712,6.7513,6.8314,6.8353,6.8353,6.8353,6.8391,6.8391,6.8391,6.8391,6.893,6.9667,6.9629,6.9084,6.8391,0.0,0.0,0.0,0.0,0.0,0.0,0.0,0.0,0.0,0.0,0.0,0.0,0.0,0.0,0.0,0.0,3.0898,3.1601,3.3281,3.3398,3.4297,3.6367,3.6992,3.7578,3.8164,3.9609,4.0742,4.1601,4.2421,4.3119,4.369,4.3647,4.3685,4.3873,4.4289,4.4634,4.4875,4.5377,4.5594,4.5594,4.5594,4.5594,4.5594,4.5594,4.5594,4.5594,0.0,4.5594,4.5594,4.5594,4.5594,4.5594,4.5594,4.5594,4.5706,4.6278,4.7043,4.7697,4.7697,4.874,4.9976,5.0553,5.1553,5.2664,5.3818,5.4049,5.4318,5.5131,5.5285,5.5555,5.6401,5.7286,5.8127,5.8973,5.9819,6.0473,6.0748,6.0787,6.0787,6.0787,6.0787,6.0787,6.0787,6.0787,6.1056,6.1633,6.1941,6.2595,6.3705,6.4282,6.4859,6.5436,6.5743,6.5904,6.5904,6.5904,6.5904,6.5904,6.6442,6.7013,6.759,6.7859,6.8122,6.843,6.9007,6.9244,6.9314,6.986,7.0052,7.0052,7.0052,7.0244,7.0514,7.0514,7.0321,7.0052,0.0,0.0,0.0,0.0,0.0,0.0,0.0,0.0,0.0,0.0,0.0,0.0,0.0,0.0,0.0,0.0,0.0,3.1599,3.328,3.3398,3.4179,3.5937,3.6523,3.6992,3.7305,3.8711,3.9844,4.0742,4.1562,4.2263,4.2763,4.2731,4.2827,4.3009,4.3448,4.3937,4.4453,4.4927,4.5321,4.5594,4.5594,4.5594,4.5594,4.5594,4.5594,0.0,4.5594,4.5594,4.5594,4.5594,4.5594,4.5594,4.5594,4.5821,4.624,4.7081,4.7928,4.8625,4.8933,5.0048,5.1279,5.19,5.2856,5.3895,5.4741,5.4934,5.5093,5.5593,5.5708,5.5978,5.6824,5.7703,5.855,5.9358,6.0242,6.0787,6.0787,6.0787,6.0787,6.0787,6.0787,6.0941,6.1248,6.1248,6.1518,6.2062,6.2633,6.348,6.4551,6.4897,6.532,6.5859,6.5904,6.5904,6.5904,6.6211,6.6474,6.6782,6.7321,6.8013,6.8853,6.8853,6.9007,6.9314,6.9898,7.0129,7.0167,7.0706,7.0898,7.0898,7.0898,7.1091,7.136,7.136,7.1552,7.1745,0.0,0.0,0.0,0.0,0.0,0.0,0.0,0.0,0.0,0.0,0.0,0.0,0.0,0.0,0.0,0.0,0.0,0.0,3.3308,3.3394,3.4178,3.5936,3.6015,3.6406,3.7226,3.8125,3.9023,3.9844,4.0742,4.1172,4.1091,4.1111,4.1504,4.2232,4.2074,4.2908,4.4414,4.4336,4.4821,4.5594,4.5594,4.5594,4.5594,4.5594,4.5594,4.5594,4.5594,4.5594,4.5594,4.5594,4.5594,4.5594,4.5667,4.624,4.712,4.7928,4.8817,4.9702,5.0553,5.1395,5.2428,5.4087,5.4511,5.4741,5.5516,5.5708,5.5708,5.5708,5.5747,5.6016,5.6901,5.778,5.8627,5.9435,6.0242,6.0787,6.0787,6.0787,6.0787,6.0787,6.0787,6.1133,6.2018,6.2133,6.2172,6.221,6.3705,6.4628,6.4666,6.5436,6.5904,6.5904,6.5936,6.5981,6.5981,6.675,6.759,6.8468,6.8468,6.893,6.9744,6.9744,7.0167,7.0898,7.0898,7.0898,7.0898,7.0898,7.0937,7.0975,7.0975,7.1514,7.229,7.229,7.2783,7.3276,0.0,0.0,0.0,0.0,0.0,0.0,0.0,0.0,0.0,0.0,0.0,0.0,0.0,0.0,0.0,0.0,0.0,0.0,3.3303,3.3392,3.4177,3.5936,3.6015,3.6094,3.6328,3.7812,3.8711,3.8945,4.0469,4.1172,4.1092,4.1081,4.1169,4.1338,4.1859,4.2622,4.3568,4.4129,4.4846,4.5594,4.5594,4.5594,4.5594,4.5594,4.5594,4.5594,4.5594,4.5594,4.5594,4.5594,4.5594,4.5706,4.6355,4.712,4.7966,4.8817,5.012,5.1313,5.1543,5.2697,5.3933,5.4395,5.4934,5.5439,5.567,5.5708,5.5708,5.5708,5.6209,5.694,5.7819,5.8627,5.9473,6.0319,6.0666,6.0787,6.0787,6.0787,6.0787,6.0787,6.0787,6.1133,6.2018,6.2627,6.3243,6.3897,6.4359,6.4897,6.5513,6.5788,6.5904,6.5904,6.6481,6.6789,6.6789,6.7628,6.8507,6.936,6.936,6.9821,7.0591,7.0591,7.0706,7.0898,7.0898,7.0898,7.0898,7.0898,7.1283,7.1867,7.1867,7.2399,7.3168,7.3168,7.3315,7.343,0.0,0.0,0.0,0.0,0.0,0.0,0.0,0.0,0.0,0.0,0.0,0.0,0.0,0.0,0.0,0.0,0.0,0.0,0.0,3.3132,3.3968,3.5382,3.5816,3.6014,3.6015,3.7343,3.8203,3.8594,3.9961,4.082,4.1132,4.1124,4.1064,4.1059,4.1427,4.1964,4.2721,4.3501,4.4277,0.0,0.0,4.5594,4.5594,4.5594,4.5594,4.5594,4.5594,4.5594,4.5594,4.5594,4.5594,4.5821,4.7048,4.7735,4.8428,5.0043,5.1159,5.2077,5.2813,5.378,5.4587,5.4934,5.5362,5.5708,5.5708,5.5708,5.5824,5.6209,5.667,5.7363,5.8588,5.9204,5.9781,6.0666,6.0787,6.0787,6.0787,6.0787,6.0787,6.0787,6.1133,6.171,6.2551,6.3397,6.4243,6.5089,6.5166,6.5397,6.5859,6.5904,6.6051,6.6404,6.6865,6.7481,6.8244,6.8744,6.9391,7.0244,7.0244,7.0475,7.0898,7.0898,7.0898,7.0898,7.0898,7.1129,7.1475,7.1475,7.1975,7.2783,7.2783,7.3283,7.4046,7.4046,7.4276,7.4584,0.0,0.0,0.0,0.0,0.0,0.0,0.0,0.0,0.0,0.0,0.0,0.0,0.0,0.0,0.0,0.0,0.0,0.0,0.0,0.0,3.3696,3.4654,3.5527,3.6006,3.5973,3.6833,3.7733,3.8593,3.9453,4.0312,4.1171,4.1123,4.1107,4.1083,4.0978,4.1326,4.2037,4.2794,4.3554,4.4397,4.5244,4.5594,4.5594,0.0,4.5594,4.5594,4.5594,4.5594,4.5594,4.5594,4.5667,4.6052,4.7625,4.8197,4.8735,5.1197,5.1962,5.2428,5.4049,5.4587,5.4818,5.5516,5.5708,5.5708,5.5708,5.5785,5.6093,5.6824,5.717,5.7786,5.9242,5.9588,5.9935,6.0671,6.0787,6.0787,6.0787,6.0787,6.0787,6.0787,6.1556,6.2403,6.3237,6.4083,6.4974,6.582,6.5904,6.5904,6.5904,6.6013,6.6481,6.7404,6.7443,6.8205,6.986,6.986,7.0206,7.0898,7.0898,7.0898,7.0898,7.0898,7.0975,7.1052,7.1052,7.1552,7.2367,7.2367,7.2899,7.3661,7.3661,7.4161,7.4853,7.4853,7.5361,7.6015,0.0,0.0,0.0,0.0,0.0,0.0,0.0,0.0,0.0,0.0,2.5514,2.6195,0.0,0.0,0.0,0.0,0.0,0.0,0.0,0.0,0.0,3.4581,3.5466,3.5908,3.5911,3.6816,3.7718,3.8501,3.9399,4.0258,4.1116,4.1104,4.1082,4.1001,4.0937,4.13,4.2051,4.2847,4.3616,4.4397,4.5244,4.5594,4.5594,4.5594,0.0,0.0,4.5594,4.5594,4.5594,4.5594,4.609,4.6851,4.7812,4.8586,4.9548,5.1351,5.2428,5.3197,5.4203,5.4972,5.5516,5.567,5.5708,5.5708,5.5708,5.6247,5.6824,5.6983,5.8094,5.9165,5.9435,6.0089,6.0633,6.0787,6.0787,6.0787,6.0787,6.0787,6.0787,6.0787,6.1556,6.2403,6.3237,6.4083,6.4974,6.582,6.5904,6.5904,6.5904,6.6519,6.7635,6.9206,6.9244,6.9706,7.0667,7.0706,7.0744,7.0898,7.0898,7.0898,7.0898,7.0898,7.1283,7.1982,7.1982,7.2476,7.3276,7.3276,7.3738,7.4507,7.4507,7.5007,7.5784,7.5784,7.5861,7.6015,0.0,0.0,0.0,0.0,0.0,0.0,0.0,2.5305,2.5305,2.5305,2.5707,2.6494,2.7778,2.7886,2.8579,0.0,0.0,0.0,0.0,0.0,0.0,3.3847,3.5158,3.5849,3.5916,3.6353,3.7181,3.8519,0.0,3.9768,4.1054,4.1042,4.1018,4.1016,4.0919,4.1055,4.1426,4.2658,4.3389,4.3778,4.509,4.5594,4.5594,4.5594,0.0,0.0,4.5594,4.5594,4.5667,4.6124,4.6817,4.7582,4.7966,4.8702,4.9817,5.1967,5.2851,5.3472,5.478,5.5401,5.5708,5.5708,5.5708,5.5708,5.5708,5.6362,5.7132,5.7594,5.8665,5.9627,6.0089,6.0512,6.0787,6.0787,6.0787,6.0787,6.0787,6.0787,6.0787,6.0787,6.1935,6.2897,6.3275,6.4512,6.5436,6.5859,6.6288,6.6519,6.6519,6.7744,6.8821,6.9667,7.0129,7.0514,7.0898,7.0898,7.0898,7.0898,7.0898,7.1129,7.1598,7.1598,7.2052,7.2899,7.2899,7.336,7.4123,7.4123,7.4623,7.5399,7.5399,7.563,7.6015,7.6015,7.6015,7.6015,0.0,0.0,0.0,0.0,0.0,0.0,0.0,2.5305,2.5382,2.5538,2.6156,2.7005,2.8047,2.8162,2.8775,0.0,0.0,0.0,0.0,0.0,0.0,0.0,0.0,0.0,3.5853,0.0,0.0,3.8196,3.8352,0.0,0.0,0.0,0.0,0.0,4.0905,4.0779,4.0788,4.2451,4.315,0.0,0.0,4.5594,4.5594,0.0,0.0,0.0,0.0,4.5594,4.5744,4.662,4.7428,4.812,4.8312,4.8971,5.0125,5.251,5.3197,5.3587,5.5241,5.5708,5.5708,5.5708,5.5708,5.5747,5.5939,5.6632,5.7517,5.8396,5.9204,5.9973,6.0671,6.0787,6.0787,6.0787,6.0787,6.0787,6.0787,6.0787,6.0864,6.1056,6.2397,6.3352,6.3545,6.4974,6.5981,6.6134,6.7096,6.7673,6.7673,6.8975,6.9783,6.9937,7.0552,7.0898,7.0898,7.0898,7.0898,7.0898,7.1091,7.1552,7.2213,7.2406,7.2937,7.3776,7.3776,7.4199,7.4976,7.4976,7.5399,7.6015,7.6015,7.6015,7.6015,7.6015,7.6015,7.6015,0.0,0.0,0.0,0.0,0.0,0.0,0.0,2.5305,2.5577,2.6387,2.6541,2.7198,2.8819,2.8973,2.9355,0.0,0.0,0.0,0.0,0.0,0.0,0.0,0.0,0.0,0.0,0.0,0.0,3.7138,3.787,0.0,0.0,0.0,0.0,0.0,0.0,4.0675,4.0714,4.2406,0.0,0.0,0.0,0.0,0.0,0.0,0.0,0.0,0.0,4.5594,4.5744,4.662,4.7428,4.8235,4.9048,4.9899,5.0938,5.2664,5.3197,5.3587,5.5241,5.5708,5.5708,5.5708,5.5708,5.5901,5.6709,5.7555,5.8396,5.9204,6.0089,6.0704,6.0787,6.0787,6.0787,6.0787,6.0787,6.0787,6.0787,6.0787,6.1095,6.1903,6.2743,6.3622,6.4397,6.532,6.6211,6.6942,6.8513,6.9475,6.9475,6.9629,7.0014,7.0783,7.086,7.0898,7.0898,7.0898,7.0898,7.0898,7.1713,7.2136,7.2213,7.3014,7.3815,7.4584,7.4584,7.5084,7.5861,7.5861,7.5938,7.6015,7.6015,7.6015,7.6015,7.6015,7.6015,7.6015,0.0,0.0,0.0,0.0,0.0,0.0,2.5305,2.5731,2.6195,2.6541,2.7467,2.8354,2.9011,2.9583,3.0003,3.0385,0.0,0.0,0.0,0.0,0.0,0.0,0.0,0.0,0.0,0.0,3.6074,3.6947,3.7791,0.0,0.0,0.0,0.0,0.0,0.0,4.0664,4.0706,4.2387,0.0,0.0,0.0,0.0,0.0,0.0,0.0,0.0,0.0,0.0,4.5821,4.7163,4.7851,4.8351,4.9745,5.0438,5.1015,5.2702,5.3197,5.3587,5.5241,5.5708,5.5708,5.5708,5.5708,5.5939,5.6786,5.7665,5.8544,5.9319,6.0204,6.0787,6.0787,6.0787,6.0787,6.0787,6.0787,6.0787,6.0787,6.1248,6.171,6.2062,6.3281,6.4205,6.4589,6.5397,6.6436,6.7782,6.9013,6.9898,7.0398,7.0437,7.0552,7.0898,7.0898,7.0898,7.0898,7.0898,7.1168,7.1675,7.2021,7.2745,7.3707,7.4046,7.4661,7.5476,7.5476,7.5668,7.6015,7.6015,7.6015,7.6015,7.6015,7.6015,7.6015,7.6015,7.6015,7.6015,0.0,0.0,0.0,0.0,0.0,2.5636,2.5636,2.6402,2.7058,2.7297,2.8368,2.9175,2.9417,2.9974,3.0346,3.0355,3.0373,0.0,0.0,0.0,0.0,0.0,0.0,0.0,0.0,0.0,3.5864,3.6509,3.7581,3.8431,0.0,0.0,4.0622,4.0633,0.0,0.0,0.0,0.0,0.0,0.0,0.0,0.0,0.0,0.0,0.0,0.0,0.0,0.0,0.0,0.0,0.0,4.8394,5.0168,5.0707,5.1015,5.2702,5.3197,5.3587,5.5241,5.5708,5.5708,5.5708,5.5901,5.6324,5.717,5.805,5.8896,5.9704,6.0358,6.0787,6.0787,6.0787,6.0787,6.0787,6.0787,6.0902,6.1133,6.171,6.2287,6.2787,6.3897,6.4705,6.4974,6.5974,6.7244,6.866,6.959,7.0283,7.086,7.0898,7.0898,7.0898,7.0898,7.0898,7.0898,7.1168,7.1591,7.2213,7.2706,7.3553,7.47,7.4976,7.5438,7.6015,7.6015,7.6015,7.6015,7.6015,7.6015,7.6015,7.6015,7.6015,7.6015,7.6015,7.6015,7.6015,0.0,0.0,0.0,0.0,0.0,0.0,2.6486,2.7239,2.808,2.8954,2.9042,2.934,3.0189,3.0241,3.0246,3.0289,3.0349,0.0,0.0,0.0,0.0,0.0,0.0,0.0,0.0,0.0,3.5503,3.5503,3.7199,3.8011,3.8049,3.9708,4.0516,4.0516,0.0,0.0,0.0,0.0,0.0,0.0,0.0,0.0,0.0,0.0,0.0,0.0,0.0,0.0,0.0,0.0,0.0,0.0,0.0,5.0707,5.1015,5.2702,5.3197,5.3587,5.5241,5.5708,5.5708,5.5708,5.6362,5.7209,5.8088,5.8896,5.9742,6.0594,6.0787,6.0787,6.0787,6.0787,6.0787,6.0787,6.0787,6.1095,6.1979,6.2095,6.271,6.4397,6.4589,6.4936,6.5782,6.7398,6.8737,6.9629,7.0437,7.0898,7.0898,7.0898,7.0898,7.0898,7.0898,7.0898,7.0898,7.1752,7.2175,7.2213,7.3899,7.4661,7.4738,7.5592,7.5976,7.6015,7.6015,7.6015,7.6015,7.6015,7.6015,7.6015,7.6015,7.6015,7.6015,7.6015,7.6015,7.6015,0.0,0.0,0.0,0.0,0.0,0.0,0.0,2.801,2.8648,2.8925,2.9458,2.9907,3.0122,3.0136,3.0126,3.0178,3.0202,0.0,0.0,0.0,0.0,0.0,0.0,0.0,0.0,0.0,3.5769,3.6308,3.7465,3.8315,3.8896,3.9977,4.0516,4.0516,4.0516,4.0516,0.0,0.0,0.0,0.0,0.0,0.0,4.5594,0.0,0.0,0.0,0.0,0.0,0.0,0.0,0.0,0.0,0.0,0.0,0.0,5.2851,5.3197,5.3587,5.5241,5.5708,5.5708,5.5708,5.6362,5.7247,5.8088,5.8934,5.9742,6.0633,6.0787,6.0787,6.0787,6.0787,6.0787,6.0787,6.1287,6.1787,6.2062,6.3095,6.4012,6.4551,6.5128,6.582,6.6635,6.7744,6.8776,6.9629,7.0437,7.0898,7.0898,7.0898,7.0898,7.0898,7.0898,7.1206,7.1783,7.2059,7.2783,7.3937,7.443,7.5007,7.5592,7.5861,7.6015,7.6015,7.6015,7.6015,7.6015,7.6015,7.6015,7.6015,7.6015,7.6015,7.6015,7.6015,7.6361,7.6899,0.0,0.0,0.0,0.0,0.0,0.0,0.0,2.8761,2.9273,2.9284,2.9722,3.0053,3.0015,2.9977,2.9965,3.0034,3.0042,0.0,0.0,0.0,0.0,0.0,0.0,0.0,0.0,3.55,3.5885,3.6696,3.7584,3.843,3.9319,4.0131,4.0516,4.0516,4.0516,4.0666,0.0,0.0,0.0,0.0,0.0,0.0,4.5594,0.0,0.0,0.0,0.0,0.0,0.0,0.0,0.0,0.0,0.0,0.0,0.0,0.0,5.3433,5.3972,5.5318,5.5708,5.5785,5.6093,5.6863,5.7703,5.855,5.9396,6.0127,6.071,6.0787,6.0787,6.0787,6.0787,6.0787,6.0787,6.1518,6.221,6.2518,6.3743,6.4705,6.5051,6.5551,6.6365,6.7475,6.8084,6.8891,7.0052,7.0629,7.0898,7.0898,7.0898,7.0898,7.0898,7.1206,7.1629,7.2175,7.2822,7.3668,7.47,7.5014,7.5476,7.6015,7.6015,7.6015,7.6015,7.6015,7.6015,0.0,7.6015,7.6015,7.6015,7.6015,7.6015,7.6053,7.6361,7.6823,7.733,0.0,0.0,0.0,0.0,0.0,0.0,0.0,2.9414,2.9872,2.9864,2.9834,2.9816,2.9855,2.9761,2.9731,2.9851,0.0,0.0,0.0,0.0,0.0,0.0,0.0,0.0,3.549,3.5528,3.5955,3.6808,3.7654,3.8546,3.9396,4.0169,4.0516,4.0516,4.0516,4.1012,0.0,0.0,0.0,0.0,0.0,0.0,0.0,0.0,0.0,0.0,0.0,0.0,0.0,0.0,0.0,0.0,0.0,0.0,0.0,0.0,0.0,0.0,0.0,5.5708,5.5901,5.6786,5.7671,5.8506,5.9319,6.0165,0.0,6.0787,6.0787,6.0787,6.0787,6.0787,6.0825,6.0864,6.1633,6.248,6.3275,6.4122,6.4974,6.5782,6.5942,6.6628,6.8237,6.8468,6.9161,7.0783,7.0898,7.0898,7.0898,7.0898,7.0937,7.0975,7.1822,7.229,7.229,7.3899,7.4738,7.4815,7.563,7.6015,7.6015,7.6015,7.6015,7.6015,7.6015,7.6015,7.6015,7.6015,7.6015,7.6015,7.6015,7.6053,7.6207,7.6984,7.7369,7.7599,0.0,0.0,0.0,0.0,0.0,0.0,0.0,0.0,0.0,0.0,2.9565,2.9579,2.9517,2.9527,2.9546,0.0,0.0,0.0,0.0,0.0,0.0,0.0,0.0,0.0,3.5331,3.5948,3.6711,3.7617,3.8497,3.9362,4.0208,4.04,4.0516,4.0516,4.0516,4.1358,0.0,0.0,0.0,0.0,0.0,0.0,0.0,0.0,0.0,0.0,4.5594,4.6552,0.0,0.0,0.0,0.0,0.0,0.0,0.0,0.0,5.4241,5.5478,5.567,0.0,5.5901,5.6786,5.7671,5.8506,0.0,6.0165,6.0787,6.0787,6.0787,6.0787,6.0787,6.0787,6.1018,6.1672,6.2474,6.332,6.4166,6.5051,6.5673,6.5859,6.6442,6.7244,6.8314,6.9007,6.9821,7.0821,7.0898,7.0898,7.0898,7.0898,7.1206,7.1867,7.2745,7.3199,7.3199,7.4199,7.5014,7.5707,7.5899,7.6015,7.6015,7.6015,7.6015,7.6015,7.6015,7.6015,7.6015,7.6015,7.6015,7.6015,7.6015,7.6399,7.7015,7.7215,7.8092,7.9246,0.0,0.0,0.0,0.0,0.0,0.0,0.0,0.0,0.0,0.0,0.0,0.0,0.0,0.0,0.0,0.0,0.0,0.0,0.0,0.0,0.0,0.0,0.0,3.5178,3.5261,3.6088,3.6949,3.7913,3.875,3.9657,4.0516,4.0516,4.0516,4.0516,4.1358,4.2435,0.0,0.0,0.0,0.0,4.5594,0.0,0.0,0.0,0.0,0.0,4.6052,4.7009,0.0,4.8548,4.9591,5.0745,0.0,0.0,0.0,0.0,5.4703,5.5708,5.5708,5.5978,5.6516,5.7401,5.8242,5.9088,5.9896,6.0473,6.0787,6.0787,6.0787,6.0787,6.0787,6.0787,6.1095,6.1941,6.2781,6.3737,6.5013,6.559,6.5904,6.5904,6.6596,6.7436,6.8314,6.9199,7.0014,7.0821,7.0898,7.0898,7.0898,7.0898,7.1283,7.2175,7.3053,7.3661,7.4046,7.4899,7.5515,7.6015,7.6015,7.6015,7.6015,7.6015,7.6015,7.6015,7.6015,7.6015,7.6015,7.6015,7.6245,7.6592,7.6592,7.7099,7.7907,7.8284,7.9015,7.9854,0.0,0.0,0.0,0.0,0.0,0.0,0.0,0.0,0.0,0.0,0.0,0.0,0.0,0.0,0.0,0.0,0.0,0.0,0.0,0.0,0.0,0.0,0.0,3.5101,3.531,3.6167,3.7087,3.8066,3.8957,3.9757,4.0504,4.0512,4.0554,4.0781,4.2508,4.3662,0.0,0.0,0.0,0.0,4.5594,0.0,0.0,0.0,0.0,0.0,0.0,0.0,0.0,4.9163,4.9976,5.0822,5.1659,0.0,0.0,0.0,0.0,0.0,5.5862,5.6516,5.7363,5.8127,5.8896,5.9742,6.0589,6.0787,6.0787,6.0787,6.0787,6.0787,6.0787,6.0902,6.1287,6.2133,6.3089,6.4205,6.5705,6.5904,6.5942,6.6058,6.6782,6.7628,6.8507,6.9398,7.0167,7.086,7.0898,7.0898,7.0898,7.1014,7.1514,7.2367,7.3245,7.4084,7.4892,7.563,7.6015,7.6015,7.6015,7.6015,7.6015,7.6015,7.6015,7.6015,7.6015,7.6015,7.6015,7.613,7.663,7.733,7.7445,7.7984,7.8792,7.9515,7.9892,8.0085,0.0,0.0,0.0,0.0,0.0,0.0,0.0,0.0,0.0,0.0,0.0,0.0,0.0,0.0,0.0,0.0,0.0,0.0,0.0,0.0,0.0,3.4209,3.447,3.5012,3.5864,3.673,3.7699,3.8759,3.9677,4.0258,4.0495,4.0496,4.0896,4.1658,4.3355,4.4162,4.4359,0.0,0.0,0.0,4.5594,0.0,0.0,0.0,0.0,0.0,0.0,0.0,0.0,4.9356,4.9976,5.0822,5.1659,0.0,0.0,0.0,0.0,0.0,5.6593,5.744,5.8127,5.828,5.8896,5.9742,6.0589,6.0787,6.0787,6.0787,6.0787,6.0787,6.0787,6.1402,6.2172,6.2974,6.4474,6.559,6.5865,6.5904,6.6134,6.6827,6.7667,6.8545,6.9436,7.0244,7.0783,7.0898,7.0898,7.0898,7.0898,7.1591,7.2399,7.3276,7.4084,7.4938,7.5784,7.5938,7.6015,7.6015,7.6015,7.6015,7.6015,7.6015,7.6015,7.6015,7.6015,7.6015,7.6053,7.6791,7.7176,7.7369,7.8061,7.8823,7.9631,7.9738,8.0285,8.0939,0.0,0.0,0.0,0.0,0.0,0.0,0.0,0.0,0.0,0.0,0.0,0.0,0.0,0.0,0.0,0.0,0.0,0.0,0.0,0.0,3.3992,3.4062,3.46,3.521,3.5932,3.6831,3.7824,3.8904,3.9841,4.0355,4.0521,4.0988,4.1893,4.3162,4.397,4.4551,4.5013,4.5436,0.0,0.0,0.0,0.0,0.0,0.0,0.0,0.0,0.0,0.0,0.0,0.0,5.0664,5.151,5.2351,0.0,0.0,0.0,0.0,0.0,5.6747,5.7627,5.839,5.8858,5.9588,6.0319,6.0704,6.0787,6.0787,6.0787,6.0787,6.0787,6.0787,6.1518,6.2518,6.382,6.5051,6.5904,6.5904,6.5904,6.6211,6.7019,6.7859,6.8737,6.9629,7.0437,7.0898,7.0898,7.0898,7.0898,7.0898,7.1745,7.2591,7.3469,7.4276,7.513,7.5976,7.6015,7.6015,7.6015,7.6015,7.6015,7.6015,7.6015,7.6015,7.6015,7.6015,7.6284,7.6746,7.7138,7.7823,7.8707,7.9054,7.9746,8.0516,8.0516,8.0746,8.1093,0.0,0.0,0.0,0.0,0.0,0.0,0.0,0.0,0.0,0.0,0.0,0.0,0.0,0.0,0.0,0.0,0.0,0.0,0.0,0.0,3.3914,3.4201,3.4827,3.5494,3.6088,3.7019,3.8034,3.9094,3.9871,4.0448,4.079,4.1886,4.3056,4.4303,4.4496,4.4966,4.5594,4.5594,4.5594,0.0,0.0,0.0,0.0,0.0,0.0,0.0,0.0,0.0,0.0,0.0,0.0,0.0,0.0,0.0,0.0,5.5478,5.5824,5.6209,5.7055,5.7934,5.8781,5.9588,6.0319,6.0787,6.0787,6.0787,6.0787,6.0787,6.0787,6.0864,6.1056,6.1979,6.3172,6.4666,6.5474,6.5904,6.5904,6.6051,6.6481,6.7321,6.8167,6.9045,6.9898,7.0552,7.0898,7.0898,7.0898,7.0975,7.1206,7.2014,7.2899,7.3738,7.4584,7.5322,7.5976,7.6015,7.6015,7.6015,7.6015,7.6015,7.6015,7.6015,7.6015,7.6015,7.6207,7.6669,7.733,7.7715,7.8631,7.9815,8.0015,8.0516,8.1093,8.1093,8.1093,8.1093,0.0,0.0,0.0,0.0,0.0,0.0,0.0,0.0,0.0,0.0,0.0,0.0,0.0,0.0,0.0,0.0,0.0,0.0,0.0,0.0,3.4201,3.5078,3.5151,3.5642,3.6632,3.7561,3.8607,3.9731,3.9992,4.0649,4.166,4.3276,4.4129,4.4332,4.5062,4.5473,4.5594,4.5594,4.5594,4.5594,0.0,0.0,0.0,0.0,0.0,0.0,0.0,0.0,0.0,0.0,0.0,0.0,0.0,0.0,5.4664,5.5478,5.6285,5.7093,5.7973,5.8819,5.9627,6.0473,6.0748,6.0787,6.0787,6.0787,6.0787,6.0787,6.0787,6.1056,6.1864,6.332,6.4705,6.5667,6.5865,6.5904,6.5904,6.6558,6.7321,6.8199,6.909,6.9937,7.0744,7.086,7.0898,7.0898,7.0898,7.1245,7.2059,7.2937,7.3776,7.4584,7.5438,7.5938,7.6015,7.6015,7.6015,7.6015,7.6015,7.6015,7.6015,7.6015,7.6015,7.6053,7.6868,7.7253,7.7407,7.8977,7.97,7.9892,8.0708,8.1054,8.1093,8.1093,8.1093,8.1093,0.0,0.0,0.0,0.0,0.0,0.0,0.0,0.0,0.0,0.0,0.0,0.0,0.0,0.0,0.0,0.0,0.0,0.0,0.0,3.4277,3.4688,3.5046,3.6082,3.6836,3.7306,3.7844,3.8633,3.9734,4.0568,4.1767,4.3271,4.3909,4.4508,4.5057,4.5365,4.5546,4.5594,4.5594,4.5594,4.5629,4.6201,0.0,0.0,0.0,0.0,0.0,0.0,0.0,0.0,0.0,5.262,5.3626,5.428,5.4857,5.5401,5.6247,5.6747,5.7286,5.8665,5.9281,5.9704,6.0589,6.0787,6.0787,6.0787,6.0787,6.0787,6.0787,6.1248,6.2018,6.3403,6.4166,6.4897,6.5743,6.5904,6.5904,6.5904,6.6596,6.7398,6.8314,6.9161,7.0014,7.0821,7.0898,7.0898,7.0898,7.0898,7.1283,7.2136,7.3014,7.3853,7.4661,7.5553,7.6015,7.6015,7.6015,7.6015,7.6015,7.6015,7.6015,7.6015,7.6015,7.6015,7.6053,7.6907,7.7599,7.8138,7.9323,8.0123,8.0631,8.0977,8.1093,8.1093,8.1093,8.1093,8.1093,0.0,0.0,0.0,0.0,0.0,0.0,0.0,0.0,0.0,0.0,0.0,0.0,0.0,0.0,0.0,0.0,0.0,0.0,3.4167,3.4674,3.5261,3.5782,3.6898,3.7662,3.8036,3.8518,3.9163,4.0055,4.1521,4.2875,4.4121,4.4432,4.4892,4.5457,4.5457,4.5532,4.5594,4.5594,4.5744,4.6052,4.6658,4.7043,0.0,0.0,0.0,0.0,0.0,0.0,0.0,0.0,5.351,5.4549,5.478,5.5247,5.5862,5.6747,5.717,5.7709,5.9127,5.9704,6.005,6.0666,6.0787,6.0787,6.0787,6.0787,6.0787,6.0787,6.171,6.2897,6.4359,6.482,6.5205,6.5782,6.5904,6.5981,6.625,6.6974,6.7821,6.8699,6.9552,7.0283,7.086,7.0898,7.0898,7.0898,7.1168,7.1706,7.2552,7.343,7.4238,7.5084,7.5707,7.6015,7.6015,7.6015,7.6015,7.6015,7.6015,7.6015,7.6015,7.6015,7.613,7.6476,7.733,7.8138,7.8977,7.9862,8.0554,8.1093,8.1093,8.1093,8.1093,8.1093,8.1093,8.1093,0.0,0.0,0.0,0.0,0.0,0.0,0.0,0.0,0.0,0.0,0.0,0.0,0.0,0.0,0.0,0.0,0.0,0.0,3.4961,3.5041,3.5745,3.7419,3.7492,3.7934,3.8788,3.9741,4.0409,4.0816,4.2803,4.3863,4.4045,4.4895,4.5339,4.5405,4.5405,4.5462,4.5594,4.5594,4.6129,4.6928,4.6928,4.7389,4.8197,0.0,0.0,0.0,0.0,0.0,0.0,0.0,5.4511,5.4664,5.5439,5.5708,5.5862,5.6747,5.7632,5.8506,5.9281,6.0127,6.0787,6.0787,6.0787,6.0787,6.0787,6.0787,6.0787,6.0825,6.2166,6.3583,6.4436,6.532,6.5904,6.5904,6.5904,6.6211,6.6981,6.7859,6.8737,6.959,7.0398,7.0898,7.0898,7.0898,7.0898,7.0898,7.1713,7.2591,7.343,7.4276,7.5091,7.5976,7.6015,7.6015,7.6015,7.6015,7.6015,7.6015,7.6015,7.6015,7.6015,7.6015,7.6476,7.7369,7.8176,7.9015,7.9854,8.0746,8.1093,8.1093,8.1093,8.1093,8.1093,8.1093,8.1093,8.1093,0.0,0.0,0.0,0.0,0.0,0.0,0.0,0.0,0.0,0.0,0.0,0.0,0.0,0.0,0.0,0.0,0.0,0.0,3.4961,3.6119,3.6971,3.7492,3.8036,3.8764,3.9613,4.1267,4.2301,4.2699,4.34,4.4112,4.4837,4.5104,4.5304,4.5405,4.5405,4.5802,4.6509,4.6509,4.7005,4.7812,4.8394,4.8817,4.9125,0.0,0.0,0.0,0.0,0.0,0.0,0.0,0.0,0.0,5.5631,5.6132,5.6786,5.7665,5.8511,5.9319,6.0165,6.0589,6.0787,6.0787,6.0787,6.0787,6.0787,6.0787,6.1127,6.232,6.3429,6.4474,6.5359,6.575,6.5904,6.5904,6.6365,6.6827,6.7058,6.8398,6.9391,6.9667,7.0398,7.0898,7.0898,7.0898,7.0898,7.0898,7.1713,7.2591,7.343,7.4276,7.5091,7.5976,7.6015,7.6015,7.6015,7.6015,7.6015,7.6015,7.6015,7.6015,7.6015,7.663,7.7061,7.7369,7.8784,7.9554,7.9854,8.0746,8.1093,8.1093,8.1093,8.1093,8.1093,8.1093,8.1093,8.1093,0.0,0.0,0.0,0.0,0.0,0.0,0.0,0.0,0.0,0.0,3.3513,3.3807,0.0,0.0,0.0,0.0,0.0,0.0,0.0,3.6934,3.7639,3.7962,3.877,3.9772,4.0993,4.2202,4.3161,4.3846,4.4065,4.4457,4.5091,4.5164,4.5277,4.5414,4.5779,4.6263,4.6928,4.7235,4.7851,4.8663,4.9202,4.9817,5.0433,0.0,0.0,0.0,0.0,0.0,0.0,0.0,0.0,0.0,5.6093,5.6593,5.7247,5.8434,5.9127,5.9704,6.0556,6.0787,6.0787,6.0787,6.0787,6.0902,6.1248,6.1325,6.1787,6.3468,6.4243,6.4859,6.5743,6.5904,6.5904,6.5904,6.6596,6.7212,6.7552,6.8821,6.9821,7.0129,7.0591,7.0898,7.0898,7.0898,7.1052,7.1398,7.2206,7.3091,7.393,7.4776,7.5476,7.5976,7.6015,7.6015,7.6015,7.6015,7.6015,7.6015,7.6361,7.6515,7.6515,7.7061,7.7676,7.8361,7.9746,8.0323,8.0362,8.09,8.1093,8.1093,8.1093,8.1093,8.1093,8.1093,8.1093,8.1093,0.0,0.0,0.0,0.0,0.0,0.0,0.0,0.0,0.0,0.0,3.3807,3.3844,0.0,0.0,0.0,0.0,0.0,0.0,0.0,0.0,3.7962,3.8762,3.9643,4.0914,4.2564,4.2725,4.3341,4.4383,4.4659,4.4827,4.492,4.5097,4.5289,4.5523,4.6334,4.6873,4.7197,4.7889,4.8779,4.9625,4.9625,5.0582,5.2,5.2,0.0,0.0,0.0,0.0,0.0,0.0,0.0,0.0,5.6747,5.7099,5.7517,5.905,5.955,5.9781,6.0589,6.0787,6.0787,6.0787,6.0864,6.1133,6.2018,6.2287,6.2749,6.4282,6.4666,6.4974,6.5743,6.5904,6.5904,6.6013,6.6712,6.7513,6.8391,6.9244,7.009,7.0821,7.0898,7.0898,7.0898,7.0898,7.1245,7.2136,7.3014,7.3853,7.4661,7.5515,7.6015,7.6015,7.6015,7.6015,7.6015,7.6015,7.6053,7.613,7.6907,7.7369,7.7515,7.7515,7.84,7.9969,8.0746,8.1093,8.1093,8.1093,8.1093,8.1093,8.1093,8.1093,8.1093,8.1093,8.1093,8.1093,0.0,0.0,0.0,0.0,0.0,0.0,0.0,0.0,0.0,0.0,0.0,0.0,0.0,0.0,0.0,0.0,0.0,0.0,0.0,0.0,3.8799,3.9614,4.1001,4.2047,4.2601,4.3265,4.389,4.4303,4.4475,4.4685,4.4914,4.501,4.5513,4.6355,4.6602,4.753,4.8856,4.9048,5.001,5.1351,5.1351,5.2005,5.2928,5.2928,5.3472,0.0,0.0,0.0,0.0,0.0,0.0,0.0,5.6945,5.7901,5.9011,5.9396,5.9973,6.0556,6.0748,6.0787,6.0787,6.0787,6.1325,6.2018,6.2858,6.3589,6.4166,6.4551,6.5128,6.5667,6.5865,6.5904,6.6096,6.675,6.7552,6.843,6.9314,7.0129,7.0706,7.0898,7.0898,7.0898,7.0898,7.0898,7.1245,7.2136,7.3014,7.3853,7.4661,7.5515,7.6015,7.6015,7.6015,7.6015,7.6015,7.6015,7.6322,7.7015,7.7215,7.7977,7.9246,7.9246,7.9823,8.0823,8.1016,8.1093,8.1093,8.1093,8.1093,8.1093,8.1093,8.1093,8.1093,8.1093,8.1093,8.1093,0.0,0.0,0.0,0.0,0.0,0.0,0.0,0.0,0.0,0.0,0.0,0.0,0.0,0.0,0.0,0.0,0.0,0.0,0.0,0.0,3.979,4.1009,4.1887,4.2619,4.3204,4.3738,4.4154,4.4433,4.4544,4.4685,4.4865,4.5413,4.6004,4.6623,4.7552,4.8476,4.9433,5.0279,5.1082,5.1923,5.2351,5.3044,5.3818,5.3818,5.4357,5.5049,5.5049,0.0,0.0,0.0,0.0,0.0,0.0,0.0,5.9588,6.0012,6.0435,6.0787,6.0787,6.0787,6.0902,6.1325,6.1749,6.2403,6.3622,6.4282,6.4705,6.5128,6.559,6.5904,6.5904,6.6211,6.6596,6.7019,6.8167,6.9161,6.9629,7.0398,7.0898,7.0898,7.0898,7.0898,7.0898,7.1283,7.186,7.2745,7.3584,7.443,7.5284,7.5745,7.6015,7.6015,7.6015,7.6015,7.6015,7.6399,7.6861,7.733,7.8092,7.9169,8.0439,8.0439,8.0669,8.1093,8.1093,8.1093,8.1093,8.1093,8.1093,8.1093,8.1093,8.1093,8.1093,8.1093,8.1093,8.1093,0.0,0.0,0.0,0.0,0.0,0.0,0.0,0.0,0.0,0.0,0.0,0.0,0.0,0.0,0.0,0.0,0.0,0.0,0.0,0.0,0.0,4.2274,4.2541,4.3049,4.3937,4.4071,4.4302,4.4632,4.4838,4.5004,4.5097,4.5995,4.6648,4.7103,4.8782,4.9658,4.9933,5.1467,5.2197,5.2428,5.3121,5.3933,5.4703,5.4703,5.5208,5.5939,5.5939,5.6478,5.7209,5.7209,0.0,0.0,0.0,0.0,5.9858,6.0589,6.0787,6.0787,6.0787,6.0787,6.1018,6.1864,6.221,6.271,6.4243,6.4705,6.5013,6.5743,6.5904,6.5904,6.5904,6.6558,6.7135,6.7282,6.8667,6.9744,6.9898,7.0475,7.0898,7.0898,7.0898,7.0898,7.0898,7.1675,7.2552,7.343,7.4238,7.5084,7.5938,7.6015,7.6015,7.6015,7.6015,7.6015,7.6015,7.6868,7.7369,7.7522,7.9208,8.04,8.1093,8.1093,8.1093,8.1093,8.1093,8.1093,8.1093,8.1093,8.1093,8.1093,8.1093,8.1093,8.1093,8.1093,8.1093,8.1093,0.0,0.0,0.0,0.0,0.0,0.0,0.0,0.0,0.0,0.0,3.6119,3.6457,0.0,0.0,0.0,0.0,0.0,0.0,3.9724,0.0,0.0,4.2366,4.3185,4.3754,4.4071,4.4199,4.4428,4.4783,4.5609,4.6101,4.6266,4.6364,4.7286,4.889,4.9954,5.085,5.162,5.262,5.3472,5.4164,5.428,5.4818,5.5555,5.5555,5.6093,5.6824,5.6824,5.7401,5.8127,5.8127,5.8665,0.0,0.0,0.0,6.0666,6.0787,6.0787,6.0787,6.0787,6.0787,6.1018,6.1864,6.2627,6.3391,6.4397,6.5166,6.5743,6.5859,6.5904,6.5904,6.5904,6.6558,6.7359,6.8084,6.9052,6.9937,7.0629,7.0821,7.0898,7.0898,7.0898,7.0898,7.0898,7.1675,7.2552,7.343,7.4238,7.5084,7.5938,7.6015,7.6015,7.6015,7.6015,7.6015,7.6015,7.6868,7.7638,7.8369,8.0092,8.0977,8.1093,8.1093,8.1093,8.1093,8.1093,8.1093,8.1093,8.1093,8.1093,8.1093,8.1093,8.1093,8.1093,8.1093,8.1093,8.1093,0.0,0.0,0.0,0.0,0.0,0.0,0.0,0.0,0.0,0.0,0.0,3.7265,0.0,0.0,0.0,3.935,4.012,4.0744,4.123,4.1919,4.2548,4.3036,4.3574,4.3984,4.4206,4.4906,4.5394,4.5691,4.6656,4.7477,4.8074,4.8552,4.9191,5.0026,5.0917,5.1793,5.2697,5.3549,5.4164,5.4549,5.4972,5.5401,5.5747,5.6247,5.667,5.706,5.7555,5.8242,5.8973,5.8973,5.9511,6.0242,6.0242,0.0,0.0,0.0,6.0787,6.0787,6.0787,6.1172,6.1749,6.2551,6.3397,6.4275,6.5128,6.5628,6.5904,6.5904,6.625,6.6558,6.6558,6.7244,6.8129,6.9007,6.9821,7.0514,7.086,7.0898,7.0898,7.0898,7.0898,7.0898,7.0898,7.2129,7.3091,7.3469,7.4707,7.5592,7.5976,7.6015,7.6015,7.6015,7.6015,7.6245,7.6707,7.7561,7.8638,7.9977,8.0746,8.1093,8.1093,8.1093,8.1093,8.1093,8.1093,8.1093,8.1093,8.1093,8.1093,8.1093,8.1093,8.1093,8.1093,8.1093,8.1093,8.1093,0.0,0.0,0.0,0.0,0.0,0.0,0.0,0.0,0.0,0.0,0.0,0.0,0.0,0.0,0.0,0.0,4.092,4.1764,4.2543,4.2616,4.2924,4.3614,4.3832,4.4175,4.4672,4.5575,4.6301,4.6778,4.7771,4.8757,4.9648,5.0537,5.1152,5.1618,5.2259,5.2928,5.3587,5.4434,5.4939,5.5208,5.5785,5.617,5.6434,5.7093,5.7478,5.7709,5.8357,5.9127,5.9819,5.9819,6.0242,6.0787,6.0787,6.0787,0.0,0.0,0.0,6.0864,6.1056,6.1595,6.2364,6.3358,6.4122,6.482,6.5705,6.5904,6.5904,6.5904,6.6558,6.7173,6.7398,6.8129,6.893,6.959,7.0398,7.0898,7.0898,7.0898,7.0898,7.0898,7.0898,7.0898,7.0898,7.2476,7.3507,7.3507,7.5053,7.6015,7.6015,7.6015,7.6015,7.6015,7.6015,7.6399,7.7292,7.833,7.9592,8.1093,8.1093,8.1093,8.1093,8.1093,8.1093,8.1093,8.1093,8.1093,8.1093,8.1093,8.1093,8.1093,8.1093,8.1093,8.1093,8.1093,8.1093,8.1093,0.0,0.0,0.0,0.0,0.0,0.0,0.0,0.0,0.0,0.0,0.0,0.0,4.0883,4.1022,4.103,4.103,4.1764,4.258,4.3396,4.3433,4.3546,4.3788,4.3921,0.0,4.5704,4.6026,4.6742,4.7809,4.8767,4.973,5.0625,5.1467,5.2692,5.4318,5.4357,5.4395,5.4472,5.5285,5.6093,5.6863,5.6907,5.744,5.8165,5.8204,5.8704,5.9396,5.9435,6.0012,6.0748,6.0748,6.0748,6.0787,6.0787,6.0787,6.0787,0.0,0.0,0.0,6.1826,6.2062,6.248,6.4128,6.4589,6.482,6.5705,6.5904,6.5904,6.5904,6.6558,6.7359,6.816,6.9045,6.9667,6.9706,7.0398,7.0898,7.0898,7.0898,7.0898,7.0898,7.0898,7.0898,7.0898,7.2476,7.3507,7.3507,7.5053,7.6015,7.6015,7.6015,7.6015,7.6015,7.6015,7.6399,7.7292,7.8938,8.0208,8.1093,8.1093,8.1093,8.1093,8.1093,8.1093,8.1093,8.1093,8.1093,8.1093,8.1093,8.1093,8.1093,8.1093,8.1093,8.1093,8.1093,8.1093,8.1093,0.0,0.0,0.0,0.0,0.0,0.0,0.0,0.0,0.0,0.0,0.0,0.0,0.0,4.1544,4.1874,4.1874,4.2616,4.3176,4.3469,4.3549,4.3634,4.3796,4.4538,4.5267,4.5861,4.7201,4.8218,4.8715,5.0238,5.1144,5.1505,5.2895,5.3895,5.4511,5.4511,5.478,5.5324,5.617,5.6709,5.706,5.7594,5.8011,5.8352,5.8852,5.9242,5.9588,6.0127,6.055,6.0787,6.0787,6.0787,6.0787,6.0787,6.0787,6.0787,6.0787,6.121,6.171,6.2018,6.2903,6.3858,6.4436,6.5013,6.5513,6.582,6.5904,6.6058,6.6558,6.7321,6.8205,6.9084,6.9475,6.986,7.0398,7.0706,7.0898,7.0898,7.0898,7.0898,7.0898,7.0898,7.0898,7.0898,7.2476,7.3507,7.3507,7.5053,7.6015,7.6015,7.6015,7.6015,7.6015,7.6015,7.6669,7.8061,7.9785,8.0785,8.1093,8.1093,8.1093,8.1093,8.1093,8.1093,8.1093,8.1093,8.1093,8.1093,8.1093,8.1093,8.1093,8.1093,8.1093,8.1093,8.1093,8.1093,8.1093,0.0,0.0,0.0,0.0,0.0,0.0,0.0,0.0,0.0,4.147,0.0,0.0,0.0,0.0,4.2698,4.2724,4.3306,4.3753,4.4019,4.4086,4.4334,4.4761,4.5536,4.6245,4.6806,4.8218,4.9323,5.005,5.1301,5.2197,5.2813,5.3972,5.478,5.5324,5.5324,5.5631,5.6209,5.7055,5.7594,5.7901,5.8473,5.8896,5.9204,5.9742,5.9935,6.0012,6.0589,6.0787,6.0787,6.0787,6.0787,6.0787,6.0787,6.0787,6.0864,6.1133,6.1633,6.221,6.2787,6.3743,6.4666,6.4974,6.5474,6.5904,6.5904,6.6096,6.6442,6.6981,6.8013,6.9007,6.959,6.9937,7.0283,7.0821,7.0898,7.0898,7.0898,7.0898,7.0898,7.0898,7.0898,7.0898,7.0898,7.2476,7.3507,7.3507,7.5053,7.6015,7.6015,7.6015,7.613,7.6438,7.6707,7.7515,7.89,8.0362,8.1093,8.1093,8.1093,8.1093,8.1093,8.1093,8.1093,8.1093,8.1093,8.1093,8.1093,8.1093,8.1093,8.1093,8.1093,8.1093,8.1093,8.1093,8.1093,8.1093,0.0,0.0,0.0,0.0,0.0,0.0,0.0,0.0,4.1434,4.2249,0.0,0.0,0.0,0.0,0.0,4.3662,4.3837,4.4321,4.5086,4.5225,4.568,4.668,4.6885,4.7493,4.8617,4.8961,5.0024,5.1858,5.1916,5.2851,5.4511,5.4549,5.5439,5.6983,5.706,5.706,5.7132,5.7973,5.8781,5.9511,5.9511,6.005,6.0787,6.0787,6.0787,6.0787,6.0787,6.0787,6.0787,6.0787,6.0787,6.0787,6.0787,6.0825,6.1018,6.1864,6.2133,6.2518,0.0,0.0,0.0,6.5705,6.5904,6.5904,6.5942,6.6558,6.7096,6.7173,6.8513,6.9706,6.9744,7.036,7.0898,7.0898,7.0898,7.0898,7.0898,7.0898,7.0898,7.0898,7.0898,7.0898,7.0898,7.2476,7.3507,7.3507,7.5053,7.6015,7.6015,7.6015,7.6399,7.7292,7.8099,7.89,7.9777,8.0669,8.1093,8.1093,8.1093,8.1093,8.1093,8.1093,8.1093,8.1093,8.1093,8.1093,8.1093,8.1093,8.1093,8.1093,8.1093,8.1093,8.1093,8.1093,8.1093,8.1093,0.0,0.0,0.0,0.0,0.0,0.0,4.1984,4.247,4.2936,0.0,0.0,0.0,4.3738,4.4367,4.4781,4.4878,4.5491,4.5956,4.6259,4.6352,4.6555,4.6832,4.8314,4.9294,4.9683,5.1153,5.2187,5.2757,5.3441,5.4049,5.4511,5.5747,5.6555,5.706,5.8286,5.8819,5.8819,5.9088,5.9319,5.955,6.0204,6.0589,6.0787,6.0787,6.0787,6.0787,6.0787,6.0787,6.0787,6.0787,6.0787,6.0787,6.0787,6.1248,6.1787,6.2018,6.298,6.4012,6.4474,0.0,0.0,0.0,0.0,0.0,6.6635,6.6942,6.7481,6.8706,6.936,6.9898,7.0475,7.0744,7.0898,7.0898,7.0898,7.0898,7.0898,7.0898,7.0898,7.0898,7.0898,7.0898,7.0898,7.2476,7.3507,7.3507,7.5053,7.6015,7.6015,7.6015,7.6399,7.7292,7.8099,7.89,7.9777,8.0669,8.1093,8.1093,8.1093,8.1093,8.1093,8.1093,8.1093,8.1093,8.1093,8.1093,8.1093,8.1093,8.1093,8.1093,8.1093,8.1093,8.1093,8.1093,8.1093,8.1093,0.0,0.0,0.0,0.0,0.0,4.2817,4.2842,4.3255,4.36,0.0,0.0,0.0,4.5029,4.5556,4.5947,4.6008,4.6585,4.7243,4.7986,4.8166,4.8565,4.9274,5.0494,5.1211,5.1272,5.2449,5.3245,5.3629,5.4566,5.5208,5.5555,5.6901,5.7709,5.8094,5.905,5.9704,6.005,6.005,6.005,6.0089,6.0589,6.0787,6.0787,6.0787,6.0787,6.0787,6.0787,6.0787,6.0864,6.121,6.155,6.1858,6.1858,6.2204,6.2666,6.3057,6.382,6.4666,6.5051,6.5513,6.5904,6.5904,0.0,0.0,6.6904,6.7366,6.8013,6.9436,6.9975,7.036,7.0821,7.0898,7.0898,7.0898,7.0898,7.0898,7.0898,7.0898,7.0898,7.0898,7.0898,7.0898,7.0898,7.2476,7.3507,7.3507,7.5053,7.6015,7.6015,7.6015,7.6553,7.7753,7.8253,7.91,8.0323,8.0862,8.1093,8.1093,8.1093,8.1093,8.1093,8.1093,8.1093,8.1093,8.1093,8.1093,8.1093,8.1093,8.1093,8.1093,8.1093,8.1093,8.1093,8.1093,8.1093,8.1093,0.0,0.0,4.3515,4.3515,4.3614,4.3685,4.3753,4.3852,4.4009,0.0,4.4933,4.5826,4.681,4.7116,4.7285,4.7412,4.776,4.8624,5.0111,5.0349,5.109,5.2666,5.2899,5.2998,5.3089,5.3388,5.3909,5.4677,5.5572,5.6401,5.717,5.8011,5.8813,5.9511,5.9588,6.0089,6.0787,6.0787,6.0787,6.0787,6.0787,6.0787,6.0787,6.0787,6.0787,6.0825,6.0902,6.0941,6.1095,6.1941,6.2704,6.3314,6.3314,6.3352,6.3583,6.4352,6.4666,6.4897,6.5705,6.5904,6.5904,6.5904,6.5981,0.0,6.7058,6.7936,6.8776,6.9667,7.0398,7.0898,7.0898,7.0898,7.0898,7.0898,7.0898,7.0898,7.0898,7.0898,7.0898,7.0898,7.0898,7.0898,7.0898,7.2399,7.3392,7.3507,7.5053,7.6015,7.6015,7.6015,7.6784,7.8446,7.8484,7.9331,8.1093,8.1093,8.1093,8.1093,8.1093,8.1093,8.1093,8.1093,8.1093,8.1093,8.1093,8.1093,8.1093,8.1093,8.1093,8.1093,8.1093,8.1093,8.1093,8.1093,8.1093,8.1093,0.0,4.3558,4.3592,4.3592,4.4251,4.4774,4.4827,4.5506,4.6068,4.6195,4.6669,4.7297,4.8138,4.8978,4.9772,5.0558,5.1237,5.1815,5.2221,5.2326,5.2521,5.2839,5.3639,5.409,5.4095,5.5511,5.6313,5.6505,5.7352,5.7896,5.805,5.8896,5.9358,5.9511,6.0242,6.0627,6.0787,6.0787,6.0787,6.0787,6.0787,6.0787,6.0787,6.0787,6.0787,6.0902,6.1595,6.1864,6.1979,6.2781,6.316,6.3314,6.3314,6.3775,6.4397,6.4551,6.5089,6.5667,6.5865,6.5904,6.5904,6.5904,6.6404,0.0,6.7936,6.8814,6.9667,7.0514,7.0783,7.0898,7.0898,7.0898,7.0898,7.0898,7.0898,7.0898,7.0898,7.0898,7.0898,7.0898,7.0898,7.0898,7.0898,7.1822,7.2745,7.343,7.5053,7.6015,7.6015,7.6015,7.6784,7.8446,7.8484,7.9331,8.1093,8.1093,8.1093,8.1093,8.1093,8.1093,8.1093,8.1093,8.1093,8.1093,8.1093,8.1093,8.1093,8.1093,8.1093,8.1093,8.1093,8.1093,8.1093,8.1093,8.1093,8.1093,4.4247,4.4354,4.4543,4.5008,4.5514,4.5879,4.5976,4.6442,4.699,4.7606,4.8731,4.9752,5.0583,5.1166,5.1691,5.2141,5.2615,5.3083,5.3577,5.4056,5.4506,5.4934,5.583,5.6357,5.6357,5.7192,5.7665,5.7665,5.8473,5.8896,5.8934,5.9742,6.0165,6.0165,6.0594,6.0787,6.0825,6.1248,6.1441,6.1402,6.0979,6.1056,6.1441,6.1441,6.171,6.2089,6.2551,6.2974,6.3403,6.3814,6.4243,6.4589,6.4589,6.4897,6.5243,6.5243,6.5551,6.5904,6.5904,6.6211,6.6519,6.6519,6.7128,0.0,0.0,6.9398,6.9937,7.0744,7.0898,7.0898,7.0898,7.0898,7.0898,7.0898,7.0898,7.0898,7.0898,7.0898,7.0898,7.0898,7.0898,7.0898,7.0898,7.1675,7.2745,7.4007,7.5284,7.6015,7.6015,7.6015,7.6784,7.8446,7.8484,7.9331,8.1093,8.1093,8.1093,8.1093,8.1093,8.1093,8.1093,8.1093,8.1093,8.1093,8.1093,8.1093,8.1093,8.1093,8.1093,8.1093,8.1093,8.1093,8.1093,8.1093,8.1093,8.1093,4.5388,4.5515,4.5756,4.6543,4.6987,4.729,4.7452,4.7787,4.8373,4.9315,5.0804,5.2147,5.2998,5.3165,5.3347,5.366,5.3783,5.4221,5.5105,5.5797,5.6516,5.7209,5.7934,5.8313,5.8313,5.8467,5.8544,5.8544,5.9358,5.9742,5.9781,6.0473,6.0787,6.0787,6.0787,6.0902,6.1095,6.1787,6.2172,6.2287,6.155,6.171,6.2326,6.2326,6.2743,6.3314,6.3506,6.4128,6.4859,6.4859,6.532,6.5904,6.5904,6.5904,6.5904,6.5904,6.6019,6.6134,6.6134,6.6744,6.7359,6.7359,6.8013,6.8814,0.0,0.0,0.0,7.0783,7.0898,7.0898,7.0898,7.0898,7.0898,7.0898,7.0898,7.0898,7.0898,7.0898,7.0898,7.0898,7.0898,7.0898,7.0898,7.1822,7.3014,7.4353,7.5438,7.6015,7.6015,7.6015,7.6784,7.8446,7.8484,7.9331,8.1093,8.1093,8.1093,8.1093,8.1093,8.1093,8.1093,8.1093,8.1093,8.1093,8.1093,8.1093,8.1093,8.1093,8.1093,8.1093,8.1093,8.1093,8.1093,8.1093,8.1093,8.1093,4.6607,4.6638,4.6734,4.6854,4.8334,4.9535,4.9556,5.0975,5.2133,5.2388,5.2713,5.3251,5.4101,5.4265,5.4912,5.6412,5.6538,5.6929,5.7808,5.7967,5.805,5.8159,5.8236,5.8313,5.8313,5.9006,5.9358,5.9358,6.0242,6.0666,6.0666,6.0748,6.0787,6.0787,6.0787,6.1248,6.1941,6.2062,6.2518,6.316,6.3045,6.3083,6.316,6.316,6.3237,6.3391,6.4166,6.5013,6.5743,6.5743,6.582,6.5904,6.5904,6.5904,6.5904,6.5904,6.6404,6.6981,6.6981,6.759,6.8237,6.8237,6.8898,6.959,6.9667,0.0,7.0783,7.0898,0.0,7.0898,7.0898,0.0,0.0,7.0898,7.0898,7.0898,7.0898,7.0898,7.0898,7.0898,7.0898,7.0898,7.0898,7.2399,7.343,7.3623,7.5091,7.6015,7.6015,7.6015,7.6784,7.8446,7.8484,7.9331,8.1093,8.1093,8.1093,8.1093,8.1093,8.1093,8.1093,8.1093,8.1093,8.1093,8.1093,8.1093,8.1093,8.1093,8.1093,8.1093,8.1093,8.1093,8.1093,8.1093,8.1093,8.1093,4.8929,4.8733,4.909,5.0078,5.0969,5.1561,5.1643,5.2815,5.3884,5.439,5.5006,5.5676,5.6555,5.6692,5.6973,5.7703,5.7742,5.7896,5.828,5.8742,5.9006,5.9006,5.9473,5.9742,5.9742,6.0089,6.0242,6.0242,6.0633,6.0787,6.0787,6.0787,6.1056,6.1556,6.1556,6.2018,6.282,6.332,6.3743,6.4089,6.4628,6.482,6.4743,6.4237,6.4359,6.4859,6.5205,6.559,6.5904,6.5904,6.6211,6.6596,6.6596,6.6936,6.7359,6.7359,6.759,6.7859,6.7859,6.8475,6.9161,6.9161,6.9783,7.0398,7.0398,7.0667,7.0898,7.0898,0.0,0.0,0.0,0.0,0.0,0.0,7.0898,7.0898,7.0898,7.0898,7.0898,7.0898,7.0898,7.0898,7.0898,7.2476,7.3507,7.3507,7.5053,7.6015,7.6015,7.6015,7.6784,7.8446,7.8484,7.9331,8.1093,8.1093,8.1093,8.1093,8.1093,8.1093,8.1093,8.1093,8.1093,8.1093,8.1093,8.1093,8.1093,8.1093,8.1093,8.1093,8.1093,8.1093,8.1093,8.1093,8.1093,8.1093,5.1517,5.1082,5.128,5.2538,5.2996,5.3368,5.3934,5.4869,5.5687,5.6258,5.6912,5.7594,5.8242,5.8313,5.8396,5.8627,5.8627,5.8742,5.8973,5.9511,5.9858,5.9858,6.0473,6.0787,6.0787,6.0787,6.0787,6.0787,6.1056,6.1172,6.1172,6.1396,6.182,6.2441,6.2441,6.2897,6.3698,6.432,6.4743,6.5013,6.5628,6.6019,6.6134,6.5282,6.5474,6.625,6.625,6.6359,6.659,6.659,6.6974,6.7475,6.7475,6.7898,6.8391,6.8391,6.8584,6.8776,6.8776,6.9398,7.0014,7.0014,7.0475,7.0898,7.0898,7.0898,7.0898,7.0898,7.0898,0.0,0.0,0.0,7.0898,7.0898,0.0,7.0898,7.0898,7.0898,7.0898,7.0898,7.0898,7.0898,7.0898,7.2476,7.3507,7.3507,7.5053,7.6015,7.6015,7.6015,7.6784,7.8446,7.8484,7.9331,8.1093,8.1093,8.1093,8.1093,8.1093,8.1093,8.1093,8.1093,8.1093,8.1093,8.1093,8.1093,8.1093,8.1093,8.1093,8.1093,8.1093,8.1093,8.1093,8.1093,8.1093,8.1093,5.4182,5.3525,5.283,5.2868,5.37,5.4908,5.6615,5.7627,5.8198,5.8198,5.8236,5.828,5.8313,5.8313,5.8627,5.9396,5.9473,5.9819,6.0666,6.0748,6.0748,6.0748,6.0787,6.0787,6.0787,6.0787,6.0787,6.0787,6.1633,6.2062,6.2095,6.2858,6.3237,6.3275,6.3275,6.3737,6.4551,6.4589,6.5089,6.5865,6.5897,6.6365,6.6981,6.6173,6.6365,6.7058,6.7058,6.759,6.8314,6.8314,6.8353,6.8353,6.8353,6.8391,6.8391,6.8391,6.9007,6.9667,6.9667,7.0244,7.086,7.086,7.0898,7.0898,7.0898,7.0898,7.0898,7.0898,7.0898,7.0898,7.0898,7.0898,0.0,0.0,0.0,0.0,0.0,7.0898,7.0898,7.0898,7.0898,7.0898,7.0898,7.2476,7.3507,7.3507,7.5053,7.6015,7.6015,7.6015,7.6784,7.8446,7.8484,7.9331,8.1093,8.1093,8.1093,8.1093,8.1093,8.1093,8.1093,8.1093,8.1093,8.1093,8.1093,8.1093,8.1093,8.1093,8.1093,8.1093,8.1093,8.1093,8.1093,8.1093,8.1093,8.1093,5.6967,5.6736,5.6274,5.5703,5.6384,5.7181,5.778,5.8127,5.8506,5.9011,5.9088,5.9319,5.9896,5.9935,6.005,6.0319,6.0358,6.0473,6.0787,6.0787,6.0787,6.0787,6.1364,6.1672,6.1672,6.2166,6.2429,6.2429,6.2743,6.2897,6.2897,6.316,6.3622,6.4166,6.4166,6.4628,6.5474,6.5474,6.5936,6.675,6.7321,6.7699,6.7936,6.766,6.7699,6.7975,6.7975,6.816,6.8391,6.8391,6.8776,6.9244,6.9244,6.9629,7.0052,7.0052,7.0244,7.0475,7.0475,7.0706,7.0898,7.0898,7.0898,7.0898,7.0898,7.0898,7.0898,7.0898,7.0898,7.0898,7.0898,0.0,0.0,0.0,0.0,0.0,0.0,7.0898,7.0898,7.0898,7.0898,7.0898,7.0898,7.2476,7.3507,7.3507,7.5053,7.6015,7.6015,7.6015,7.6784,7.8446,7.8484,7.9331,8.1093,8.1093,8.1093,8.1093,8.1093,8.1093,8.1093,8.1093,8.1093,8.1093,8.1093,8.1093,8.1093,8.1093,8.1093,8.1093,8.1093,8.1093,8.1093,8.1093,8.1093,8.1093,5.8313,5.8544,5.8473,5.7594,5.8165,5.8742,5.8742,5.8973,5.9396,5.9896,5.9973,6.0281,6.1172,6.1248,6.1364,6.1666,6.1704,6.1704,6.1704,6.1704,6.1704,6.1704,6.2243,6.2512,6.2512,6.3051,6.3314,6.3314,6.3622,6.3775,6.3775,6.4083,6.4512,6.5051,6.5359,6.5782,6.6365,6.6667,6.709,6.7628,6.8507,6.8853,6.8891,6.9161,6.9122,6.8853,6.8853,6.9045,6.9276,6.9276,6.9667,7.0129,7.0129,7.0475,7.0898,7.0898,7.0898,7.0898,7.0898,7.0898,7.0898,7.0898,7.0898,7.0898,7.0898,7.0898,7.0898,7.0898,7.0898,7.0898,7.0898,7.0898,0.0,0.0,0.0,0.0,0.0,7.0898,7.0898,7.0898,7.0898,7.0898,7.0898,7.2476,7.3507,7.3507,7.5053,7.6015,7.6015,7.6015,7.6784,7.8446,7.8484,7.9331,8.1093,8.1093,8.1093,8.1093,8.1093,8.1093,8.1093,8.1093,8.1093,8.1093,8.1093,8.1093,8.1093,8.1093,8.1093,8.1093,8.1093,8.1093,8.1093,8.1093,8.1093,8.1093,5.8429,5.905,5.9319,5.855,5.905,5.955,5.955,6.0281,6.0825,6.0864,6.0864,6.1172,6.2056,6.2172,6.248,6.3237,6.3314,6.3314,6.3314,6.3314,6.3314,6.3314,6.3352,6.3352,6.3352,6.3429,6.3429,6.3429,6.4275,6.4666,6.4666,6.5551,6.5981,6.5974,6.6789,6.7173,6.7212,6.8045,6.843,6.8545,6.9391,6.9744,6.986,7.0591,7.0437,6.9744,6.9744,7.0244,7.0898,7.0898,7.0898,7.0898,7.0898,7.0898,7.0898,7.0898,7.0898,7.0898,7.0898,7.0898,7.0898,7.0898,7.0898,7.0898,7.0898,7.0898,7.0898,7.0898,7.0898,7.0898,7.0898,7.0898,0.0,0.0,0.0,0.0,7.0898,7.0898,7.0898,7.0898,7.0898,7.0937,7.0975,7.2507,7.3507,7.3546,7.5091,7.6015,7.6015,7.6015,7.6784,7.8446,7.8484,7.9331,8.1093,8.1093,8.1093,8.1093,8.1093,8.1093,8.1093,8.1093,8.1093,8.1093,8.1093,8.1093,8.1093,8.1093,8.1093,8.1093,8.1093,8.1093,8.1093,8.1093,8.1093,8.1093,6.0165,6.0319,6.0396,6.0204,6.0319,6.0473,6.0473,6.0666,6.1018,6.1672,6.1787,6.2095,6.2897,6.2974,6.3089,6.3275,6.3314,6.3314,6.3314,6.3314,6.3314,6.3314,6.3929,6.4282,6.4282,6.4897,6.5243,6.5243,6.5474,6.5551,6.559,6.6404,6.6789,6.6827,6.7705,6.809,6.8084,6.8314,6.8776,6.9436,7.0244,7.0591,7.0591,7.0821,7.0783,7.0591,7.0591,7.0706,7.0898,7.0898,7.0898,7.0898,7.0898,7.0898,7.0898,7.0898,7.0898,7.0898,7.0898,7.0898,7.0898,7.0898,7.0898,7.0898,7.0898,7.0898,7.0898,7.0898,7.0898,7.0898,7.0898,7.0898,7.0898,7.0898,0.0,0.0,7.0898,7.0898,7.0898,7.0898,7.0898,7.1168,7.179,7.286,7.3738,7.4353,7.5399,7.6015,7.6015,7.6015,7.6784,7.8446,7.8484,7.9331,8.1093,8.1093,8.1093,8.1093,8.1093,8.1093,8.1093,8.1093,8.1093,8.1093,8.1093,8.1093,8.1093,8.1093,8.1093,8.1093,8.1093,8.1093,8.1093,8.1093,8.1093,8.1093,6.0787,6.1095,6.1479,6.182,6.1897,6.1781,6.1402,6.1666,6.2089,6.2551,6.298,6.3518,6.4359,6.4743,6.5122,6.5506,6.5545,6.5545,6.5545,6.5545,6.5545,6.5545,6.6006,6.609,6.5705,6.6167,6.6404,6.6404,6.6404,6.6628,6.7013,6.7475,6.7667,6.7705,6.859,6.8968,6.9007,6.9353,6.9783,7.0283,7.1129,7.1475,0.0,7.1898,7.2052,7.2052,7.2052,7.1783,7.1475,7.1475,7.1475,7.1475,7.1475,7.1206,7.0898,7.0898,7.0898,7.0898,7.0898,7.0898,7.0898,7.0898,7.0898,7.0898,7.0898,7.0898,7.0898,7.0898,7.0898,7.0898,7.0898,7.0898,7.0898,7.0898,7.0898,7.0898,7.0898,7.0898,7.1052,7.1398,7.1475,7.1937,7.3168,7.343,7.3815,7.4623,7.5515,7.6015,7.6015,7.6015,7.6784,7.8446,7.8484,7.9331,8.1093,8.1093,8.1093,8.1093,8.1093,8.1093,8.1093,8.1093,8.1093,8.1093,8.1093,8.1093,8.1093,8.1093,8.1093,8.1093,8.1093,8.1093,8.1093,8.1093,8.1093,8.1093,6.1127,6.1749,6.248,6.316,6.3506,6.3397,6.271,6.3089,6.3506,6.3622,6.4397,6.5243,6.6128,6.6859,6.759,6.8314,6.8391,6.8391,6.8391,6.8391,6.8391,6.8391,6.8391,6.8045,6.7289,6.7289,6.7289,6.7289,6.7289,6.7667,6.8391,6.8507,6.8584,6.8622,6.9468,6.986,6.9898,7.0744,7.1052,7.1168,7.2014,7.2367,7.2437,7.3199,7.3507,7.3507,7.3507,7.3014,7.2367,7.2367,7.2367,7.2367,7.2367,7.186,7.1245,7.1245,7.1245,7.1245,7.1245,7.1245,7.1245,7.1245,7.1245,7.1245,7.1245,7.1245,7.1245,7.1245,7.1245,7.1245,7.1245,7.1245,7.1245,7.1245,7.1245,7.1245,7.1245,7.1245,7.1514,7.2283,7.2367,0.0,7.4546,7.4084,7.4007,7.4815,7.5553,7.6015,7.6015,7.6015,7.6784,7.8446,7.8484,7.9331,8.1093,8.1093,8.1093,8.1093,8.1093,8.1093,8.1093,8.1093,8.1093,8.1093,8.1093,8.1093,8.1093,8.1093,8.1093,8.1093,8.1093,8.1093,8.1093,8.1093,8.1093,8.1093,6.2852,6.3006,6.3121,6.3275,6.4474,6.5397,6.525,6.4743,6.4628,6.5359,6.6167,6.6974,6.7853,6.8084,6.8237,6.8391,6.8391,6.8391,6.8391,6.8391,6.8391,6.8391,6.8391,6.8314,6.816,6.816,6.816,6.816,6.816,6.8237,6.843,6.9129,6.9475,6.9513,7.0321,7.0706,7.0744,7.1591,7.1982,7.2059,7.2937,7.3276,7.3276,7.343,7.3507,7.3507,7.3507,7.3392,7.3276,7.3276,7.3276,7.3276,7.3276,7.3161,7.3046,7.3046,7.3046,7.3046,7.3046,7.3046,7.3046,7.3046,7.3046,7.3046,7.3046,7.3046,7.3046,7.3046,7.3046,7.3046,7.3046,7.3046,7.3046,7.3046,7.3046,7.3046,7.3046,7.3046,7.3084,7.3238,7.3276,7.3661,7.4623,7.4584,7.4853,7.5707,7.5899,7.6015,7.6015,7.6015,7.6784,7.8446,7.8484,7.9331,8.1093,8.1093,8.1093,8.1093,8.1093,8.1093,8.1093,8.1093,8.1093,8.1093,8.1093,8.1093,8.1093,8.1093,8.1093,8.1093,8.1093,8.1093,8.1093,8.1093,8.1093,8.1093,6.3891,6.4359,6.4782,6.5205,6.6359,6.7205,6.7205,6.7205,6.7244,6.7205,6.7936,6.8783,6.9629,7.009,7.0552,7.1007,7.1045,7.1045,7.1045,7.1045,7.0853,7.0398,7.036,6.9975,6.9084,6.9084,6.9084,6.9084,6.9084,6.9276,6.9706,7.0129,7.0321,7.036,7.1206,7.1552,7.1636,7.2514,7.286,7.2937,7.3776,7.4123,7.4161,7.4623,7.4822,7.4822,7.4822,7.4822,7.4738,7.4276,7.4123,7.4123,7.4123,7.3853,7.3507,7.3507,7.3507,7.3507,7.3507,7.3507,7.3507,7.3507,7.3507,7.3507,7.3507,7.3507,7.3507,7.3507,7.3507,7.3507,7.3507,7.3507,7.3507,7.3507,7.3507,7.3507,7.3507,7.3507,7.3661,7.4084,7.4123,7.443,7.5284,7.5361,7.5553,7.5976,7.6015,7.6015,7.6015,7.6015,7.6784,7.8446,7.8484,7.9331,8.1093,8.1093,8.1093,8.1093,8.1093,8.1093,8.1093,8.1093,8.1093,8.1093,8.1093,8.1093,8.1093,8.1093,8.1093,8.1093,8.1093,8.1093,8.1093,8.1093,8.1093,8.1093,6.5013,6.582,6.6628,6.7282,6.8244,6.893,6.893,6.9814,7.0122,6.9084,6.9706,7.0552,7.136,7.2052,7.2745,7.343,7.3507,7.3507,7.3507,7.3507,7.3199,7.2514,7.2476,7.186,7.0552,7.0514,7.0437,7.0244,7.0244,7.0475,7.0898,7.0898,7.1014,7.1206,7.2091,7.2476,7.2514,7.3399,7.3776,7.3815,7.4661,7.4976,7.5053,7.5745,7.6015,7.6015,7.6015,7.6015,7.5899,7.5207,7.4976,7.4976,7.4976,7.4546,7.4046,7.4046,7.4046,7.4046,7.4046,7.4046,7.4046,7.4046,7.4046,7.4046,7.4046,7.4046,7.4046,7.4046,7.4046,7.4046,7.4046,7.4046,7.4046,7.4046,7.4046,7.4046,7.4046,7.4046,7.4276,7.4892,7.4976,7.5245,7.5938,7.6015,7.6015,7.6015,7.6015,7.6015,7.6015,7.6015,7.6784,7.8446,7.8484,7.9331,8.1093,8.1093,8.1093,8.1093,8.1093,8.1093,8.1093,8.1093,8.1093,8.1093,8.1093,8.1093,8.1093,8.1093,8.1093,8.1093,8.1093,8.1093,8.1093,8.1093,8.1093,8.1093,6.6865,6.759,6.8199,6.8276,6.959,7.0667,7.0667,7.2084,7.2545,7.0898,7.1398,7.2283,7.3161,7.3315,7.3392,7.3507,7.3507,7.3507,7.3507,7.3507,7.3469,7.3392,7.3392,7.3315,7.3161,7.3122,7.2745,7.1982,7.1982,7.1591,7.0898,7.0898,7.1321,7.2136,7.2976,7.3392,7.343,7.4238,7.4584,7.4661,7.5515,7.5861,7.5899,7.5976,7.6015,7.6015,7.6015,7.6015,7.5976,7.5899,7.5861,7.5861,7.5861,7.5822,7.5784,7.5784,7.5784,7.5784,7.5784,7.5784,7.5784,7.5784,7.5784,7.5784,7.5784,7.5784,7.5784,7.5784,7.5784,7.5784,7.5784,7.5784,7.5784,7.5784,7.5784,7.5784,7.5784,7.5784,7.5784,7.5861,7.5861,7.5899,7.5976,7.6015,7.6015,7.6015,7.6015,7.6015,7.6015,7.6015,7.6784,7.8446,7.8484,7.9331,8.1093,8.1093,8.1093,8.1093,8.1093,8.1093,8.1093,8.1093,8.1093,8.1093,8.1093,8.1093,8.1093,8.1093,8.1093,8.1093,8.1093,8.1093,8.1093,8.1093,8.1093,8.1093,6.7898,6.8975,6.9898,6.9898,7.1315,7.2469,7.2469,7.3046,7.343,7.3199,7.3053,7.3283,7.4123,7.4199,7.443,7.4938,7.5014,7.5014,7.5014,7.5014,7.4784,7.4238,7.4199,7.4007,7.3507,7.3507,7.3315,7.2976,7.2976,7.2783,7.2469,7.2469,7.2668,7.3014,7.3853,7.4199,7.4276,7.513,7.5784,7.6284,7.663,7.7053,7.7484,7.7484,7.7484,7.7484,7.7484,7.7484,7.7484,7.7484,7.6823,7.6015,7.6015,7.6015,7.6015,7.6015,7.6015,7.6015,7.6015,7.6015,7.6015,7.6015,7.6015,7.6015,7.6015,7.6015,7.6015,7.6015,7.6015,7.6015,7.6015,7.6015,7.6015,7.6015,7.6015,7.6015,7.6015,7.6015,7.6015,7.6015,7.6015,7.6015,7.6015,7.6015,7.6015,7.6015,7.6015,7.6015,7.6015,7.6515,7.733,7.8446,7.9015,7.9862,8.1093,8.1093,8.1093,8.1093,8.1093,8.1093,8.1093,8.1093,8.1093,8.1093,8.1093,8.1093,8.1093,8.1093,8.1093,8.1093,8.1093,8.1093,8.1093,8.1093,8.1093,8.1093,6.9468,7.0667,7.1668,7.1668,7.2892,7.3853,7.3853,7.4084,7.443,7.5007,7.4584,7.443,7.5007,7.5084,7.5322,7.5938,7.6015,7.6015,7.6015,7.6015,7.5745,7.513,7.5084,7.4822,7.4238,7.4238,7.4123,7.3853,7.3853,7.3738,7.3507,7.3738,7.3853,7.3892,7.4976,7.5476,7.5515,7.6361,7.7099,7.7638,7.7638,7.7984,7.8484,7.8484,7.8484,7.8484,7.8484,7.8484,7.8484,7.8484,7.7715,7.6746,7.6746,7.6746,7.6746,7.6746,7.6746,7.6746,7.6746,7.6746,7.6669,7.6438,7.6361,7.6322,7.6053,7.6015,7.6015,7.6015,7.6015,7.6015,7.6015,7.6015,7.6015,7.6015,7.6015,7.6015,7.6015,7.6015,7.6015,7.6015,7.6015,7.6015,7.6015,7.6015,7.6015,7.6015,7.6245,7.6361,7.6361,7.6984,7.7792,7.8869,7.9477,8.0208,8.1093,8.1093,8.1093,8.1093,8.1093,8.1093,8.1093,8.1093,8.1093,8.1093,8.1093,8.1093,8.1093,8.1093,8.1093,8.1093,8.1093,8.1093,8.1093,8.1093,8.1093,8.1093,7.1982,7.286,7.3469,7.3469,7.4123,7.47,7.47,7.5438,7.5976,7.5976,7.5976,7.5976,7.5976,7.5976,7.5976,7.6015,7.6015,7.6015,7.6015,7.6015,7.6015,7.5976,7.5976,7.5976,7.5976,7.5976,7.5553,7.47,7.47,7.4276,7.3507,7.4315,7.47,7.4776,7.6515,7.7292,7.733,7.8138,7.8484,7.8484,7.8484,7.8484,7.8484,7.8484,7.8484,7.8484,7.8484,7.8484,7.8484,7.8484,7.8484,7.8484,7.8484,7.8484,7.8484,7.8484,7.8484,7.8484,7.8484,7.8484,7.8292,7.7484,7.7292,7.7061,7.6207,7.6015,7.6015,7.6015,7.6015,7.6015,7.6015,7.6015,7.6015,7.6015,7.6015,7.6015,7.6015,7.6015,7.6015,7.6015,7.6015,7.6015,7.6015,7.6015,7.6015,7.6015,7.6791,7.7292,7.7292,7.7292,7.8054,7.9738,7.9777,8.0208,8.1093,8.1093,8.1093,8.1093,8.1093,8.1093,8.1093,8.1093,8.1093,8.1093,8.1093,8.1093,8.1093,8.1093,8.1093,8.1093,8.1093,8.1093,8.1093,8.1093,8.1093,8.1093,7.3046,7.3738,7.4315,7.4315,7.5007,7.5784,7.6361,7.6707,7.7092,7.7638,7.7715,7.7715,7.7715,7.7215,7.7099,7.7676,7.7715,7.7715,7.7715,7.7715,7.7715,7.7715,7.7715,7.7715,7.7715,7.7176,7.6746,7.6476,7.5861,7.5745,7.6092,7.6899,7.7284,7.733,7.7869,7.8138,7.8138,7.8407,7.8823,7.94,7.94,7.9746,8.0285,8.0285,8.0285,8.0285,8.0285,8.0285,8.0285,8.0285,8.0285,8.0285,8.0285,7.9446,7.8484,7.8484,7.8484,7.8484,7.8484,7.8484,7.8446,7.8176,7.8138,7.8061,7.7753,7.7715,7.7715,7.7715,7.7715,7.7715,7.7715,7.7715,7.7715,7.7715,7.7715,7.7522,7.6938,7.6899,7.6669,7.6053,7.6015,7.6015,7.6015,7.6553,7.6899,7.6899,7.7638,7.7869,7.733,7.8361,7.9246,7.9777,8.04,8.0823,8.1093,8.1093,8.1093,8.1093,8.1093,8.1093,8.1093,8.1093,8.1093,8.1093,8.1093,8.1093,8.1093,8.1093,8.1093,8.1093,8.1093,8.1093,8.1093,8.1093,8.1093,8.1093,7.4822,7.5322,7.5784,7.6053,7.6592,7.713,7.7676,7.7753,7.7946,7.8446,7.8484,7.8638,7.8938,7.8554,7.8323,7.8484,7.8484,7.8484,7.8484,7.8484,7.8484,7.8484,7.8484,7.8484,7.8484,7.8023,7.7753,7.7753,7.7215,7.7215,7.7753,7.8253,7.8484,7.8523,7.8823,7.8977,7.9015,7.9323,7.9785,8.0277,8.0277,8.0631,8.1093,8.1093,8.1093,8.1093,8.1093,8.1093,8.1093,8.1093,8.1093,8.1093,8.1093,8.0362,7.9485,7.9485,7.9485,7.9485,7.9485,7.9485,7.94,7.9054,7.8977,7.8907,7.8561,7.8484,7.8484,7.8484,7.8484,7.8484,7.8484,7.8484,7.8484,7.8484,7.8484,7.833,7.783,7.7753,7.7561,7.7015,7.6938,7.6938,7.6938,7.7445,7.7753,7.7753,7.8523,7.8784,7.8284,7.9246,7.9931,8.0285,8.0823,8.1093,8.1093,8.1093,8.1093,8.1093,8.1093,8.1093,8.1093,8.1093,8.1093,8.1093,8.1093,8.1093,8.1093,8.1093,8.1093,8.1093,8.1093,8.1093,8.1093,8.1093,8.1093,8.1093,7.7061,7.7369,7.7638,7.8369,7.8484,7.8523,7.86,7.86,7.86,7.8677,7.8677,7.8977,7.9785,7.9892,7.9554,7.8754,7.8677,7.8677,7.8677,7.8677,7.8677,7.8677,7.8677,7.8677,7.8677,7.8638,7.8561,7.8484,7.8561,7.86,7.86,7.8638,7.8677,7.8715,7.9515,7.9892,7.9931,8.0746,8.1093,8.1093,8.1093,8.1093,8.1093,8.1093,8.1093,8.1093,8.1093,8.1093,8.1093,8.1093,8.1093,8.1093,8.1093,8.1093,8.1093,8.1093,8.1093,8.1093,8.1093,8.1093,8.09,8.0085,7.9892,7.9669,7.8869,7.8677,7.8677,7.8677,7.8677,7.8677,7.8677,7.8677,7.8677,7.8677,7.8677,7.8677,7.86,7.86,7.8561,7.8523,7.8484,7.8484,7.8484,7.8561,7.86,7.86,7.94,7.9892,7.9892,7.9892,8.0246,8.1054,8.1093,8.1093,8.1093,8.1093,8.1093,8.1093,8.1093,8.1093,8.1093,8.1093,8.1093,8.1093,8.1093,8.1093,8.1093,8.1093,8.1093,8.1093,8.1093,8.1093,8.1093,8.1093,8.1093,8.1093,7.8138,7.8215,7.8292,7.8484,7.8484,7.8715,7.94,7.9477,7.9746,8.04,8.0477,8.0554,8.0785,8.0785,8.0708,8.0516,8.0477,8.0477,8.0477,8.0477,8.0477,8.0477,8.0477,8.0477,8.0477,7.9823,7.9169,7.8484,7.9169,7.9477,7.9515,8.0169,8.0477,8.0477,8.0708,8.0785,8.0823,8.1016,8.1093,8.1093,8.1093,8.1093,8.1093,8.1093,8.1093,8.1093,8.1093,8.1093,8.1093,8.1093,8.1093,8.1093,8.1093,8.1093,8.1093,8.1093,8.1093,8.1093,8.1093,8.1093,8.1054,8.0823,8.0785,8.0746,8.0516,8.0477,8.0477,8.0477,8.0477,8.0477,8.0477,8.0477,8.0477,8.0477,8.0477,8.0246,7.9592,7.9477,7.9246,7.86,7.8484,7.8484,7.8484,7.9092,7.9477,7.9477,8.0285,8.0785,8.0785,8.0785,8.09,8.1093,8.1093,8.1093,8.1093,8.1093,8.1093,8.1093,8.1093,8.1093,8.1093,8.1093,8.1093,8.1093,8.1093,8.1093,8.1093,8.1093,8.1093,8.1093,8.1093,8.1093,8.1093,8.1093,8.1093,8.1093,7.9015,7.9092,7.9208,7.9631,7.9669,7.9862,8.0323,8.04,8.0554,8.1054,8.1093,8.1093,8.1093,8.1093,8.1093,8.1093,8.1093,8.1093,8.1093,8.1093,8.1093,8.1093,8.1093,8.1093,8.1093,8.0631,8.0169,7.9669,8.0169,8.04,8.04,8.09,8.1093,8.1093,8.1093,8.1093,8.1093,8.1093,8.1093,8.1093,8.1093,8.1093,8.1093,8.1093,8.1093,8.1093,8.1093,8.1093,8.1093,8.1093,8.1093,8.1093,8.1093,8.1093,8.1093,8.1093,8.1093,8.1093,8.1093,8.1093,8.1093,8.1093,8.1093,8.1093,8.1093,8.1093,8.1093,8.1093,8.1093,8.1093,8.1093,8.1093,8.1093,8.1093,8.1093,8.0939,8.0477,8.04,8.0208,7.9746,7.9669,7.9669,7.9669,8.0131,8.04,8.04,8.0823,8.1093,8.1093,8.1093,8.1093,8.1093,8.1093,8.1093,8.1093,8.1093,8.1093,8.1093,8.1093,8.1093,8.1093,8.1093,8.1093,8.1093,8.1093,8.1093,8.1093,8.1093,8.1093,8.1093,8.1093,8.1093,8.1093,8.1093,8.1093,8.1093,7.9862,8.0008,8.0239,8.0977,8.1093,8.1093,8.1093,8.1093,8.1093,8.1093,8.1093,8.1093,8.1093,8.1093,8.1093,8.1093,8.1093,8.1093,8.1093,8.1093,8.1093,8.1093,8.1093,8.1093,8.1093,8.1093,8.1093,8.1093,8.1093,8.1093,8.1093,8.1093,8.1093,8.1093,8.1093,8.1093,8.1093,8.1093,8.1093,8.1093,8.1093,8.1093,8.1093,8.1093,8.1093,8.1093,8.1093,8.1093,8.1093,8.1093,8.1093,8.1093,8.1093,8.1093,8.1093,8.1093,8.1093,8.1093,8.1093,8.1093,8.1093,8.1093,8.1093,8.1093,8.1093,8.1093,8.1093,8.1093,8.1093,8.1093,8.1093,8.1093,8.1093,8.1093,8.1093,8.1093,8.1093,8.1093,8.1093,8.1093,8.1093,8.1093,8.1093,8.1093,8.1093,8.1093,8.1093,8.1093,8.1093,8.1093,8.1093,8.1093,8.1093,8.1093,8.1093,8.1093,8.1093,8.1093,8.1093,8.1093,8.1093,8.1093,8.1093,8.1093,8.1093,8.1093,8.1093,8.1093,8.1093,8.1093,8.1093,8.1093,8.1093,8.1093,8.1093,8.1093,8.0862,8.09,8.0939,8.1093,8.1093,8.1093,8.1093,8.1093,8.1093,8.1093,8.1093,8.1093,8.1093,8.1093,8.1093,8.1093,8.1093,8.1093,8.1093,8.1093,8.1093,8.1093,8.1093,8.1093,8.1093,8.1093,8.1093,8.1093,8.1093,8.1093,8.1093,8.1093,8.1093,8.1093,8.1093,8.1093,8.1093,8.1093,8.1093,8.1093,8.1093,8.1093,8.1093,8.1093,8.1093,8.1093,8.1093,8.1093,8.1093,8.1093,8.1093,8.1093,8.1093,8.1093,8.1093,8.1093,8.1093,8.1093,8.1093,8.1093,8.1093,8.1093,8.1093,8.1093,8.1093,8.1093,8.1093,8.1093,8.1093,8.1093,8.1093,8.1093,8.1093,8.1093,8.1093,8.1093,8.1093,8.1093,8.1093,8.1093,8.1093,8.1093,8.1093,8.1093,8.1093,8.1093,8.1093,8.1093,8.1093,8.1093,8.1093,8.1093,8.1093,8.1093,8.1093,8.1093,8.1093,8.1093,8.1093,8.1093,8.1093,8.1093,8.1093,8.1093,8.1093,8.1093,8.1093,8.1093,8.1093,8.1093,8.1093,8.1093,8.1093,8.1093,8.1093,8.1093,8.1093,8.1093,8.1093,8.1093,8.1093,8.1093,8.1093,8.1093,8.1093,8.1093,8.1093,8.1093,8.1093,8.1093,8.1093,8.1093,8.1093,8.1093,8.1093,8.1093,8.1093,8.1093,8.1093,8.1093,8.1093,8.1093,8.1093,8.1093,8.1093,8.1093,8.1093,8.1093,8.1093,8.1093,8.1093,8.1093,8.1093,8.1093,8.1093,8.1093,8.1093,8.1093,8.1093,8.1093,8.1093,8.1093,8.1093,8.1093,8.1093,8.1093,8.1093,8.1093,8.1093,8.1093,8.1093,8.1093,8.1093,8.1093,8.1093,8.1093,8.1093,8.1093,8.1093,8.1093,8.1093,8.1093,8.1093,8.1093,8.1093,8.1093,8.1093,8.1093,8.1093,8.1093,8.1093,8.1093,8.1093,8.1093,8.1093,8.1093,8.1093,8.1093,8.1093,8.1093,8.1093,8.1093,8.1093,8.1093,8.1093,8.1093,8.1093,8.1093,8.1093,8.1093,8.1093,8.1093,8.1093,8.1093,8.1093,8.1093,8.1093,8.1093,8.1093,8.1093,8.1093,8.1093,8.1093,8.1093,8.1093,8.1093,8.1093,8.1093,8.1093,8.1093,8.1093,8.1093,8.1093,8.1093,8.1093,8.1093,8.1093,8.1093,8.1093,8.1093,8.1093,8.1093,8.1093,8.1093,8.1093,8.1093,8.1093,8.1093,8.1093,8.1093,8.1093,8.1093,8.1093,8.1093,8.1093,8.1093,8.1093,8.1093,8.1093,8.1093,8.1093,8.1093,8.1093,8.1093,8.1093,8.1093,8.1093,8.1093,8.1093,8.1093,8.1093,8.1093,8.1093,8.1093,8.1093,8.1093,8.1093,8.1093,8.1093,8.1093,8.1093,8.1093,8.1093,8.1093,8.1093,8.1093,8.1093,8.1093,8.1093,8.1093,8.1093,8.1093,8.1093,8.1093,8.1093,8.1093,8.1093,8.1093,8.1093,8.1093,8.1093,8.1093,8.1093,8.1093,8.1093,8.1093,8.1093,8.1093,8.1093,8.1093,8.1093,8.1093,8.1093,8.1093,8.1093,8.1093,8.1093,8.1093,8.1093,8.1093,8.1093,8.1093,8.1093,8.1093,8.1093,8.1093,8.1093,8.1093,8.1093,8.1093,8.1093,8.1093,8.1093,8.1093,8.1093,8.1093,8.1093,8.1093,8.1093,8.1093,8.1093,8.1093,8.1093,8.1093,8.1093,8.1093,8.1093,8.1093,8.1093,8.1093,8.1093,8.1093,8.1093,8.1093,8.1093,8.1093,8.1093,8.1093,8.1093,8.1093,8.1093,8.1093,8.1093,8.1093,8.1093,8.1093,8.1093,8.1093,8.1093,8.1093,8.1093,8.1093,8.1093,8.1093,8.1093,8.1093,8.1093,8.1093,8.1093,8.1093,8.1093,8.1093,8.1093,8.1093,8.1093,8.1093,8.1093,8.1093,8.1093,8.1093,8.1093,8.1093,8.1093,8.1093,8.1093,8.1093,8.1093,8.1093,8.1093,8.1093,8.1093,8.1093,8.1093,8.1093,8.1093,8.1093,8.1093,8.1093,8.1093,8.1093,8.1093,8.1093,8.1093,8.1093,8.1093,8.1093,8.1093,8.1093,8.1093,8.1093,8.1093,8.1093,8.1093,8.1093,8.1093,8.1093,8.1093,8.1093,8.1093,8.1093,8.1093,8.1093,8.1093,8.1093,8.1093,8.1093,8.1093,8.1093,8.1093,8.1093,8.1093,8.1093,8.1093,8.1093,8.1093,8.1093,8.1093,8.1093,8.1093,8.1093,8.1093,8.1093,8.1093,8.1093,8.1093,8.1093,8.1093,8.1093,8.1093,8.1093,8.1093,8.1093,8.1093,8.1093,8.1093,8.1093,8.1093,8.1093,8.1093,8.1093,8.1093,8.1093,8.1093,8.1093,8.1093,8.1093,8.1093,8.1093,8.1093,8.1093,8.1093,8.1093,8.1093,8.1093,8.1093,8.1093,8.1093,8.1093,8.1093,8.1093,8.1093,8.1093,8.1093,8.1093,8.1093,8.1093,8.1093,8.1093,8.1093,8.1093,8.1093,8.1093,8.1093,8.1093,8.1093,8.1093,8.1093,8.1093,8.1093,8.1093,8.1093,8.1093,8.1093,8.1093,8.1093,8.1093,8.1093,8.1093,8.1093,8.1093,8.1093,8.1093,8.1093,8.1093,8.1093,8.1093,8.1093,8.1093,8.1093,8.1093,8.1093,8.1093,8.1093,8.1093,8.1093,8.1093,8.1093,8.1093,8.1093,8.1093,8.1093,8.1093,8.1093,8.1093,8.1093,8.1093,8.1093,8.1093,8.1093,8.1093,8.1093,8.1093,8.1093,8.1093,8.1093,8.1093,8.1093,8.1093,8.1093,8.1093,8.1093,8.1093,8.1093,8.1093,8.1093,8.1093,8.1093,8.1093,8.1093,8.1093,8.1093,8.1093,8.1093,8.1093,8.1093,8.1093,8.1093,8.1093,8.1093,8.1093,8.1093,8.1093,8.1093,8.1093,8.1093,8.1093,8.1093,8.1093,8.1093,8.1093,8.1093,8.1093,8.1093,8.1093,8.1093,8.1093,8.1093,8.1093,8.1093,8.1093,8.1093,8.1093,8.1093,8.1093,8.1093,8.1093,8.1093,8.1093,8.1093,8.1093,8.1093,8.1093,8.1093,8.1093,8.1093,8.1093,8.1093,8.1093,8.1093,8.1093,8.1093,8.1093,8.1093,8.1093,8.1093,8.1093,8.1093,8.1093,8.1093,8.1093,8.1093,8.1093,8.1093,8.1093,8.1093,8.1093,8.1093,8.1093,8.1093,8.1093,8.1093,8.1093,8.1093,8.1093,8.1093,8.1093,8.1093,8.1093,8.1093,8.1093,8.1093,8.1093,8.1093,8.1093,8.1093,8.1093,8.1093,8.1093,8.1093,8.1093,8.1093,8.1093,8.1093,8.1093,8.1093,8.1093,8.1093,8.1093,8.1093,8.1093,8.1093,8.1093,8.1093,8.1093,8.1093,8.1093,8.1093,8.1093,8.1093,8.1093,8.1093,8.1093,8.1093,8.1093,8.1093,8.1093,8.1093,8.1093,8.1093,8.1093,8.1093,8.1093,8.1093,8.1093,8.1093,8.1093,8.1093,8.1093,8.1093,8.1093,8.1093,8.1093,8.1093,8.1093,8.1093,8.1093,8.1093,8.1093,8.1093,8.1093,8.1093,8.1093,8.1093,8.1093,8.1093,8.1093,8.1093,8.1093,8.1093,8.1093,8.1093,8.1093,8.1093,8.1093,8.1093,8.1093,8.1093,8.1093,8.1093,8.1093,8.1093,8.1093,8.1093,8.1093,8.1093,8.1093,8.1093,8.1093,8.1093,8.1093,8.1093,8.1093,8.1093,8.1093,8.1093,8.1093,8.1093,8.1093,8.1093,8.1093,8.1093,8.1093,8.1093,8.1093,8.1093,8.1093,8.1093,8.1093,8.1093,8.1093,8.1093,8.1093,8.1093,8.1093,8.1093,8.1093,8.1093,8.1093,8.1093,8.1093,8.1093,8.1093,8.1093,8.1093,8.1093,8.1093,8.1093,8.1093,8.1093,8.1093,8.1093,8.1093,8.1093,8.1093,8.1093,8.1093,8.1093,8.1093,8.1093,8.1093,8.1093,8.1093,8.1093,8.1093,8.1093,8.1093,8.1093,8.1093,8.1093,8.1093,8.1093,8.1093,8.1093,8.1093,8.1093,8.1093,8.1093,8.1093,8.1093,8.1093,8.1093,8.1093,8.1093,8.1093,8.1093,8.1093,8.1093,8.1093,8.1093,8.1093,8.1093,8.1093,8.1093,8.1093,8.1093,8.1093,8.1093,8.1093,8.1093,8.1093,8.1093,8.1093,8.1093,8.1093,8.1093,8.1093,8.1093,8.1093,8.1093,8.1093,8.1093,8.1093,8.1093,8.1093,8.1093,8.1093,8.1093,8.1093,8.1093,8.1093,8.1093,8.1093,8.1093,8.1093,8.1093,8.1093,8.1093,8.1093,8.1093,8.1093,8.1093,8.1093,8.1093,8.1093,8.1093,8.1093,8.1093,8.1093,8.1093,8.1093,8.1093,8.1093,8.1093,8.1093,8.1093,8.1093,8.1093,8.1093,8.1093,8.1093,8.1093,8.1093,8.1093,8.1093,8.1093,8.1093,8.1093,8.1093,8.1093,8.1093,8.1093,8.1093,8.1093,8.1093,8.1093,8.1093,8.1093,8.1093,8.1093,8.1093,8.1093,8.1093,8.1093,8.1093,8.1093,8.1093,8.1093,8.1093,8.1093,8.1093,8.1093,8.1093,8.1093,8.1093,8.1093,8.1093,8.1093,8.1093,8.1093,8.1093,8.1093,8.1093,8.1093,8.1093,8.1093,8.1093,8.1093,8.1093,8.1093,8.1093,8.1093,8.1093,8.1093,8.1093,8.1093,8.1093,8.1093,8.1093,8.1093,8.1093,8.1093,8.1093,8.1093,8.1093,8.1093,8.1093,8.1093,8.1093,8.1093,8.1093,8.1093,8.1093,8.1093,8.1093,8.1093,8.1093,8.1093,8.1093,8.1093,8.1093,8.1093,8.1093,8.1093,8.1093,8.1093,8.1093,8.1093,8.1093,8.1093,8.1093,8.1093,8.1093,8.1093,8.1093,8.1093,8.1093,8.1093,8.1093,8.1093,8.1093,8.1093,8.1093,8.1093,8.1093,8.1093,8.1093,8.1093,8.1093,8.1093,8.1093,8.1093,8.1093,8.1093,8.1093,8.1093,8.1093,8.1093,8.1093,8.1093,8.1093,8.1093,8.1093,8.1093,8.1093,8.1093,8.1093,8.1093,8.1093,8.1093,8.1093,8.1093,8.1093,8.1093,8.1093,8.1093,8.1093,8.1093,8.1093,8.1093,8.1093,8.1093,8.1093,8.1093,8.1093,8.1093,8.1093,8.1093,8.1093,8.1093,8.1093,8.1093,8.1093,8.1093,8.1093,8.1093,8.1093,8.1093,8.1093,8.1093,8.1093,8.1093,8.1093,8.1093,8.1093,8.1093,8.1093,8.1093,8.1093,8.1093,8.1093,8.1093,8.1093,8.1093,8.1093,8.1093,8.1093,8.1093,8.1093,8.1093,8.1093,8.1093,8.1093,8.1093,8.1093,8.1093,8.1093,8.1093,8.1093,8.1093,8.1093,8.1093,8.1093,8.1093,8.1093,8.1093,8.1093,8.1093,8.1093,8.1093,8.1093,8.1093,8.1093,8.1093,8.1093,8.1093,8.1093,8.1093,8.1093,8.1093,8.1093,8.1093,8.1093,8.1093,8.1093,8.1093,8.1093,8.1093,8.1093,8.1093,8.1093,8.1093,8.1093,8.1093,8.1093,8.1093,8.1093,8.1093,8.1093,8.1093,8.1093,8.1093,8.1093,8.1093,8.1093,8.1093,8.1093,8.1093,8.1093,8.1093,8.1093,8.1093,8.1093,8.1093,8.1093,8.1093,8.1093,8.1093,8.1093,8.1093,8.1093,8.1093,8.1093,8.1093,8.1093,8.1093,8.1093,8.1093,8.1093,8.1093,8.1093,8.1093,8.1093,8.1093,8.1093,8.1093,8.1093,8.1093,8.1093,8.1093,8.1093,8.1093,8.1093,8.1093,8.1093,8.1093,8.1093,8.1093,8.1093,8.1093,8.1093,8.1093,8.1093,8.1093,8.1093,8.1093,8.1093,8.1093,8.1093,8.1093,8.1093,8.1093,8.1093,8.1093,8.1093,8.1093,8.1093,8.1093,8.1093,8.1093,8.1093,8.1093,8.1093,8.1093,8.1093,8.1093,8.1093,8.1093,8.1093,8.1093,8.1093,8.1093,8.1093,8.1093,8.1093,8.1093,8.1093,8.1093,8.1093,8.1093,8.1093,8.1093,8.1093,8.1093,8.1093,8.1093,8.1093,8.1093,8.1093,8.1093,8.1093,8.1093,8.1093,8.1093,8.1093,8.1093,8.1093,8.1093,8.1093,8.1093,8.1093,8.1093,8.1093,8.1093,8.1093,8.1093,8.1093,8.1093,8.1093,8.1093,8.1093,8.1093,8.1093,8.1093,8.1093,8.1093,8.1093,8.1093,8.1093,8.1093,8.1093,8.1093,8.1093,8.1093,8.1093,8.1093,8.1093,8.1093,8.1093,8.1093,8.1093,8.1093,8.1093,8.1093,8.1093,8.1093,8.1093,8.1093,8.1093,8.1093,8.1093,8.1093,8.1093,8.1093,8.1093,8.1093,8.1093,8.1093,8.1093,8.1093,8.1093,8.1093,8.1093,8.1093,8.1093,8.1093,8.1093,8.1093,8.1093,8.1093,8.1093,8.1093,8.1093,8.1093,8.1093,8.1093,8.1093,8.1093,8.1093,8.1093,8.1093,8.1093,8.1093,8.1093,8.1093,8.1093,8.1093,8.1093,8.1093,8.1093,8.1093,8.1093,8.1093,8.1093,8.1093,8.1093,8.1093,8.1093,8.1093,8.1093,8.1093,8.1093,8.1093,8.1093,8.1093,8.1093,8.1093,8.1093,8.1093,8.1093,8.1093,8.1093,8.1093,8.1093,8.1093,8.1093,8.1093,8.1093,8.1093,8.1093,8.1093,8.1093,8.1093,8.1093,8.1093,8.1093,8.1093,8.1093,8.1093,8.1093,8.1093,8.1093,8.1093,8.1093,8.1093,8.1093,8.1093,8.1093,8.1093,8.1093,8.1093,8.1093,8.1093,8.1093,8.1093,8.1093,8.1093,8.1093,8.1093,8.1093,8.1093,8.1093,8.1093,8.1093,8.1093,8.1093,8.1093,8.1093,8.1093,8.1093,8.1093,8.1093,8.1093,8.1093,8.1093,8.1093,8.1093,8.1093,8.1093,8.1093,8.1093,8.1093,8.1093,8.1093,8.1093,8.1093,8.1093,8.1093,8.1093,8.1093,8.1093,8.1093,8.1093,8.1093,8.1093,8.1093,8.1093,8.1093,8.1093,8.1093,8.1093,8.1093,8.1093,8.1093,8.1093,8.1093,8.1093,8.1093,8.1093,8.1093,8.1093,8.1093,8.1093,8.1093,8.1093,8.1093,8.1093,8.1093,8.1093,8.1093,8.1093,8.1093,8.1093,8.1093,8.1093,8.1093,8.1093,8.1093,8.1093,8.1093,8.1093,8.1093,8.1093,8.1093,8.1093,8.1093,8.1093,8.1093,8.1093,8.1093,8.1093,8.1093,8.1093,8.1093,8.1093,8.1093,8.1093,8.1093,8.1093,8.1093,8.1093,8.1093,8.1093,8.1093,8.1093,8.1093,8.1093,8.1093,8.1093,8.1093,8.1093,8.1093,8.1093,8.1093,8.1093,8.1093,8.1093,8.1093,8.1093,8.1093,8.1093,8.1093,8.1093,8.1093,8.1093,8.1093,8.1093,8.1093,8.1093,8.1093,8.1093,8.1093,8.1093,8.1093,8.1093,8.1093,8.1093,8.1093,8.1093,8.1093,8.1093,8.1093,8.1093,8.1093,8.1093,8.1093,8.1093,8.1093,8.1093,8.1093,8.1093,8.1093,8.1093,8.1093,8.1093,8.1093,8.1093,8.1093,8.1093,8.1093,8.1093,8.1093,8.1093,8.1093,8.1093,8.1093,8.1093,8.1093,8.1093,8.1093,8.1093,8.1093,8.1093,8.1093,8.1093,8.1093,8.1093,8.1093,8.1093,8.1093,8.1093,8.1093,8.1093,8.1093,8.1093,8.1093,8.1093,8.1093,8.1093,8.1093,8.1093,8.1093,8.1093,8.1093,8.1093,8.1093,8.1093,8.1093,8.1093,8.1093,8.1093,8.1093,8.1093,8.1093,8.1093,8.1093,8.1093,8.1093,8.1093,8.1093,8.1093,8.1093,8.1093,8.1093,8.1093,8.1093,8.1093,8.1093,8.1093,8.1093,8.1093,8.1093,8.1093,8.1093,8.1093,8.1093,8.1093,8.1093,8.1093,8.1093,8.1093,8.1093,8.1093,8.1093,8.1093,8.1093,8.1093,8.1093,8.1093,8.1093,8.1093,8.1093,8.1093,8.1093,8.1093,8.1093,8.1093,8.1093,8.1093,8.1093,8.1093,8.1093,8.1093,8.1093,8.1093,8.1093,8.1093,8.1093,8.1093,8.1093,8.1093,8.1093,8.1093,8.1093,8.1093,8.1093,8.1093,8.1093,8.1093,8.1093,8.1093,8.1093,8.1093,8.1093,8.1093,8.1093,8.1093,8.1093,8.1093,8.1093,8.1093,8.1093,8.1093,8.1093,8.1093,8.1093,8.1093,8.1093,8.1093,8.1093,8.1093,8.1093,8.1093,8.1093,8.1093,8.1093,8.1093,8.1093,8.1093,8.1093,8.1093,8.1093,8.1093,8.1093,8.1093,8.1093,8.1093,8.1093,8.1093,8.1093,8.1093,8.1093,8.1093,8.1093,8.1093,8.1093,8.1093,8.1093,8.1093,8.1093,8.1093,8.1093,8.1093,8.1093,8.1093,8.1093,8.1093,8.1093,8.1093,8.1093,8.1093,8.1093,8.1093,8.1093,8.1093,8.1093,8.1093,8.1093,8.1093,8.1093,8.1093,8.1093,8.1093,8.1093,8.1093,8.1093,8.1093,8.1093,8.1093,8.1093,8.1093,8.1093,8.1093,8.1093,8.1093,8.1093,8.1093,8.1093,8.1093,8.1093,8.1093,8.1093,8.1093,8.1093,8.1093,8.1093,8.1093,8.1093,8.1093,8.1093,8.1093,8.1093,8.1093,8.1093,8.1093,8.1093,8.1093,8.1093,8.1093,8.1093,8.1093,8.1093,8.1093,8.1093,8.1093,8.1093,8.1093,8.1093,8.1093,8.1093,8.1093]}]]